<?xml version="1.0" encoding="UTF-8" standalone="no" ?>
<gpx xmlns="http://www.topografix.com/GPX/1/1" xmlns:xsi="http://www.w3.org/2001/XMLSchema-instance" xsi:schemaLocation="http://www.topografix.com/GPX/1/1 http://www.topografix.com/GPX/1/1/gpx.xsd" version="1.1" creator="VisuGPX - https://www.visugpx.com">
  <metadata>
    <name>col \'oncet</name>
    <desc><![CDATA[Barèges 65 montée au col d\'oncet ;sortie caf de Pau]]></desc>
  </metadata>
  <trk>
    <name><![CDATA[31 MARS]]></name>
    <trkseg>
      <trkpt lat="42.90623" lon="0.10206">
        <ele>1561.32</ele>
        <time>2013-03-31T05:48:21Z</time>
      </trkpt>
      <trkpt lat="42.90623" lon="0.10205">
        <ele>1560.36</ele>
        <time>2013-03-31T05:48:23Z</time>
      </trkpt>
      <trkpt lat="42.90623" lon="0.10205">
        <ele>1563.24</ele>
        <time>2013-03-31T05:48:24Z</time>
      </trkpt>
      <trkpt lat="42.90626" lon="0.10196">
        <ele>1559.88</ele>
        <time>2013-03-31T05:48:39Z</time>
      </trkpt>
      <trkpt lat="42.90626" lon="0.10196">
        <ele>1559.88</ele>
        <time>2013-03-31T05:48:40Z</time>
      </trkpt>
      <trkpt lat="42.90627" lon="0.10194">
        <ele>1556.51</ele>
        <time>2013-03-31T05:48:44Z</time>
      </trkpt>
      <trkpt lat="42.90624" lon="0.10192">
        <ele>1553.15</ele>
        <time>2013-03-31T05:48:49Z</time>
      </trkpt>
      <trkpt lat="42.90626" lon="0.10198">
        <ele>1549.3</ele>
        <time>2013-03-31T05:48:55Z</time>
      </trkpt>
      <trkpt lat="42.90626" lon="0.10199">
        <ele>1545.46</ele>
        <time>2013-03-31T05:49:07Z</time>
      </trkpt>
      <trkpt lat="42.90624" lon="0.10201">
        <ele>1541.61</ele>
        <time>2013-03-31T05:49:20Z</time>
      </trkpt>
      <trkpt lat="42.90624" lon="0.10201">
        <ele>1541.61</ele>
        <time>2013-03-31T05:49:25Z</time>
      </trkpt>
      <trkpt lat="42.90625" lon="0.102">
        <ele>1540.17</ele>
        <time>2013-03-31T05:49:32Z</time>
      </trkpt>
      <trkpt lat="42.90625" lon="0.10199">
        <ele>1536.8</ele>
        <time>2013-03-31T05:49:45Z</time>
      </trkpt>
      <trkpt lat="42.90625" lon="0.10199">
        <ele>1540.65</ele>
        <time>2013-03-31T05:49:49Z</time>
      </trkpt>
      <trkpt lat="42.90625" lon="0.10199">
        <ele>1537.29</ele>
        <time>2013-03-31T05:49:50Z</time>
      </trkpt>
      <trkpt lat="42.90625" lon="0.10197">
        <ele>1536.32</ele>
        <time>2013-03-31T05:50:15Z</time>
      </trkpt>
      <trkpt lat="42.90625" lon="0.10198">
        <ele>1536.8</ele>
        <time>2013-03-31T05:50:45Z</time>
      </trkpt>
      <trkpt lat="42.90633" lon="0.10195">
        <ele>1535.84</ele>
        <time>2013-03-31T05:51:18Z</time>
      </trkpt>
      <trkpt lat="42.90633" lon="0.10198">
        <ele>1536.32</ele>
        <time>2013-03-31T05:51:55Z</time>
      </trkpt>
      <trkpt lat="42.90632" lon="0.10197">
        <ele>1535.84</ele>
        <time>2013-03-31T05:52:36Z</time>
      </trkpt>
      <trkpt lat="42.90634" lon="0.10197">
        <ele>1534.88</ele>
        <time>2013-03-31T05:53:14Z</time>
      </trkpt>
      <trkpt lat="42.90633" lon="0.10196">
        <ele>1534.88</ele>
        <time>2013-03-31T05:53:56Z</time>
      </trkpt>
      <trkpt lat="42.90632" lon="0.10195">
        <ele>1534.4</ele>
        <time>2013-03-31T05:54:32Z</time>
      </trkpt>
      <trkpt lat="42.90632" lon="0.10197">
        <ele>1534.4</ele>
        <time>2013-03-31T05:55:08Z</time>
      </trkpt>
      <trkpt lat="42.9063" lon="0.10192">
        <ele>1534.4</ele>
        <time>2013-03-31T05:55:44Z</time>
      </trkpt>
      <trkpt lat="42.90632" lon="0.10196">
        <ele>1532.96</ele>
        <time>2013-03-31T05:56:12Z</time>
      </trkpt>
      <trkpt lat="42.90631" lon="0.10196">
        <ele>1537.29</ele>
        <time>2013-03-31T05:56:13Z</time>
      </trkpt>
      <trkpt lat="42.90632" lon="0.10197">
        <ele>1535.84</ele>
        <time>2013-03-31T05:56:14Z</time>
      </trkpt>
      <trkpt lat="42.90633" lon="0.10197">
        <ele>1535.36</ele>
        <time>2013-03-31T05:56:16Z</time>
      </trkpt>
      <trkpt lat="42.90637" lon="0.10188">
        <ele>1535.36</ele>
        <time>2013-03-31T05:56:32Z</time>
      </trkpt>
      <trkpt lat="42.90637" lon="0.10186">
        <ele>1534.4</ele>
        <time>2013-03-31T05:56:37Z</time>
      </trkpt>
      <trkpt lat="42.90643" lon="0.10188">
        <ele>1535.36</ele>
        <time>2013-03-31T05:56:45Z</time>
      </trkpt>
      <trkpt lat="42.9065" lon="0.10185">
        <ele>1535.36</ele>
        <time>2013-03-31T05:56:51Z</time>
      </trkpt>
      <trkpt lat="42.90654" lon="0.10187">
        <ele>1537.29</ele>
        <time>2013-03-31T05:56:59Z</time>
      </trkpt>
      <trkpt lat="42.90649" lon="0.10188">
        <ele>1537.77</ele>
        <time>2013-03-31T05:57:15Z</time>
      </trkpt>
      <trkpt lat="42.9065" lon="0.10191">
        <ele>1537.77</ele>
        <time>2013-03-31T05:57:33Z</time>
      </trkpt>
      <trkpt lat="42.90651" lon="0.10195">
        <ele>1536.8</ele>
        <time>2013-03-31T05:57:57Z</time>
      </trkpt>
      <trkpt lat="42.90652" lon="0.10194">
        <ele>1535.84</ele>
        <time>2013-03-31T05:58:12Z</time>
      </trkpt>
      <trkpt lat="42.90653" lon="0.10194">
        <ele>1536.8</ele>
        <time>2013-03-31T05:58:29Z</time>
      </trkpt>
      <trkpt lat="42.90656" lon="0.10196">
        <ele>1536.32</ele>
        <time>2013-03-31T05:58:51Z</time>
      </trkpt>
      <trkpt lat="42.90654" lon="0.10196">
        <ele>1536.32</ele>
        <time>2013-03-31T05:59:19Z</time>
      </trkpt>
      <trkpt lat="42.90656" lon="0.10195">
        <ele>1535.84</ele>
        <time>2013-03-31T05:59:49Z</time>
      </trkpt>
      <trkpt lat="42.90658" lon="0.10194">
        <ele>1534.88</ele>
        <time>2013-03-31T06:00:14Z</time>
      </trkpt>
      <trkpt lat="42.90654" lon="0.10195">
        <ele>1534.88</ele>
        <time>2013-03-31T06:00:28Z</time>
      </trkpt>
      <trkpt lat="42.90654" lon="0.10206">
        <ele>1536.32</ele>
        <time>2013-03-31T06:00:41Z</time>
      </trkpt>
      <trkpt lat="42.90654" lon="0.10207">
        <ele>1536.32</ele>
        <time>2013-03-31T06:00:42Z</time>
      </trkpt>
      <trkpt lat="42.90653" lon="0.10224">
        <ele>1538.25</ele>
        <time>2013-03-31T06:00:57Z</time>
      </trkpt>
      <trkpt lat="42.90652" lon="0.10234">
        <ele>1540.65</ele>
        <time>2013-03-31T06:01:11Z</time>
      </trkpt>
      <trkpt lat="42.90652" lon="0.10236">
        <ele>1541.13</ele>
        <time>2013-03-31T06:01:17Z</time>
      </trkpt>
      <trkpt lat="42.90651" lon="0.10254">
        <ele>1541.13</ele>
        <time>2013-03-31T06:01:31Z</time>
      </trkpt>
      <trkpt lat="42.90651" lon="0.10264">
        <ele>1542.09</ele>
        <time>2013-03-31T06:01:39Z</time>
      </trkpt>
      <trkpt lat="42.90654" lon="0.10276">
        <ele>1542.09</ele>
        <time>2013-03-31T06:01:51Z</time>
      </trkpt>
      <trkpt lat="42.90653" lon="0.10284">
        <ele>1542.09</ele>
        <time>2013-03-31T06:01:57Z</time>
      </trkpt>
      <trkpt lat="42.90652" lon="0.103">
        <ele>1543.05</ele>
        <time>2013-03-31T06:02:11Z</time>
      </trkpt>
      <trkpt lat="42.9065" lon="0.10308">
        <ele>1544.5</ele>
        <time>2013-03-31T06:02:19Z</time>
      </trkpt>
      <trkpt lat="42.90646" lon="0.10327">
        <ele>1545.46</ele>
        <time>2013-03-31T06:02:36Z</time>
      </trkpt>
      <trkpt lat="42.90646" lon="0.10342">
        <ele>1545.94</ele>
        <time>2013-03-31T06:02:48Z</time>
      </trkpt>
      <trkpt lat="42.90643" lon="0.10354">
        <ele>1546.9</ele>
        <time>2013-03-31T06:03:01Z</time>
      </trkpt>
      <trkpt lat="42.90643" lon="0.10364">
        <ele>1548.82</ele>
        <time>2013-03-31T06:03:13Z</time>
      </trkpt>
      <trkpt lat="42.90642" lon="0.10366">
        <ele>1548.82</ele>
        <time>2013-03-31T06:03:15Z</time>
      </trkpt>
      <trkpt lat="42.90643" lon="0.10377">
        <ele>1549.78</ele>
        <time>2013-03-31T06:03:23Z</time>
      </trkpt>
      <trkpt lat="42.90644" lon="0.10385">
        <ele>1550.74</ele>
        <time>2013-03-31T06:03:37Z</time>
      </trkpt>
      <trkpt lat="42.90641" lon="0.10401">
        <ele>1550.26</ele>
        <time>2013-03-31T06:03:49Z</time>
      </trkpt>
      <trkpt lat="42.90641" lon="0.10423">
        <ele>1550.74</ele>
        <time>2013-03-31T06:04:03Z</time>
      </trkpt>
      <trkpt lat="42.90637" lon="0.10437">
        <ele>1552.19</ele>
        <time>2013-03-31T06:04:17Z</time>
      </trkpt>
      <trkpt lat="42.90634" lon="0.10448">
        <ele>1551.71</ele>
        <time>2013-03-31T06:04:31Z</time>
      </trkpt>
      <trkpt lat="42.90636" lon="0.10464">
        <ele>1551.71</ele>
        <time>2013-03-31T06:04:43Z</time>
      </trkpt>
      <trkpt lat="42.90636" lon="0.10476">
        <ele>1553.15</ele>
        <time>2013-03-31T06:04:55Z</time>
      </trkpt>
      <trkpt lat="42.90633" lon="0.10486">
        <ele>1554.11</ele>
        <time>2013-03-31T06:05:07Z</time>
      </trkpt>
      <trkpt lat="42.90634" lon="0.10496">
        <ele>1553.63</ele>
        <time>2013-03-31T06:05:17Z</time>
      </trkpt>
      <trkpt lat="42.90639" lon="0.10512">
        <ele>1554.59</ele>
        <time>2013-03-31T06:05:30Z</time>
      </trkpt>
      <trkpt lat="42.90636" lon="0.10524">
        <ele>1555.07</ele>
        <time>2013-03-31T06:05:45Z</time>
      </trkpt>
      <trkpt lat="42.90638" lon="0.10544">
        <ele>1556.99</ele>
        <time>2013-03-31T06:06:01Z</time>
      </trkpt>
      <trkpt lat="42.90642" lon="0.10561">
        <ele>1558.92</ele>
        <time>2013-03-31T06:06:14Z</time>
      </trkpt>
      <trkpt lat="42.90637" lon="0.10571">
        <ele>1558.92</ele>
        <time>2013-03-31T06:06:27Z</time>
      </trkpt>
      <trkpt lat="42.90626" lon="0.10584">
        <ele>1558.92</ele>
        <time>2013-03-31T06:06:43Z</time>
      </trkpt>
      <trkpt lat="42.90626" lon="0.1059">
        <ele>1559.4</ele>
        <time>2013-03-31T06:06:47Z</time>
      </trkpt>
      <trkpt lat="42.90623" lon="0.1061">
        <ele>1560.84</ele>
        <time>2013-03-31T06:07:02Z</time>
      </trkpt>
      <trkpt lat="42.90622" lon="0.1062">
        <ele>1562.28</ele>
        <time>2013-03-31T06:07:14Z</time>
      </trkpt>
      <trkpt lat="42.90623" lon="0.10625">
        <ele>1562.28</ele>
        <time>2013-03-31T06:07:18Z</time>
      </trkpt>
      <trkpt lat="42.90625" lon="0.10635">
        <ele>1562.28</ele>
        <time>2013-03-31T06:07:27Z</time>
      </trkpt>
      <trkpt lat="42.90625" lon="0.10646">
        <ele>1563.24</ele>
        <time>2013-03-31T06:07:40Z</time>
      </trkpt>
      <trkpt lat="42.90625" lon="0.1065">
        <ele>1563.72</ele>
        <time>2013-03-31T06:07:46Z</time>
      </trkpt>
      <trkpt lat="42.90628" lon="0.10669">
        <ele>1564.68</ele>
        <time>2013-03-31T06:08:01Z</time>
      </trkpt>
      <trkpt lat="42.90629" lon="0.10681">
        <ele>1566.61</ele>
        <time>2013-03-31T06:08:14Z</time>
      </trkpt>
      <trkpt lat="42.9063" lon="0.10696">
        <ele>1567.57</ele>
        <time>2013-03-31T06:08:30Z</time>
      </trkpt>
      <trkpt lat="42.90635" lon="0.10704">
        <ele>1567.57</ele>
        <time>2013-03-31T06:08:44Z</time>
      </trkpt>
      <trkpt lat="42.90636" lon="0.10708">
        <ele>1569.49</ele>
        <time>2013-03-31T06:08:59Z</time>
      </trkpt>
      <trkpt lat="42.90637" lon="0.10722">
        <ele>1570.45</ele>
        <time>2013-03-31T06:09:11Z</time>
      </trkpt>
      <trkpt lat="42.90638" lon="0.10722">
        <ele>1570.93</ele>
        <time>2013-03-31T06:09:12Z</time>
      </trkpt>
      <trkpt lat="42.90634" lon="0.10737">
        <ele>1569.49</ele>
        <time>2013-03-31T06:09:26Z</time>
      </trkpt>
      <trkpt lat="42.90636" lon="0.10751">
        <ele>1570.93</ele>
        <time>2013-03-31T06:09:38Z</time>
      </trkpt>
      <trkpt lat="42.90637" lon="0.10766">
        <ele>1571.41</ele>
        <time>2013-03-31T06:09:52Z</time>
      </trkpt>
      <trkpt lat="42.90637" lon="0.10779">
        <ele>1571.89</ele>
        <time>2013-03-31T06:10:03Z</time>
      </trkpt>
      <trkpt lat="42.90637" lon="0.10797">
        <ele>1573.82</ele>
        <time>2013-03-31T06:10:18Z</time>
      </trkpt>
      <trkpt lat="42.90642" lon="0.10816">
        <ele>1574.3</ele>
        <time>2013-03-31T06:10:34Z</time>
      </trkpt>
      <trkpt lat="42.90642" lon="0.1083">
        <ele>1577.18</ele>
        <time>2013-03-31T06:10:47Z</time>
      </trkpt>
      <trkpt lat="42.90641" lon="0.10846">
        <ele>1578.14</ele>
        <time>2013-03-31T06:11:03Z</time>
      </trkpt>
      <trkpt lat="42.90643" lon="0.10853">
        <ele>1579.1</ele>
        <time>2013-03-31T06:11:13Z</time>
      </trkpt>
      <trkpt lat="42.90644" lon="0.10853">
        <ele>1579.1</ele>
        <time>2013-03-31T06:11:28Z</time>
      </trkpt>
      <trkpt lat="42.9064" lon="0.10849">
        <ele>1578.62</ele>
        <time>2013-03-31T06:11:49Z</time>
      </trkpt>
      <trkpt lat="42.90643" lon="0.1087">
        <ele>1578.62</ele>
        <time>2013-03-31T06:12:02Z</time>
      </trkpt>
      <trkpt lat="42.90646" lon="0.10885">
        <ele>1580.06</ele>
        <time>2013-03-31T06:12:15Z</time>
      </trkpt>
      <trkpt lat="42.90647" lon="0.10901">
        <ele>1581.51</ele>
        <time>2013-03-31T06:12:29Z</time>
      </trkpt>
      <trkpt lat="42.90648" lon="0.10919">
        <ele>1582.47</ele>
        <time>2013-03-31T06:12:44Z</time>
      </trkpt>
      <trkpt lat="42.9065" lon="0.10935">
        <ele>1583.43</ele>
        <time>2013-03-31T06:12:58Z</time>
      </trkpt>
      <trkpt lat="42.90651" lon="0.10952">
        <ele>1584.39</ele>
        <time>2013-03-31T06:13:10Z</time>
      </trkpt>
      <trkpt lat="42.90655" lon="0.10965">
        <ele>1585.35</ele>
        <time>2013-03-31T06:13:24Z</time>
      </trkpt>
      <trkpt lat="42.9066" lon="0.10978">
        <ele>1586.79</ele>
        <time>2013-03-31T06:13:39Z</time>
      </trkpt>
      <trkpt lat="42.90662" lon="0.10989">
        <ele>1588.72</ele>
        <time>2013-03-31T06:13:51Z</time>
      </trkpt>
      <trkpt lat="42.90663" lon="0.10991">
        <ele>1588.72</ele>
        <time>2013-03-31T06:13:53Z</time>
      </trkpt>
      <trkpt lat="42.90667" lon="0.11004">
        <ele>1589.68</ele>
        <time>2013-03-31T06:14:06Z</time>
      </trkpt>
      <trkpt lat="42.90671" lon="0.11018">
        <ele>1591.6</ele>
        <time>2013-03-31T06:14:20Z</time>
      </trkpt>
      <trkpt lat="42.90676" lon="0.11035">
        <ele>1592.08</ele>
        <time>2013-03-31T06:14:31Z</time>
      </trkpt>
      <trkpt lat="42.90683" lon="0.11045">
        <ele>1593.04</ele>
        <time>2013-03-31T06:14:44Z</time>
      </trkpt>
      <trkpt lat="42.90686" lon="0.11057">
        <ele>1594</ele>
        <time>2013-03-31T06:14:54Z</time>
      </trkpt>
      <trkpt lat="42.90689" lon="0.1107">
        <ele>1596.89</ele>
        <time>2013-03-31T06:15:08Z</time>
      </trkpt>
      <trkpt lat="42.90693" lon="0.11087">
        <ele>1598.33</ele>
        <time>2013-03-31T06:15:22Z</time>
      </trkpt>
      <trkpt lat="42.90695" lon="0.111">
        <ele>1599.29</ele>
        <time>2013-03-31T06:15:34Z</time>
      </trkpt>
      <trkpt lat="42.90695" lon="0.11102">
        <ele>1598.81</ele>
        <time>2013-03-31T06:15:36Z</time>
      </trkpt>
      <trkpt lat="42.907" lon="0.11126">
        <ele>1598.81</ele>
        <time>2013-03-31T06:15:51Z</time>
      </trkpt>
      <trkpt lat="42.90704" lon="0.11142">
        <ele>1599.29</ele>
        <time>2013-03-31T06:16:04Z</time>
      </trkpt>
      <trkpt lat="42.90707" lon="0.1115">
        <ele>1600.25</ele>
        <time>2013-03-31T06:16:13Z</time>
      </trkpt>
      <trkpt lat="42.9071" lon="0.11157">
        <ele>1600.73</ele>
        <time>2013-03-31T06:16:20Z</time>
      </trkpt>
      <trkpt lat="42.90714" lon="0.11173">
        <ele>1601.69</ele>
        <time>2013-03-31T06:16:31Z</time>
      </trkpt>
      <trkpt lat="42.90719" lon="0.11192">
        <ele>1603.62</ele>
        <time>2013-03-31T06:16:46Z</time>
      </trkpt>
      <trkpt lat="42.90721" lon="0.11208">
        <ele>1604.1</ele>
        <time>2013-03-31T06:16:59Z</time>
      </trkpt>
      <trkpt lat="42.90722" lon="0.11213">
        <ele>1604.1</ele>
        <time>2013-03-31T06:17:02Z</time>
      </trkpt>
      <trkpt lat="42.90725" lon="0.11229">
        <ele>1605.06</ele>
        <time>2013-03-31T06:17:15Z</time>
      </trkpt>
      <trkpt lat="42.90727" lon="0.11244">
        <ele>1605.54</ele>
        <time>2013-03-31T06:17:27Z</time>
      </trkpt>
      <trkpt lat="42.9073" lon="0.11254">
        <ele>1607.46</ele>
        <time>2013-03-31T06:17:38Z</time>
      </trkpt>
      <trkpt lat="42.90733" lon="0.11268">
        <ele>1608.9</ele>
        <time>2013-03-31T06:17:54Z</time>
      </trkpt>
      <trkpt lat="42.90735" lon="0.11278">
        <ele>1610.83</ele>
        <time>2013-03-31T06:18:07Z</time>
      </trkpt>
      <trkpt lat="42.9074" lon="0.11287">
        <ele>1612.27</ele>
        <time>2013-03-31T06:18:21Z</time>
      </trkpt>
      <trkpt lat="42.90742" lon="0.11299">
        <ele>1614.19</ele>
        <time>2013-03-31T06:18:34Z</time>
      </trkpt>
      <trkpt lat="42.90745" lon="0.11312">
        <ele>1615.15</ele>
        <time>2013-03-31T06:18:47Z</time>
      </trkpt>
      <trkpt lat="42.90753" lon="0.11323">
        <ele>1617.07</ele>
        <time>2013-03-31T06:18:59Z</time>
      </trkpt>
      <trkpt lat="42.90752" lon="0.1133">
        <ele>1617.56</ele>
        <time>2013-03-31T06:19:07Z</time>
      </trkpt>
      <trkpt lat="42.90754" lon="0.11343">
        <ele>1619.48</ele>
        <time>2013-03-31T06:19:23Z</time>
      </trkpt>
      <trkpt lat="42.90756" lon="0.11361">
        <ele>1621.88</ele>
        <time>2013-03-31T06:19:40Z</time>
      </trkpt>
      <trkpt lat="42.90761" lon="0.11373">
        <ele>1623.8</ele>
        <time>2013-03-31T06:19:58Z</time>
      </trkpt>
      <trkpt lat="42.90766" lon="0.11386">
        <ele>1624.77</ele>
        <time>2013-03-31T06:20:13Z</time>
      </trkpt>
      <trkpt lat="42.9077" lon="0.11398">
        <ele>1625.73</ele>
        <time>2013-03-31T06:20:31Z</time>
      </trkpt>
      <trkpt lat="42.90778" lon="0.1141">
        <ele>1628.13</ele>
        <time>2013-03-31T06:20:47Z</time>
      </trkpt>
      <trkpt lat="42.90789" lon="0.11417">
        <ele>1630.05</ele>
        <time>2013-03-31T06:21:05Z</time>
      </trkpt>
      <trkpt lat="42.90798" lon="0.11425">
        <ele>1631.49</ele>
        <time>2013-03-31T06:21:23Z</time>
      </trkpt>
      <trkpt lat="42.90809" lon="0.11433">
        <ele>1632.94</ele>
        <time>2013-03-31T06:21:39Z</time>
      </trkpt>
      <trkpt lat="42.90814" lon="0.11442">
        <ele>1635.34</ele>
        <time>2013-03-31T06:21:56Z</time>
      </trkpt>
      <trkpt lat="42.9082" lon="0.11449">
        <ele>1636.3</ele>
        <time>2013-03-31T06:22:11Z</time>
      </trkpt>
      <trkpt lat="42.90826" lon="0.11455">
        <ele>1638.22</ele>
        <time>2013-03-31T06:22:27Z</time>
      </trkpt>
      <trkpt lat="42.90829" lon="0.1146">
        <ele>1639.67</ele>
        <time>2013-03-31T06:22:35Z</time>
      </trkpt>
      <trkpt lat="42.90838" lon="0.11471">
        <ele>1641.59</ele>
        <time>2013-03-31T06:22:54Z</time>
      </trkpt>
      <trkpt lat="42.90845" lon="0.11481">
        <ele>1643.03</ele>
        <time>2013-03-31T06:23:09Z</time>
      </trkpt>
      <trkpt lat="42.90846" lon="0.11482">
        <ele>1644.47</ele>
        <time>2013-03-31T06:23:11Z</time>
      </trkpt>
      <trkpt lat="42.90847" lon="0.11483">
        <ele>1643.51</ele>
        <time>2013-03-31T06:23:13Z</time>
      </trkpt>
      <trkpt lat="42.90854" lon="0.11495">
        <ele>1645.91</ele>
        <time>2013-03-31T06:23:30Z</time>
      </trkpt>
      <trkpt lat="42.90863" lon="0.11501">
        <ele>1648.8</ele>
        <time>2013-03-31T06:23:49Z</time>
      </trkpt>
      <trkpt lat="42.90871" lon="0.11507">
        <ele>1650.24</ele>
        <time>2013-03-31T06:24:04Z</time>
      </trkpt>
      <trkpt lat="42.90876" lon="0.11519">
        <ele>1650.72</ele>
        <time>2013-03-31T06:24:18Z</time>
      </trkpt>
      <trkpt lat="42.90877" lon="0.11522">
        <ele>1651.2</ele>
        <time>2013-03-31T06:24:33Z</time>
      </trkpt>
      <trkpt lat="42.90877" lon="0.11527">
        <ele>1652.16</ele>
        <time>2013-03-31T06:24:43Z</time>
      </trkpt>
      <trkpt lat="42.90883" lon="0.11545">
        <ele>1654.09</ele>
        <time>2013-03-31T06:25:01Z</time>
      </trkpt>
      <trkpt lat="42.90888" lon="0.11556">
        <ele>1655.53</ele>
        <time>2013-03-31T06:25:17Z</time>
      </trkpt>
      <trkpt lat="42.90893" lon="0.11567">
        <ele>1658.41</ele>
        <time>2013-03-31T06:25:32Z</time>
      </trkpt>
      <trkpt lat="42.909" lon="0.11577">
        <ele>1659.85</ele>
        <time>2013-03-31T06:25:48Z</time>
      </trkpt>
      <trkpt lat="42.90905" lon="0.11587">
        <ele>1662.74</ele>
        <time>2013-03-31T06:26:02Z</time>
      </trkpt>
      <trkpt lat="42.90907" lon="0.11593">
        <ele>1663.7</ele>
        <time>2013-03-31T06:26:15Z</time>
      </trkpt>
      <trkpt lat="42.90912" lon="0.11601">
        <ele>1664.66</ele>
        <time>2013-03-31T06:26:28Z</time>
      </trkpt>
      <trkpt lat="42.90914" lon="0.11613">
        <ele>1667.06</ele>
        <time>2013-03-31T06:26:42Z</time>
      </trkpt>
      <trkpt lat="42.90919" lon="0.11616">
        <ele>1668.99</ele>
        <time>2013-03-31T06:26:54Z</time>
      </trkpt>
      <trkpt lat="42.90923" lon="0.11624">
        <ele>1670.91</ele>
        <time>2013-03-31T06:27:10Z</time>
      </trkpt>
      <trkpt lat="42.90928" lon="0.11633">
        <ele>1673.79</ele>
        <time>2013-03-31T06:27:25Z</time>
      </trkpt>
      <trkpt lat="42.90934" lon="0.11639">
        <ele>1675.72</ele>
        <time>2013-03-31T06:27:39Z</time>
      </trkpt>
      <trkpt lat="42.90942" lon="0.11637">
        <ele>1678.6</ele>
        <time>2013-03-31T06:27:54Z</time>
      </trkpt>
      <trkpt lat="42.90942" lon="0.11648">
        <ele>1679.56</ele>
        <time>2013-03-31T06:28:09Z</time>
      </trkpt>
      <trkpt lat="42.90944" lon="0.11652">
        <ele>1681</ele>
        <time>2013-03-31T06:28:19Z</time>
      </trkpt>
      <trkpt lat="42.90947" lon="0.11656">
        <ele>1683.41</ele>
        <time>2013-03-31T06:28:34Z</time>
      </trkpt>
      <trkpt lat="42.9094" lon="0.11656">
        <ele>1683.89</ele>
        <time>2013-03-31T06:28:46Z</time>
      </trkpt>
      <trkpt lat="42.90943" lon="0.11661">
        <ele>1684.85</ele>
        <time>2013-03-31T06:28:58Z</time>
      </trkpt>
      <trkpt lat="42.90947" lon="0.11666">
        <ele>1686.77</ele>
        <time>2013-03-31T06:29:08Z</time>
      </trkpt>
      <trkpt lat="42.90952" lon="0.11675">
        <ele>1688.21</ele>
        <time>2013-03-31T06:29:24Z</time>
      </trkpt>
      <trkpt lat="42.90959" lon="0.1167">
        <ele>1689.65</ele>
        <time>2013-03-31T06:29:37Z</time>
      </trkpt>
      <trkpt lat="42.9096" lon="0.11667">
        <ele>1690.62</ele>
        <time>2013-03-31T06:29:52Z</time>
      </trkpt>
      <trkpt lat="42.90961" lon="0.1168">
        <ele>1693.02</ele>
        <time>2013-03-31T06:30:08Z</time>
      </trkpt>
      <trkpt lat="42.90962" lon="0.11689">
        <ele>1694.94</ele>
        <time>2013-03-31T06:30:18Z</time>
      </trkpt>
      <trkpt lat="42.90966" lon="0.117">
        <ele>1694.94</ele>
        <time>2013-03-31T06:30:31Z</time>
      </trkpt>
      <trkpt lat="42.90971" lon="0.11698">
        <ele>1696.86</ele>
        <time>2013-03-31T06:30:50Z</time>
      </trkpt>
      <trkpt lat="42.90968" lon="0.11696">
        <ele>1696.38</ele>
        <time>2013-03-31T06:31:15Z</time>
      </trkpt>
      <trkpt lat="42.90967" lon="0.11695">
        <ele>1695.9</ele>
        <time>2013-03-31T06:31:35Z</time>
      </trkpt>
      <trkpt lat="42.90968" lon="0.11693">
        <ele>1696.38</ele>
        <time>2013-03-31T06:32:13Z</time>
      </trkpt>
      <trkpt lat="42.90968" lon="0.11697">
        <ele>1695.42</ele>
        <time>2013-03-31T06:32:47Z</time>
      </trkpt>
      <trkpt lat="42.90968" lon="0.11694">
        <ele>1694.46</ele>
        <time>2013-03-31T06:33:29Z</time>
      </trkpt>
      <trkpt lat="42.9097" lon="0.11697">
        <ele>1695.42</ele>
        <time>2013-03-31T06:34:01Z</time>
      </trkpt>
      <trkpt lat="42.90969" lon="0.11696">
        <ele>1695.9</ele>
        <time>2013-03-31T06:34:27Z</time>
      </trkpt>
      <trkpt lat="42.9097" lon="0.11696">
        <ele>1696.38</ele>
        <time>2013-03-31T06:34:48Z</time>
      </trkpt>
      <trkpt lat="42.90969" lon="0.11697">
        <ele>1695.9</ele>
        <time>2013-03-31T06:35:06Z</time>
      </trkpt>
      <trkpt lat="42.9097" lon="0.11697">
        <ele>1695.42</ele>
        <time>2013-03-31T06:35:38Z</time>
      </trkpt>
      <trkpt lat="42.9097" lon="0.11698">
        <ele>1695.42</ele>
        <time>2013-03-31T06:36:06Z</time>
      </trkpt>
      <trkpt lat="42.90969" lon="0.117">
        <ele>1694.46</ele>
        <time>2013-03-31T06:36:26Z</time>
      </trkpt>
      <trkpt lat="42.90969" lon="0.11697">
        <ele>1694.94</ele>
        <time>2013-03-31T06:36:59Z</time>
      </trkpt>
      <trkpt lat="42.90969" lon="0.11697">
        <ele>1695.9</ele>
        <time>2013-03-31T06:37:01Z</time>
      </trkpt>
      <trkpt lat="42.90968" lon="0.11695">
        <ele>1694.94</ele>
        <time>2013-03-31T06:37:07Z</time>
      </trkpt>
      <trkpt lat="42.90969" lon="0.11697">
        <ele>1695.42</ele>
        <time>2013-03-31T06:37:25Z</time>
      </trkpt>
      <trkpt lat="42.9097" lon="0.11695">
        <ele>1696.38</ele>
        <time>2013-03-31T06:37:50Z</time>
      </trkpt>
      <trkpt lat="42.90966" lon="0.117">
        <ele>1695.9</ele>
        <time>2013-03-31T06:38:13Z</time>
      </trkpt>
      <trkpt lat="42.9097" lon="0.11701">
        <ele>1695.9</ele>
        <time>2013-03-31T06:38:33Z</time>
      </trkpt>
      <trkpt lat="42.9097" lon="0.11701">
        <ele>1694.94</ele>
        <time>2013-03-31T06:38:58Z</time>
      </trkpt>
      <trkpt lat="42.9097" lon="0.11701">
        <ele>1696.86</ele>
        <time>2013-03-31T06:39:13Z</time>
      </trkpt>
      <trkpt lat="42.90972" lon="0.11702">
        <ele>1697.34</ele>
        <time>2013-03-31T06:39:28Z</time>
      </trkpt>
      <trkpt lat="42.90974" lon="0.11707">
        <ele>1698.31</ele>
        <time>2013-03-31T06:39:35Z</time>
      </trkpt>
      <trkpt lat="42.90977" lon="0.11719">
        <ele>1700.71</ele>
        <time>2013-03-31T06:39:47Z</time>
      </trkpt>
      <trkpt lat="42.90985" lon="0.1173">
        <ele>1702.63</ele>
        <time>2013-03-31T06:40:02Z</time>
      </trkpt>
      <trkpt lat="42.90993" lon="0.11738">
        <ele>1705.52</ele>
        <time>2013-03-31T06:40:19Z</time>
      </trkpt>
      <trkpt lat="42.90995" lon="0.1175">
        <ele>1707.92</ele>
        <time>2013-03-31T06:40:34Z</time>
      </trkpt>
      <trkpt lat="42.90999" lon="0.11758">
        <ele>1708.4</ele>
        <time>2013-03-31T06:40:44Z</time>
      </trkpt>
      <trkpt lat="42.91002" lon="0.11769">
        <ele>1710.32</ele>
        <time>2013-03-31T06:40:57Z</time>
      </trkpt>
      <trkpt lat="42.91013" lon="0.11774">
        <ele>1712.73</ele>
        <time>2013-03-31T06:41:12Z</time>
      </trkpt>
      <trkpt lat="42.91018" lon="0.11782">
        <ele>1714.65</ele>
        <time>2013-03-31T06:41:28Z</time>
      </trkpt>
      <trkpt lat="42.91025" lon="0.11791">
        <ele>1716.57</ele>
        <time>2013-03-31T06:41:41Z</time>
      </trkpt>
      <trkpt lat="42.91028" lon="0.11797">
        <ele>1717.53</ele>
        <time>2013-03-31T06:41:49Z</time>
      </trkpt>
      <trkpt lat="42.9103" lon="0.11801">
        <ele>1718.49</ele>
        <time>2013-03-31T06:41:54Z</time>
      </trkpt>
      <trkpt lat="42.91029" lon="0.11811">
        <ele>1719.46</ele>
        <time>2013-03-31T06:42:07Z</time>
      </trkpt>
      <trkpt lat="42.91032" lon="0.11811">
        <ele>1720.9</ele>
        <time>2013-03-31T06:42:18Z</time>
      </trkpt>
      <trkpt lat="42.91031" lon="0.11813">
        <ele>1720.9</ele>
        <time>2013-03-31T06:42:33Z</time>
      </trkpt>
      <trkpt lat="42.91035" lon="0.11817">
        <ele>1721.86</ele>
        <time>2013-03-31T06:42:47Z</time>
      </trkpt>
      <trkpt lat="42.91038" lon="0.11829">
        <ele>1724.26</ele>
        <time>2013-03-31T06:43:02Z</time>
      </trkpt>
      <trkpt lat="42.91044" lon="0.11838">
        <ele>1727.15</ele>
        <time>2013-03-31T06:43:15Z</time>
      </trkpt>
      <trkpt lat="42.91044" lon="0.11839">
        <ele>1727.15</ele>
        <time>2013-03-31T06:43:16Z</time>
      </trkpt>
      <trkpt lat="42.9105" lon="0.11845">
        <ele>1728.59</ele>
        <time>2013-03-31T06:43:31Z</time>
      </trkpt>
      <trkpt lat="42.91056" lon="0.11852">
        <ele>1731.47</ele>
        <time>2013-03-31T06:43:49Z</time>
      </trkpt>
      <trkpt lat="42.91062" lon="0.11864">
        <ele>1732.91</ele>
        <time>2013-03-31T06:44:04Z</time>
      </trkpt>
      <trkpt lat="42.9107" lon="0.11865">
        <ele>1736.28</ele>
        <time>2013-03-31T06:44:22Z</time>
      </trkpt>
      <trkpt lat="42.91076" lon="0.11857">
        <ele>1737.24</ele>
        <time>2013-03-31T06:44:37Z</time>
      </trkpt>
      <trkpt lat="42.9108" lon="0.11847">
        <ele>1739.64</ele>
        <time>2013-03-31T06:44:54Z</time>
      </trkpt>
      <trkpt lat="42.9108" lon="0.11847">
        <ele>1740.12</ele>
        <time>2013-03-31T06:45:07Z</time>
      </trkpt>
      <trkpt lat="42.91085" lon="0.11862">
        <ele>1742.53</ele>
        <time>2013-03-31T06:45:19Z</time>
      </trkpt>
      <trkpt lat="42.91092" lon="0.11871">
        <ele>1744.45</ele>
        <time>2013-03-31T06:45:31Z</time>
      </trkpt>
      <trkpt lat="42.91099" lon="0.11883">
        <ele>1745.89</ele>
        <time>2013-03-31T06:45:46Z</time>
      </trkpt>
      <trkpt lat="42.91107" lon="0.11895">
        <ele>1746.37</ele>
        <time>2013-03-31T06:46:05Z</time>
      </trkpt>
      <trkpt lat="42.91112" lon="0.11901">
        <ele>1749.74</ele>
        <time>2013-03-31T06:46:15Z</time>
      </trkpt>
      <trkpt lat="42.91112" lon="0.11902">
        <ele>1749.26</ele>
        <time>2013-03-31T06:46:16Z</time>
      </trkpt>
      <trkpt lat="42.91112" lon="0.11904">
        <ele>1749.26</ele>
        <time>2013-03-31T06:46:18Z</time>
      </trkpt>
      <trkpt lat="42.91114" lon="0.11915">
        <ele>1751.18</ele>
        <time>2013-03-31T06:46:32Z</time>
      </trkpt>
      <trkpt lat="42.91112" lon="0.11929">
        <ele>1753.1</ele>
        <time>2013-03-31T06:46:47Z</time>
      </trkpt>
      <trkpt lat="42.91114" lon="0.1194">
        <ele>1755.5</ele>
        <time>2013-03-31T06:47:01Z</time>
      </trkpt>
      <trkpt lat="42.91116" lon="0.11939">
        <ele>1755.99</ele>
        <time>2013-03-31T06:47:05Z</time>
      </trkpt>
      <trkpt lat="42.91126" lon="0.11938">
        <ele>1758.39</ele>
        <time>2013-03-31T06:47:23Z</time>
      </trkpt>
      <trkpt lat="42.91135" lon="0.11938">
        <ele>1760.31</ele>
        <time>2013-03-31T06:47:40Z</time>
      </trkpt>
      <trkpt lat="42.91145" lon="0.11942">
        <ele>1763.2</ele>
        <time>2013-03-31T06:47:56Z</time>
      </trkpt>
      <trkpt lat="42.91149" lon="0.11953">
        <ele>1765.12</ele>
        <time>2013-03-31T06:48:08Z</time>
      </trkpt>
      <trkpt lat="42.91151" lon="0.11959">
        <ele>1766.56</ele>
        <time>2013-03-31T06:48:22Z</time>
      </trkpt>
      <trkpt lat="42.91154" lon="0.11968">
        <ele>1767.04</ele>
        <time>2013-03-31T06:48:39Z</time>
      </trkpt>
      <trkpt lat="42.91157" lon="0.1197">
        <ele>1768</ele>
        <time>2013-03-31T06:48:51Z</time>
      </trkpt>
      <trkpt lat="42.91167" lon="0.11966">
        <ele>1770.89</ele>
        <time>2013-03-31T06:49:06Z</time>
      </trkpt>
      <trkpt lat="42.91172" lon="0.11961">
        <ele>1772.33</ele>
        <time>2013-03-31T06:49:20Z</time>
      </trkpt>
      <trkpt lat="42.9118" lon="0.11946">
        <ele>1773.77</ele>
        <time>2013-03-31T06:49:39Z</time>
      </trkpt>
      <trkpt lat="42.91188" lon="0.11945">
        <ele>1777.13</ele>
        <time>2013-03-31T06:49:56Z</time>
      </trkpt>
      <trkpt lat="42.912" lon="0.11945">
        <ele>1778.1</ele>
        <time>2013-03-31T06:50:12Z</time>
      </trkpt>
      <trkpt lat="42.91204" lon="0.11934">
        <ele>1779.06</ele>
        <time>2013-03-31T06:50:23Z</time>
      </trkpt>
      <trkpt lat="42.91205" lon="0.11919">
        <ele>1780.98</ele>
        <time>2013-03-31T06:50:41Z</time>
      </trkpt>
      <trkpt lat="42.91204" lon="0.11919">
        <ele>1782.9</ele>
        <time>2013-03-31T06:50:57Z</time>
      </trkpt>
      <trkpt lat="42.912" lon="0.11911">
        <ele>1782.9</ele>
        <time>2013-03-31T06:51:07Z</time>
      </trkpt>
      <trkpt lat="42.91198" lon="0.119">
        <ele>1785.79</ele>
        <time>2013-03-31T06:51:20Z</time>
      </trkpt>
      <trkpt lat="42.91196" lon="0.11893">
        <ele>1786.27</ele>
        <time>2013-03-31T06:51:34Z</time>
      </trkpt>
      <trkpt lat="42.91198" lon="0.11885">
        <ele>1789.63</ele>
        <time>2013-03-31T06:51:47Z</time>
      </trkpt>
      <trkpt lat="42.91198" lon="0.11884">
        <ele>1789.63</ele>
        <time>2013-03-31T06:51:48Z</time>
      </trkpt>
      <trkpt lat="42.91199" lon="0.11882">
        <ele>1790.11</ele>
        <time>2013-03-31T06:51:52Z</time>
      </trkpt>
      <trkpt lat="42.91203" lon="0.11876">
        <ele>1789.63</ele>
        <time>2013-03-31T06:52:05Z</time>
      </trkpt>
      <trkpt lat="42.91205" lon="0.1187">
        <ele>1793</ele>
        <time>2013-03-31T06:52:12Z</time>
      </trkpt>
      <trkpt lat="42.91205" lon="0.11866">
        <ele>1793.48</ele>
        <time>2013-03-31T06:52:17Z</time>
      </trkpt>
      <trkpt lat="42.91205" lon="0.11858">
        <ele>1795.88</ele>
        <time>2013-03-31T06:52:32Z</time>
      </trkpt>
      <trkpt lat="42.91211" lon="0.11867">
        <ele>1797.32</ele>
        <time>2013-03-31T06:52:47Z</time>
      </trkpt>
      <trkpt lat="42.9122" lon="0.11872">
        <ele>1798.76</ele>
        <time>2013-03-31T06:53:02Z</time>
      </trkpt>
      <trkpt lat="42.91228" lon="0.11879">
        <ele>1801.65</ele>
        <time>2013-03-31T06:53:17Z</time>
      </trkpt>
      <trkpt lat="42.91231" lon="0.11882">
        <ele>1803.57</ele>
        <time>2013-03-31T06:53:24Z</time>
      </trkpt>
      <trkpt lat="42.9124" lon="0.11888">
        <ele>1805.01</ele>
        <time>2013-03-31T06:53:42Z</time>
      </trkpt>
      <trkpt lat="42.91244" lon="0.11889">
        <ele>1805.97</ele>
        <time>2013-03-31T06:53:58Z</time>
      </trkpt>
      <trkpt lat="42.91246" lon="0.11889">
        <ele>1807.9</ele>
        <time>2013-03-31T06:54:01Z</time>
      </trkpt>
      <trkpt lat="42.91246" lon="0.11883">
        <ele>1807.9</ele>
        <time>2013-03-31T06:54:15Z</time>
      </trkpt>
      <trkpt lat="42.91245" lon="0.11877">
        <ele>1811.74</ele>
        <time>2013-03-31T06:54:25Z</time>
      </trkpt>
      <trkpt lat="42.91244" lon="0.11875">
        <ele>1811.26</ele>
        <time>2013-03-31T06:54:29Z</time>
      </trkpt>
      <trkpt lat="42.91246" lon="0.11863">
        <ele>1815.11</ele>
        <time>2013-03-31T06:54:48Z</time>
      </trkpt>
      <trkpt lat="42.91247" lon="0.11851">
        <ele>1816.55</ele>
        <time>2013-03-31T06:55:06Z</time>
      </trkpt>
      <trkpt lat="42.91248" lon="0.11846">
        <ele>1819.43</ele>
        <time>2013-03-31T06:55:13Z</time>
      </trkpt>
      <trkpt lat="42.9125" lon="0.11841">
        <ele>1820.39</ele>
        <time>2013-03-31T06:55:28Z</time>
      </trkpt>
      <trkpt lat="42.91255" lon="0.11846">
        <ele>1820.87</ele>
        <time>2013-03-31T06:55:40Z</time>
      </trkpt>
      <trkpt lat="42.91262" lon="0.1185">
        <ele>1823.76</ele>
        <time>2013-03-31T06:55:51Z</time>
      </trkpt>
      <trkpt lat="42.91262" lon="0.11847">
        <ele>1821.84</ele>
        <time>2013-03-31T06:56:04Z</time>
      </trkpt>
      <trkpt lat="42.91262" lon="0.11849">
        <ele>1823.28</ele>
        <time>2013-03-31T06:56:25Z</time>
      </trkpt>
      <trkpt lat="42.9127" lon="0.11853">
        <ele>1825.68</ele>
        <time>2013-03-31T06:56:40Z</time>
      </trkpt>
      <trkpt lat="42.91275" lon="0.11855">
        <ele>1826.16</ele>
        <time>2013-03-31T06:56:47Z</time>
      </trkpt>
      <trkpt lat="42.91284" lon="0.11858">
        <ele>1828.56</ele>
        <time>2013-03-31T06:56:59Z</time>
      </trkpt>
      <trkpt lat="42.91293" lon="0.11856">
        <ele>1829.53</ele>
        <time>2013-03-31T06:57:18Z</time>
      </trkpt>
      <trkpt lat="42.91295" lon="0.11855">
        <ele>1831.93</ele>
        <time>2013-03-31T06:57:24Z</time>
      </trkpt>
      <trkpt lat="42.91296" lon="0.11854">
        <ele>1830.49</ele>
        <time>2013-03-31T06:57:26Z</time>
      </trkpt>
      <trkpt lat="42.91298" lon="0.11852">
        <ele>1832.89</ele>
        <time>2013-03-31T06:57:31Z</time>
      </trkpt>
      <trkpt lat="42.91292" lon="0.1185">
        <ele>1832.89</ele>
        <time>2013-03-31T06:57:50Z</time>
      </trkpt>
      <trkpt lat="42.91291" lon="0.11845">
        <ele>1832.41</ele>
        <time>2013-03-31T06:57:58Z</time>
      </trkpt>
      <trkpt lat="42.91291" lon="0.11843">
        <ele>1834.81</ele>
        <time>2013-03-31T06:58:01Z</time>
      </trkpt>
      <trkpt lat="42.91292" lon="0.11836">
        <ele>1838.18</ele>
        <time>2013-03-31T06:58:17Z</time>
      </trkpt>
      <trkpt lat="42.91291" lon="0.11826">
        <ele>1842.02</ele>
        <time>2013-03-31T06:58:33Z</time>
      </trkpt>
      <trkpt lat="42.91292" lon="0.11825">
        <ele>1840.58</ele>
        <time>2013-03-31T06:58:34Z</time>
      </trkpt>
      <trkpt lat="42.91292" lon="0.11822">
        <ele>1842.02</ele>
        <time>2013-03-31T06:58:38Z</time>
      </trkpt>
      <trkpt lat="42.91292" lon="0.11818">
        <ele>1841.54</ele>
        <time>2013-03-31T06:58:42Z</time>
      </trkpt>
      <trkpt lat="42.91292" lon="0.11813">
        <ele>1844.43</ele>
        <time>2013-03-31T06:58:53Z</time>
      </trkpt>
      <trkpt lat="42.91297" lon="0.11815">
        <ele>1844.91</ele>
        <time>2013-03-31T06:59:07Z</time>
      </trkpt>
      <trkpt lat="42.91298" lon="0.11814">
        <ele>1846.35</ele>
        <time>2013-03-31T06:59:10Z</time>
      </trkpt>
      <trkpt lat="42.91303" lon="0.11814">
        <ele>1847.31</ele>
        <time>2013-03-31T06:59:20Z</time>
      </trkpt>
      <trkpt lat="42.91305" lon="0.11814">
        <ele>1846.83</ele>
        <time>2013-03-31T06:59:22Z</time>
      </trkpt>
      <trkpt lat="42.9131" lon="0.11811">
        <ele>1850.19</ele>
        <time>2013-03-31T06:59:34Z</time>
      </trkpt>
      <trkpt lat="42.91317" lon="0.11814">
        <ele>1851.64</ele>
        <time>2013-03-31T06:59:45Z</time>
      </trkpt>
      <trkpt lat="42.91319" lon="0.11814">
        <ele>1852.12</ele>
        <time>2013-03-31T06:59:50Z</time>
      </trkpt>
      <trkpt lat="42.91322" lon="0.11814">
        <ele>1853.08</ele>
        <time>2013-03-31T06:59:55Z</time>
      </trkpt>
      <trkpt lat="42.91333" lon="0.11816">
        <ele>1854.52</ele>
        <time>2013-03-31T07:00:13Z</time>
      </trkpt>
      <trkpt lat="42.91341" lon="0.11815">
        <ele>1856.92</ele>
        <time>2013-03-31T07:00:25Z</time>
      </trkpt>
      <trkpt lat="42.91352" lon="0.11816">
        <ele>1857.89</ele>
        <time>2013-03-31T07:00:40Z</time>
      </trkpt>
      <trkpt lat="42.91358" lon="0.11816">
        <ele>1859.33</ele>
        <time>2013-03-31T07:00:56Z</time>
      </trkpt>
      <trkpt lat="42.9136" lon="0.11816">
        <ele>1861.73</ele>
        <time>2013-03-31T07:00:59Z</time>
      </trkpt>
      <trkpt lat="42.91367" lon="0.11821">
        <ele>1862.21</ele>
        <time>2013-03-31T07:01:12Z</time>
      </trkpt>
      <trkpt lat="42.91372" lon="0.11819">
        <ele>1864.13</ele>
        <time>2013-03-31T07:01:25Z</time>
      </trkpt>
      <trkpt lat="42.91375" lon="0.1182">
        <ele>1865.58</ele>
        <time>2013-03-31T07:01:39Z</time>
      </trkpt>
      <trkpt lat="42.91382" lon="0.11819">
        <ele>1865.09</ele>
        <time>2013-03-31T07:01:51Z</time>
      </trkpt>
      <trkpt lat="42.91386" lon="0.11818">
        <ele>1867.5</ele>
        <time>2013-03-31T07:01:58Z</time>
      </trkpt>
      <trkpt lat="42.9139" lon="0.11816">
        <ele>1868.94</ele>
        <time>2013-03-31T07:02:12Z</time>
      </trkpt>
      <trkpt lat="42.91391" lon="0.11816">
        <ele>1869.9</ele>
        <time>2013-03-31T07:02:14Z</time>
      </trkpt>
      <trkpt lat="42.91395" lon="0.11818">
        <ele>1870.86</ele>
        <time>2013-03-31T07:02:21Z</time>
      </trkpt>
      <trkpt lat="42.91399" lon="0.11823">
        <ele>1872.3</ele>
        <time>2013-03-31T07:02:33Z</time>
      </trkpt>
      <trkpt lat="42.91399" lon="0.11823">
        <ele>1871.34</ele>
        <time>2013-03-31T07:02:35Z</time>
      </trkpt>
      <trkpt lat="42.91399" lon="0.11823">
        <ele>1871.34</ele>
        <time>2013-03-31T07:02:46Z</time>
      </trkpt>
      <trkpt lat="42.91399" lon="0.11822">
        <ele>1872.3</ele>
        <time>2013-03-31T07:02:57Z</time>
      </trkpt>
      <trkpt lat="42.91395" lon="0.1182">
        <ele>1872.3</ele>
        <time>2013-03-31T07:03:09Z</time>
      </trkpt>
      <trkpt lat="42.91398" lon="0.11819">
        <ele>1871.34</ele>
        <time>2013-03-31T07:03:18Z</time>
      </trkpt>
      <trkpt lat="42.91397" lon="0.11818">
        <ele>1871.34</ele>
        <time>2013-03-31T07:03:24Z</time>
      </trkpt>
      <trkpt lat="42.91397" lon="0.11818">
        <ele>1872.79</ele>
        <time>2013-03-31T07:03:27Z</time>
      </trkpt>
      <trkpt lat="42.91399" lon="0.11816">
        <ele>1871.34</ele>
        <time>2013-03-31T07:03:45Z</time>
      </trkpt>
      <trkpt lat="42.914" lon="0.11817">
        <ele>1872.3</ele>
        <time>2013-03-31T07:03:49Z</time>
      </trkpt>
      <trkpt lat="42.91401" lon="0.11811">
        <ele>1871.34</ele>
        <time>2013-03-31T07:04:08Z</time>
      </trkpt>
      <trkpt lat="42.91402" lon="0.11808">
        <ele>1870.38</ele>
        <time>2013-03-31T07:04:13Z</time>
      </trkpt>
      <trkpt lat="42.91397" lon="0.11809">
        <ele>1870.86</ele>
        <time>2013-03-31T07:04:29Z</time>
      </trkpt>
      <trkpt lat="42.91402" lon="0.11815">
        <ele>1872.79</ele>
        <time>2013-03-31T07:04:45Z</time>
      </trkpt>
      <trkpt lat="42.91399" lon="0.1182">
        <ele>1872.79</ele>
        <time>2013-03-31T07:05:07Z</time>
      </trkpt>
      <trkpt lat="42.91396" lon="0.11822">
        <ele>1871.34</ele>
        <time>2013-03-31T07:05:28Z</time>
      </trkpt>
      <trkpt lat="42.91398" lon="0.11821">
        <ele>1872.3</ele>
        <time>2013-03-31T07:05:34Z</time>
      </trkpt>
      <trkpt lat="42.91398" lon="0.11822">
        <ele>1871.82</ele>
        <time>2013-03-31T07:05:38Z</time>
      </trkpt>
      <trkpt lat="42.91401" lon="0.11824">
        <ele>1871.82</ele>
        <time>2013-03-31T07:05:49Z</time>
      </trkpt>
      <trkpt lat="42.91402" lon="0.11823">
        <ele>1872.79</ele>
        <time>2013-03-31T07:06:01Z</time>
      </trkpt>
      <trkpt lat="42.91403" lon="0.11822">
        <ele>1871.34</ele>
        <time>2013-03-31T07:06:10Z</time>
      </trkpt>
      <trkpt lat="42.91401" lon="0.11817">
        <ele>1871.82</ele>
        <time>2013-03-31T07:06:30Z</time>
      </trkpt>
      <trkpt lat="42.91401" lon="0.11823">
        <ele>1872.3</ele>
        <time>2013-03-31T07:06:55Z</time>
      </trkpt>
      <trkpt lat="42.91404" lon="0.1182">
        <ele>1873.75</ele>
        <time>2013-03-31T07:07:18Z</time>
      </trkpt>
      <trkpt lat="42.91404" lon="0.1182">
        <ele>1872.3</ele>
        <time>2013-03-31T07:07:20Z</time>
      </trkpt>
      <trkpt lat="42.91405" lon="0.11821">
        <ele>1873.27</ele>
        <time>2013-03-31T07:07:39Z</time>
      </trkpt>
      <trkpt lat="42.91405" lon="0.11822">
        <ele>1873.27</ele>
        <time>2013-03-31T07:07:44Z</time>
      </trkpt>
      <trkpt lat="42.91406" lon="0.11823">
        <ele>1871.82</ele>
        <time>2013-03-31T07:07:46Z</time>
      </trkpt>
      <trkpt lat="42.91404" lon="0.11822">
        <ele>1872.3</ele>
        <time>2013-03-31T07:07:50Z</time>
      </trkpt>
      <trkpt lat="42.91403" lon="0.11821">
        <ele>1873.75</ele>
        <time>2013-03-31T07:07:53Z</time>
      </trkpt>
      <trkpt lat="42.91399" lon="0.11816">
        <ele>1873.75</ele>
        <time>2013-03-31T07:08:10Z</time>
      </trkpt>
      <trkpt lat="42.91399" lon="0.11816">
        <ele>1872.3</ele>
        <time>2013-03-31T07:08:12Z</time>
      </trkpt>
      <trkpt lat="42.91403" lon="0.1182">
        <ele>1874.23</ele>
        <time>2013-03-31T07:08:38Z</time>
      </trkpt>
      <trkpt lat="42.914" lon="0.1182">
        <ele>1873.27</ele>
        <time>2013-03-31T07:08:55Z</time>
      </trkpt>
      <trkpt lat="42.91405" lon="0.11825">
        <ele>1874.23</ele>
        <time>2013-03-31T07:09:12Z</time>
      </trkpt>
      <trkpt lat="42.91407" lon="0.11828">
        <ele>1876.63</ele>
        <time>2013-03-31T07:09:16Z</time>
      </trkpt>
      <trkpt lat="42.91407" lon="0.11834">
        <ele>1877.59</ele>
        <time>2013-03-31T07:09:23Z</time>
      </trkpt>
      <trkpt lat="42.9141" lon="0.1184">
        <ele>1878.55</ele>
        <time>2013-03-31T07:09:30Z</time>
      </trkpt>
      <trkpt lat="42.91412" lon="0.11844">
        <ele>1880</ele>
        <time>2013-03-31T07:09:37Z</time>
      </trkpt>
      <trkpt lat="42.91414" lon="0.11849">
        <ele>1879.51</ele>
        <time>2013-03-31T07:09:46Z</time>
      </trkpt>
      <trkpt lat="42.91418" lon="0.11859">
        <ele>1881.92</ele>
        <time>2013-03-31T07:09:56Z</time>
      </trkpt>
      <trkpt lat="42.91421" lon="0.1187">
        <ele>1884.32</ele>
        <time>2013-03-31T07:10:10Z</time>
      </trkpt>
      <trkpt lat="42.91429" lon="0.11868">
        <ele>1885.76</ele>
        <time>2013-03-31T07:10:26Z</time>
      </trkpt>
      <trkpt lat="42.91429" lon="0.11865">
        <ele>1887.21</ele>
        <time>2013-03-31T07:10:30Z</time>
      </trkpt>
      <trkpt lat="42.91431" lon="0.1186">
        <ele>1888.65</ele>
        <time>2013-03-31T07:10:41Z</time>
      </trkpt>
      <trkpt lat="42.91435" lon="0.11844">
        <ele>1891.05</ele>
        <time>2013-03-31T07:11:01Z</time>
      </trkpt>
      <trkpt lat="42.91436" lon="0.11837">
        <ele>1893.45</ele>
        <time>2013-03-31T07:11:18Z</time>
      </trkpt>
      <trkpt lat="42.91446" lon="0.11835">
        <ele>1896.34</ele>
        <time>2013-03-31T07:11:36Z</time>
      </trkpt>
      <trkpt lat="42.91451" lon="0.11842">
        <ele>1897.78</ele>
        <time>2013-03-31T07:11:45Z</time>
      </trkpt>
      <trkpt lat="42.91462" lon="0.11849">
        <ele>1898.74</ele>
        <time>2013-03-31T07:12:02Z</time>
      </trkpt>
      <trkpt lat="42.91467" lon="0.11854">
        <ele>1902.59</ele>
        <time>2013-03-31T07:12:14Z</time>
      </trkpt>
      <trkpt lat="42.91477" lon="0.11854">
        <ele>1903.07</ele>
        <time>2013-03-31T07:12:30Z</time>
      </trkpt>
      <trkpt lat="42.91482" lon="0.11846">
        <ele>1906.43</ele>
        <time>2013-03-31T07:12:42Z</time>
      </trkpt>
      <trkpt lat="42.91482" lon="0.11837">
        <ele>1909.32</ele>
        <time>2013-03-31T07:12:57Z</time>
      </trkpt>
      <trkpt lat="42.91483" lon="0.1183">
        <ele>1911.24</ele>
        <time>2013-03-31T07:13:15Z</time>
      </trkpt>
      <trkpt lat="42.91489" lon="0.11841">
        <ele>1913.64</ele>
        <time>2013-03-31T07:13:30Z</time>
      </trkpt>
      <trkpt lat="42.91495" lon="0.11853">
        <ele>1915.08</ele>
        <time>2013-03-31T07:13:47Z</time>
      </trkpt>
      <trkpt lat="42.91503" lon="0.11853">
        <ele>1917.97</ele>
        <time>2013-03-31T07:14:01Z</time>
      </trkpt>
      <trkpt lat="42.91511" lon="0.1185">
        <ele>1919.89</ele>
        <time>2013-03-31T07:14:17Z</time>
      </trkpt>
      <trkpt lat="42.91519" lon="0.11848">
        <ele>1923.25</ele>
        <time>2013-03-31T07:14:30Z</time>
      </trkpt>
      <trkpt lat="42.91529" lon="0.11847">
        <ele>1923.74</ele>
        <time>2013-03-31T07:14:44Z</time>
      </trkpt>
      <trkpt lat="42.91532" lon="0.11849">
        <ele>1925.18</ele>
        <time>2013-03-31T07:14:49Z</time>
      </trkpt>
      <trkpt lat="42.91543" lon="0.1185">
        <ele>1926.62</ele>
        <time>2013-03-31T07:15:08Z</time>
      </trkpt>
      <trkpt lat="42.91552" lon="0.11853">
        <ele>1927.58</ele>
        <time>2013-03-31T07:15:21Z</time>
      </trkpt>
      <trkpt lat="42.91563" lon="0.11857">
        <ele>1930.46</ele>
        <time>2013-03-31T07:15:38Z</time>
      </trkpt>
      <trkpt lat="42.91568" lon="0.11855">
        <ele>1932.39</ele>
        <time>2013-03-31T07:15:45Z</time>
      </trkpt>
      <trkpt lat="42.91573" lon="0.11845">
        <ele>1933.35</ele>
        <time>2013-03-31T07:16:00Z</time>
      </trkpt>
      <trkpt lat="42.91574" lon="0.1183">
        <ele>1934.79</ele>
        <time>2013-03-31T07:16:16Z</time>
      </trkpt>
      <trkpt lat="42.91573" lon="0.11827">
        <ele>1936.23</ele>
        <time>2013-03-31T07:16:27Z</time>
      </trkpt>
      <trkpt lat="42.91575" lon="0.11815">
        <ele>1937.67</ele>
        <time>2013-03-31T07:16:43Z</time>
      </trkpt>
      <trkpt lat="42.91582" lon="0.11804">
        <ele>1941.04</ele>
        <time>2013-03-31T07:17:02Z</time>
      </trkpt>
      <trkpt lat="42.91584" lon="0.11805">
        <ele>1942.96</ele>
        <time>2013-03-31T07:17:16Z</time>
      </trkpt>
      <trkpt lat="42.91591" lon="0.11813">
        <ele>1944.4</ele>
        <time>2013-03-31T07:17:30Z</time>
      </trkpt>
      <trkpt lat="42.91598" lon="0.11812">
        <ele>1946.33</ele>
        <time>2013-03-31T07:17:44Z</time>
      </trkpt>
      <trkpt lat="42.91601" lon="0.11823">
        <ele>1948.25</ele>
        <time>2013-03-31T07:17:59Z</time>
      </trkpt>
      <trkpt lat="42.91603" lon="0.11822">
        <ele>1949.21</ele>
        <time>2013-03-31T07:18:13Z</time>
      </trkpt>
      <trkpt lat="42.91608" lon="0.11815">
        <ele>1952.57</ele>
        <time>2013-03-31T07:18:27Z</time>
      </trkpt>
      <trkpt lat="42.91612" lon="0.11801">
        <ele>1953.54</ele>
        <time>2013-03-31T07:18:43Z</time>
      </trkpt>
      <trkpt lat="42.91617" lon="0.11789">
        <ele>1956.42</ele>
        <time>2013-03-31T07:19:00Z</time>
      </trkpt>
      <trkpt lat="42.9162" lon="0.11791">
        <ele>1958.82</ele>
        <time>2013-03-31T07:19:15Z</time>
      </trkpt>
      <trkpt lat="42.91622" lon="0.11801">
        <ele>1961.23</ele>
        <time>2013-03-31T07:19:29Z</time>
      </trkpt>
      <trkpt lat="42.91631" lon="0.11798">
        <ele>1963.15</ele>
        <time>2013-03-31T07:19:46Z</time>
      </trkpt>
      <trkpt lat="42.91634" lon="0.11795">
        <ele>1965.55</ele>
        <time>2013-03-31T07:20:03Z</time>
      </trkpt>
      <trkpt lat="42.91638" lon="0.11792">
        <ele>1966.99</ele>
        <time>2013-03-31T07:20:21Z</time>
      </trkpt>
      <trkpt lat="42.91648" lon="0.11792">
        <ele>1968.92</ele>
        <time>2013-03-31T07:20:39Z</time>
      </trkpt>
      <trkpt lat="42.91657" lon="0.11787">
        <ele>1969.4</ele>
        <time>2013-03-31T07:20:57Z</time>
      </trkpt>
      <trkpt lat="42.9166" lon="0.11795">
        <ele>1970.36</ele>
        <time>2013-03-31T07:21:11Z</time>
      </trkpt>
      <trkpt lat="42.9167" lon="0.11802">
        <ele>1972.28</ele>
        <time>2013-03-31T07:21:26Z</time>
      </trkpt>
      <trkpt lat="42.91677" lon="0.11808">
        <ele>1973.72</ele>
        <time>2013-03-31T07:21:42Z</time>
      </trkpt>
      <trkpt lat="42.91683" lon="0.11819">
        <ele>1976.13</ele>
        <time>2013-03-31T07:22:00Z</time>
      </trkpt>
      <trkpt lat="42.91689" lon="0.11832">
        <ele>1978.05</ele>
        <time>2013-03-31T07:22:16Z</time>
      </trkpt>
      <trkpt lat="42.91691" lon="0.11845">
        <ele>1980.93</ele>
        <time>2013-03-31T07:22:32Z</time>
      </trkpt>
      <trkpt lat="42.91694" lon="0.11855">
        <ele>1982.86</ele>
        <time>2013-03-31T07:22:48Z</time>
      </trkpt>
      <trkpt lat="42.91699" lon="0.11861">
        <ele>1983.82</ele>
        <time>2013-03-31T07:22:59Z</time>
      </trkpt>
      <trkpt lat="42.91703" lon="0.11872">
        <ele>1985.74</ele>
        <time>2013-03-31T07:23:13Z</time>
      </trkpt>
      <trkpt lat="42.91711" lon="0.11879">
        <ele>1988.14</ele>
        <time>2013-03-31T07:23:30Z</time>
      </trkpt>
      <trkpt lat="42.91718" lon="0.11874">
        <ele>1990.55</ele>
        <time>2013-03-31T07:23:46Z</time>
      </trkpt>
      <trkpt lat="42.91719" lon="0.1186">
        <ele>1992.95</ele>
        <time>2013-03-31T07:24:03Z</time>
      </trkpt>
      <trkpt lat="42.91723" lon="0.11858">
        <ele>1995.35</ele>
        <time>2013-03-31T07:24:19Z</time>
      </trkpt>
      <trkpt lat="42.91733" lon="0.1186">
        <ele>1997.28</ele>
        <time>2013-03-31T07:24:34Z</time>
      </trkpt>
      <trkpt lat="42.91741" lon="0.11864">
        <ele>1999.68</ele>
        <time>2013-03-31T07:24:48Z</time>
      </trkpt>
      <trkpt lat="42.9175" lon="0.11862">
        <ele>2001.12</ele>
        <time>2013-03-31T07:25:05Z</time>
      </trkpt>
      <trkpt lat="42.91758" lon="0.11859">
        <ele>2002.08</ele>
        <time>2013-03-31T07:25:21Z</time>
      </trkpt>
      <trkpt lat="42.91767" lon="0.11852">
        <ele>2003.52</ele>
        <time>2013-03-31T07:25:39Z</time>
      </trkpt>
      <trkpt lat="42.91777" lon="0.11852">
        <ele>2004.49</ele>
        <time>2013-03-31T07:25:53Z</time>
      </trkpt>
      <trkpt lat="42.91785" lon="0.11846">
        <ele>2007.37</ele>
        <time>2013-03-31T07:26:08Z</time>
      </trkpt>
      <trkpt lat="42.91791" lon="0.11835">
        <ele>2009.29</ele>
        <time>2013-03-31T07:26:24Z</time>
      </trkpt>
      <trkpt lat="42.91793" lon="0.11821">
        <ele>2011.22</ele>
        <time>2013-03-31T07:26:40Z</time>
      </trkpt>
      <trkpt lat="42.91792" lon="0.11807">
        <ele>2013.14</ele>
        <time>2013-03-31T07:26:57Z</time>
      </trkpt>
      <trkpt lat="42.91795" lon="0.11807">
        <ele>2015.06</ele>
        <time>2013-03-31T07:27:11Z</time>
      </trkpt>
      <trkpt lat="42.91806" lon="0.11809">
        <ele>2016.98</ele>
        <time>2013-03-31T07:27:26Z</time>
      </trkpt>
      <trkpt lat="42.9181" lon="0.11812">
        <ele>2018.43</ele>
        <time>2013-03-31T07:27:36Z</time>
      </trkpt>
      <trkpt lat="42.91816" lon="0.11819">
        <ele>2020.35</ele>
        <time>2013-03-31T07:27:50Z</time>
      </trkpt>
      <trkpt lat="42.9182" lon="0.11818">
        <ele>2022.75</ele>
        <time>2013-03-31T07:28:05Z</time>
      </trkpt>
      <trkpt lat="42.91821" lon="0.11815">
        <ele>2023.23</ele>
        <time>2013-03-31T07:28:06Z</time>
      </trkpt>
      <trkpt lat="42.91821" lon="0.11817">
        <ele>2022.75</ele>
        <time>2013-03-31T07:28:22Z</time>
      </trkpt>
      <trkpt lat="42.91821" lon="0.11812">
        <ele>2023.71</ele>
        <time>2013-03-31T07:28:40Z</time>
      </trkpt>
      <trkpt lat="42.9182" lon="0.11799">
        <ele>2025.15</ele>
        <time>2013-03-31T07:28:56Z</time>
      </trkpt>
      <trkpt lat="42.91818" lon="0.11786">
        <ele>2028.52</ele>
        <time>2013-03-31T07:29:16Z</time>
      </trkpt>
      <trkpt lat="42.91821" lon="0.11775">
        <ele>2029.96</ele>
        <time>2013-03-31T07:29:32Z</time>
      </trkpt>
      <trkpt lat="42.91828" lon="0.11762">
        <ele>2032.36</ele>
        <time>2013-03-31T07:29:52Z</time>
      </trkpt>
      <trkpt lat="42.91833" lon="0.11755">
        <ele>2034.77</ele>
        <time>2013-03-31T07:30:10Z</time>
      </trkpt>
      <trkpt lat="42.91843" lon="0.11747">
        <ele>2037.17</ele>
        <time>2013-03-31T07:30:28Z</time>
      </trkpt>
      <trkpt lat="42.91843" lon="0.11746">
        <ele>2038.13</ele>
        <time>2013-03-31T07:30:46Z</time>
      </trkpt>
      <trkpt lat="42.91842" lon="0.11752">
        <ele>2038.61</ele>
        <time>2013-03-31T07:31:04Z</time>
      </trkpt>
      <trkpt lat="42.91849" lon="0.11739">
        <ele>2040.05</ele>
        <time>2013-03-31T07:31:26Z</time>
      </trkpt>
      <trkpt lat="42.91858" lon="0.11733">
        <ele>2042.46</ele>
        <time>2013-03-31T07:31:46Z</time>
      </trkpt>
      <trkpt lat="42.91857" lon="0.11745">
        <ele>2044.38</ele>
        <time>2013-03-31T07:32:00Z</time>
      </trkpt>
      <trkpt lat="42.91863" lon="0.11753">
        <ele>2045.34</ele>
        <time>2013-03-31T07:32:12Z</time>
      </trkpt>
      <trkpt lat="42.91876" lon="0.11757">
        <ele>2046.78</ele>
        <time>2013-03-31T07:32:30Z</time>
      </trkpt>
      <trkpt lat="42.91883" lon="0.11755">
        <ele>2048.71</ele>
        <time>2013-03-31T07:32:44Z</time>
      </trkpt>
      <trkpt lat="42.91885" lon="0.11745">
        <ele>2051.59</ele>
        <time>2013-03-31T07:33:00Z</time>
      </trkpt>
      <trkpt lat="42.91891" lon="0.11737">
        <ele>2053.03</ele>
        <time>2013-03-31T07:33:18Z</time>
      </trkpt>
      <trkpt lat="42.91893" lon="0.11737">
        <ele>2054.47</ele>
        <time>2013-03-31T07:33:23Z</time>
      </trkpt>
      <trkpt lat="42.91901" lon="0.11739">
        <ele>2055.92</ele>
        <time>2013-03-31T07:33:38Z</time>
      </trkpt>
      <trkpt lat="42.91909" lon="0.11738">
        <ele>2057.36</ele>
        <time>2013-03-31T07:33:53Z</time>
      </trkpt>
      <trkpt lat="42.91917" lon="0.11735">
        <ele>2058.8</ele>
        <time>2013-03-31T07:34:08Z</time>
      </trkpt>
      <trkpt lat="42.91921" lon="0.11737">
        <ele>2059.28</ele>
        <time>2013-03-31T07:34:25Z</time>
      </trkpt>
      <trkpt lat="42.91922" lon="0.11738">
        <ele>2059.28</ele>
        <time>2013-03-31T07:34:48Z</time>
      </trkpt>
      <trkpt lat="42.91922" lon="0.11737">
        <ele>2058.8</ele>
        <time>2013-03-31T07:35:14Z</time>
      </trkpt>
      <trkpt lat="42.91922" lon="0.11738">
        <ele>2058.8</ele>
        <time>2013-03-31T07:35:39Z</time>
      </trkpt>
      <trkpt lat="42.91921" lon="0.11738">
        <ele>2059.28</ele>
        <time>2013-03-31T07:36:10Z</time>
      </trkpt>
      <trkpt lat="42.91923" lon="0.11735">
        <ele>2058.8</ele>
        <time>2013-03-31T07:36:35Z</time>
      </trkpt>
      <trkpt lat="42.91922" lon="0.11737">
        <ele>2058.8</ele>
        <time>2013-03-31T07:36:55Z</time>
      </trkpt>
      <trkpt lat="42.91923" lon="0.11735">
        <ele>2058.8</ele>
        <time>2013-03-31T07:37:14Z</time>
      </trkpt>
      <trkpt lat="42.91923" lon="0.11733">
        <ele>2058.8</ele>
        <time>2013-03-31T07:37:36Z</time>
      </trkpt>
      <trkpt lat="42.91921" lon="0.11735">
        <ele>2057.36</ele>
        <time>2013-03-31T07:38:10Z</time>
      </trkpt>
      <trkpt lat="42.91922" lon="0.11735">
        <ele>2057.36</ele>
        <time>2013-03-31T07:38:44Z</time>
      </trkpt>
      <trkpt lat="42.91921" lon="0.11737">
        <ele>2056.88</ele>
        <time>2013-03-31T07:39:21Z</time>
      </trkpt>
      <trkpt lat="42.91921" lon="0.11737">
        <ele>2056.88</ele>
        <time>2013-03-31T07:39:58Z</time>
      </trkpt>
      <trkpt lat="42.91923" lon="0.11731">
        <ele>2056.88</ele>
        <time>2013-03-31T07:40:29Z</time>
      </trkpt>
      <trkpt lat="42.91923" lon="0.11736">
        <ele>2057.36</ele>
        <time>2013-03-31T07:41:00Z</time>
      </trkpt>
      <trkpt lat="42.91921" lon="0.11737">
        <ele>2057.36</ele>
        <time>2013-03-31T07:41:29Z</time>
      </trkpt>
      <trkpt lat="42.91922" lon="0.11734">
        <ele>2056.4</ele>
        <time>2013-03-31T07:41:59Z</time>
      </trkpt>
      <trkpt lat="42.91922" lon="0.11734">
        <ele>2056.88</ele>
        <time>2013-03-31T07:42:27Z</time>
      </trkpt>
      <trkpt lat="42.91921" lon="0.11739">
        <ele>2057.84</ele>
        <time>2013-03-31T07:42:55Z</time>
      </trkpt>
      <trkpt lat="42.91922" lon="0.11737">
        <ele>2057.84</ele>
        <time>2013-03-31T07:43:19Z</time>
      </trkpt>
      <trkpt lat="42.91921" lon="0.11737">
        <ele>2057.36</ele>
        <time>2013-03-31T07:43:37Z</time>
      </trkpt>
      <trkpt lat="42.91923" lon="0.11738">
        <ele>2057.84</ele>
        <time>2013-03-31T07:43:59Z</time>
      </trkpt>
      <trkpt lat="42.9193" lon="0.11741">
        <ele>2059.76</ele>
        <time>2013-03-31T07:44:12Z</time>
      </trkpt>
      <trkpt lat="42.91938" lon="0.11743">
        <ele>2062.17</ele>
        <time>2013-03-31T07:44:25Z</time>
      </trkpt>
      <trkpt lat="42.91944" lon="0.11752">
        <ele>2063.61</ele>
        <time>2013-03-31T07:44:40Z</time>
      </trkpt>
      <trkpt lat="42.91951" lon="0.11763">
        <ele>2063.13</ele>
        <time>2013-03-31T07:44:54Z</time>
      </trkpt>
      <trkpt lat="42.91959" lon="0.11768">
        <ele>2063.61</ele>
        <time>2013-03-31T07:45:08Z</time>
      </trkpt>
      <trkpt lat="42.91971" lon="0.11765">
        <ele>2066.01</ele>
        <time>2013-03-31T07:45:26Z</time>
      </trkpt>
      <trkpt lat="42.91984" lon="0.11756">
        <ele>2067.93</ele>
        <time>2013-03-31T07:45:41Z</time>
      </trkpt>
      <trkpt lat="42.91992" lon="0.11762">
        <ele>2069.38</ele>
        <time>2013-03-31T07:45:54Z</time>
      </trkpt>
      <trkpt lat="42.91998" lon="0.11769">
        <ele>2069.86</ele>
        <time>2013-03-31T07:46:09Z</time>
      </trkpt>
      <trkpt lat="42.92005" lon="0.11775">
        <ele>2070.82</ele>
        <time>2013-03-31T07:46:27Z</time>
      </trkpt>
      <trkpt lat="42.92011" lon="0.11779">
        <ele>2071.3</ele>
        <time>2013-03-31T07:46:40Z</time>
      </trkpt>
      <trkpt lat="42.92018" lon="0.11774">
        <ele>2074.18</ele>
        <time>2013-03-31T07:46:54Z</time>
      </trkpt>
      <trkpt lat="42.92024" lon="0.1177">
        <ele>2075.62</ele>
        <time>2013-03-31T07:47:11Z</time>
      </trkpt>
      <trkpt lat="42.92025" lon="0.11781">
        <ele>2076.59</ele>
        <time>2013-03-31T07:47:24Z</time>
      </trkpt>
      <trkpt lat="42.92028" lon="0.11789">
        <ele>2078.99</ele>
        <time>2013-03-31T07:47:35Z</time>
      </trkpt>
      <trkpt lat="42.92034" lon="0.11796">
        <ele>2079.95</ele>
        <time>2013-03-31T07:47:47Z</time>
      </trkpt>
      <trkpt lat="42.92033" lon="0.11808">
        <ele>2080.43</ele>
        <time>2013-03-31T07:48:00Z</time>
      </trkpt>
      <trkpt lat="42.92034" lon="0.11817">
        <ele>2082.83</ele>
        <time>2013-03-31T07:48:14Z</time>
      </trkpt>
      <trkpt lat="42.92044" lon="0.11814">
        <ele>2085.24</ele>
        <time>2013-03-31T07:48:28Z</time>
      </trkpt>
      <trkpt lat="42.92052" lon="0.11819">
        <ele>2087.64</ele>
        <time>2013-03-31T07:48:47Z</time>
      </trkpt>
      <trkpt lat="42.9206" lon="0.11823">
        <ele>2090.04</ele>
        <time>2013-03-31T07:49:03Z</time>
      </trkpt>
      <trkpt lat="42.92071" lon="0.11824">
        <ele>2092.45</ele>
        <time>2013-03-31T07:49:21Z</time>
      </trkpt>
      <trkpt lat="42.9208" lon="0.11823">
        <ele>2094.37</ele>
        <time>2013-03-31T07:49:38Z</time>
      </trkpt>
      <trkpt lat="42.92088" lon="0.11824">
        <ele>2095.81</ele>
        <time>2013-03-31T07:49:53Z</time>
      </trkpt>
      <trkpt lat="42.92095" lon="0.11834">
        <ele>2097.73</ele>
        <time>2013-03-31T07:50:15Z</time>
      </trkpt>
      <trkpt lat="42.921" lon="0.11844">
        <ele>2097.73</ele>
        <time>2013-03-31T07:50:27Z</time>
      </trkpt>
      <trkpt lat="42.9211" lon="0.11852">
        <ele>2100.14</ele>
        <time>2013-03-31T07:50:46Z</time>
      </trkpt>
      <trkpt lat="42.92118" lon="0.1186">
        <ele>2101.1</ele>
        <time>2013-03-31T07:51:02Z</time>
      </trkpt>
      <trkpt lat="42.92125" lon="0.11866">
        <ele>2103.5</ele>
        <time>2013-03-31T07:51:18Z</time>
      </trkpt>
      <trkpt lat="42.92135" lon="0.11871">
        <ele>2105.42</ele>
        <time>2013-03-31T07:51:36Z</time>
      </trkpt>
      <trkpt lat="42.92142" lon="0.11883">
        <ele>2106.87</ele>
        <time>2013-03-31T07:51:53Z</time>
      </trkpt>
      <trkpt lat="42.9215" lon="0.11891">
        <ele>2108.31</ele>
        <time>2013-03-31T07:52:06Z</time>
      </trkpt>
      <trkpt lat="42.92157" lon="0.11896">
        <ele>2110.71</ele>
        <time>2013-03-31T07:52:20Z</time>
      </trkpt>
      <trkpt lat="42.92154" lon="0.11902">
        <ele>2112.15</ele>
        <time>2013-03-31T07:52:35Z</time>
      </trkpt>
      <trkpt lat="42.92159" lon="0.1191">
        <ele>2115.52</ele>
        <time>2013-03-31T07:52:52Z</time>
      </trkpt>
      <trkpt lat="42.92169" lon="0.11913">
        <ele>2116.96</ele>
        <time>2013-03-31T07:53:07Z</time>
      </trkpt>
      <trkpt lat="42.92176" lon="0.11914">
        <ele>2118.88</ele>
        <time>2013-03-31T07:53:21Z</time>
      </trkpt>
      <trkpt lat="42.92183" lon="0.11922">
        <ele>2120.32</ele>
        <time>2013-03-31T07:53:39Z</time>
      </trkpt>
      <trkpt lat="42.92181" lon="0.11928">
        <ele>2121.29</ele>
        <time>2013-03-31T07:53:53Z</time>
      </trkpt>
      <trkpt lat="42.92176" lon="0.11936">
        <ele>2124.65</ele>
        <time>2013-03-31T07:54:09Z</time>
      </trkpt>
      <trkpt lat="42.92184" lon="0.1195">
        <ele>2126.57</ele>
        <time>2013-03-31T07:54:26Z</time>
      </trkpt>
      <trkpt lat="42.92191" lon="0.11961">
        <ele>2128.5</ele>
        <time>2013-03-31T07:54:42Z</time>
      </trkpt>
      <trkpt lat="42.92194" lon="0.1197">
        <ele>2128.98</ele>
        <time>2013-03-31T07:54:54Z</time>
      </trkpt>
      <trkpt lat="42.92198" lon="0.11979">
        <ele>2131.38</ele>
        <time>2013-03-31T07:55:10Z</time>
      </trkpt>
      <trkpt lat="42.92196" lon="0.11984">
        <ele>2132.34</ele>
        <time>2013-03-31T07:55:17Z</time>
      </trkpt>
      <trkpt lat="42.92196" lon="0.11999">
        <ele>2133.78</ele>
        <time>2013-03-31T07:55:32Z</time>
      </trkpt>
      <trkpt lat="42.92196" lon="0.12006">
        <ele>2135.23</ele>
        <time>2013-03-31T07:55:40Z</time>
      </trkpt>
      <trkpt lat="42.92198" lon="0.12019">
        <ele>2137.63</ele>
        <time>2013-03-31T07:55:57Z</time>
      </trkpt>
      <trkpt lat="42.92202" lon="0.1203">
        <ele>2139.07</ele>
        <time>2013-03-31T07:56:11Z</time>
      </trkpt>
      <trkpt lat="42.92206" lon="0.12037">
        <ele>2140.99</ele>
        <time>2013-03-31T07:56:24Z</time>
      </trkpt>
      <trkpt lat="42.92213" lon="0.1204">
        <ele>2142.44</ele>
        <time>2013-03-31T07:56:38Z</time>
      </trkpt>
      <trkpt lat="42.92219" lon="0.1204">
        <ele>2142.92</ele>
        <time>2013-03-31T07:56:52Z</time>
      </trkpt>
      <trkpt lat="42.92226" lon="0.12037">
        <ele>2143.88</ele>
        <time>2013-03-31T07:57:06Z</time>
      </trkpt>
      <trkpt lat="42.92235" lon="0.12035">
        <ele>2145.32</ele>
        <time>2013-03-31T07:57:22Z</time>
      </trkpt>
      <trkpt lat="42.92243" lon="0.12039">
        <ele>2147.72</ele>
        <time>2013-03-31T07:57:39Z</time>
      </trkpt>
      <trkpt lat="42.9225" lon="0.12048">
        <ele>2149.65</ele>
        <time>2013-03-31T07:57:54Z</time>
      </trkpt>
      <trkpt lat="42.92258" lon="0.12051">
        <ele>2151.57</ele>
        <time>2013-03-31T07:58:08Z</time>
      </trkpt>
      <trkpt lat="42.92264" lon="0.12051">
        <ele>2153.49</ele>
        <time>2013-03-31T07:58:23Z</time>
      </trkpt>
      <trkpt lat="42.92268" lon="0.1206">
        <ele>2154.45</ele>
        <time>2013-03-31T07:58:34Z</time>
      </trkpt>
      <trkpt lat="42.92269" lon="0.12068">
        <ele>2156.37</ele>
        <time>2013-03-31T07:58:48Z</time>
      </trkpt>
      <trkpt lat="42.92267" lon="0.12071">
        <ele>2157.34</ele>
        <time>2013-03-31T07:59:00Z</time>
      </trkpt>
      <trkpt lat="42.92277" lon="0.12067">
        <ele>2159.26</ele>
        <time>2013-03-31T07:59:15Z</time>
      </trkpt>
      <trkpt lat="42.92282" lon="0.12061">
        <ele>2160.22</ele>
        <time>2013-03-31T07:59:27Z</time>
      </trkpt>
      <trkpt lat="42.92288" lon="0.12054">
        <ele>2162.14</ele>
        <time>2013-03-31T07:59:43Z</time>
      </trkpt>
      <trkpt lat="42.92294" lon="0.12045">
        <ele>2163.58</ele>
        <time>2013-03-31T07:59:57Z</time>
      </trkpt>
      <trkpt lat="42.92303" lon="0.12047">
        <ele>2165.03</ele>
        <time>2013-03-31T08:00:14Z</time>
      </trkpt>
      <trkpt lat="42.92301" lon="0.12057">
        <ele>2166.95</ele>
        <time>2013-03-31T08:00:30Z</time>
      </trkpt>
      <trkpt lat="42.92304" lon="0.12062">
        <ele>2168.87</ele>
        <time>2013-03-31T08:00:42Z</time>
      </trkpt>
      <trkpt lat="42.9231" lon="0.12059">
        <ele>2169.83</ele>
        <time>2013-03-31T08:00:55Z</time>
      </trkpt>
      <trkpt lat="42.92318" lon="0.12055">
        <ele>2171.76</ele>
        <time>2013-03-31T08:01:10Z</time>
      </trkpt>
      <trkpt lat="42.92326" lon="0.12052">
        <ele>2172.72</ele>
        <time>2013-03-31T08:01:24Z</time>
      </trkpt>
      <trkpt lat="42.92333" lon="0.12043">
        <ele>2174.64</ele>
        <time>2013-03-31T08:01:41Z</time>
      </trkpt>
      <trkpt lat="42.92337" lon="0.12045">
        <ele>2177.04</ele>
        <time>2013-03-31T08:01:56Z</time>
      </trkpt>
      <trkpt lat="42.92341" lon="0.12055">
        <ele>2178</ele>
        <time>2013-03-31T08:02:09Z</time>
      </trkpt>
      <trkpt lat="42.9235" lon="0.12055">
        <ele>2180.41</ele>
        <time>2013-03-31T08:02:24Z</time>
      </trkpt>
      <trkpt lat="42.92356" lon="0.12043">
        <ele>2182.81</ele>
        <time>2013-03-31T08:02:41Z</time>
      </trkpt>
      <trkpt lat="42.92359" lon="0.12033">
        <ele>2184.73</ele>
        <time>2013-03-31T08:02:56Z</time>
      </trkpt>
      <trkpt lat="42.92365" lon="0.12023">
        <ele>2186.18</ele>
        <time>2013-03-31T08:03:14Z</time>
      </trkpt>
      <trkpt lat="42.92373" lon="0.12032">
        <ele>2187.14</ele>
        <time>2013-03-31T08:03:33Z</time>
      </trkpt>
      <trkpt lat="42.92381" lon="0.12026">
        <ele>2187.62</ele>
        <time>2013-03-31T08:03:47Z</time>
      </trkpt>
      <trkpt lat="42.92384" lon="0.12023">
        <ele>2187.62</ele>
        <time>2013-03-31T08:04:03Z</time>
      </trkpt>
      <trkpt lat="42.92383" lon="0.12021">
        <ele>2188.1</ele>
        <time>2013-03-31T08:04:22Z</time>
      </trkpt>
      <trkpt lat="42.92384" lon="0.12025">
        <ele>2187.62</ele>
        <time>2013-03-31T08:04:44Z</time>
      </trkpt>
      <trkpt lat="42.92385" lon="0.12025">
        <ele>2188.1</ele>
        <time>2013-03-31T08:05:03Z</time>
      </trkpt>
      <trkpt lat="42.92383" lon="0.12023">
        <ele>2187.62</ele>
        <time>2013-03-31T08:05:21Z</time>
      </trkpt>
      <trkpt lat="42.92382" lon="0.12024">
        <ele>2188.1</ele>
        <time>2013-03-31T08:05:47Z</time>
      </trkpt>
      <trkpt lat="42.92382" lon="0.12024">
        <ele>2188.1</ele>
        <time>2013-03-31T08:06:12Z</time>
      </trkpt>
      <trkpt lat="42.92382" lon="0.12025">
        <ele>2187.62</ele>
        <time>2013-03-31T08:06:43Z</time>
      </trkpt>
      <trkpt lat="42.92383" lon="0.12023">
        <ele>2187.14</ele>
        <time>2013-03-31T08:07:15Z</time>
      </trkpt>
      <trkpt lat="42.92382" lon="0.12023">
        <ele>2187.62</ele>
        <time>2013-03-31T08:07:44Z</time>
      </trkpt>
      <trkpt lat="42.92382" lon="0.12025">
        <ele>2187.14</ele>
        <time>2013-03-31T08:08:06Z</time>
      </trkpt>
      <trkpt lat="42.92384" lon="0.12025">
        <ele>2187.14</ele>
        <time>2013-03-31T08:08:32Z</time>
      </trkpt>
      <trkpt lat="42.92384" lon="0.12025">
        <ele>2186.66</ele>
        <time>2013-03-31T08:08:56Z</time>
      </trkpt>
      <trkpt lat="42.92384" lon="0.12025">
        <ele>2187.14</ele>
        <time>2013-03-31T08:09:21Z</time>
      </trkpt>
      <trkpt lat="42.9239" lon="0.1202">
        <ele>2188.1</ele>
        <time>2013-03-31T08:09:36Z</time>
      </trkpt>
      <trkpt lat="42.92393" lon="0.12021">
        <ele>2189.54</ele>
        <time>2013-03-31T08:09:48Z</time>
      </trkpt>
      <trkpt lat="42.92401" lon="0.12018">
        <ele>2190.98</ele>
        <time>2013-03-31T08:10:02Z</time>
      </trkpt>
      <trkpt lat="42.92406" lon="0.12011">
        <ele>2191.94</ele>
        <time>2013-03-31T08:10:10Z</time>
      </trkpt>
      <trkpt lat="42.92409" lon="0.12">
        <ele>2191.46</ele>
        <time>2013-03-31T08:10:24Z</time>
      </trkpt>
      <trkpt lat="42.92409" lon="0.11991">
        <ele>2190.5</ele>
        <time>2013-03-31T08:10:37Z</time>
      </trkpt>
      <trkpt lat="42.92414" lon="0.11985">
        <ele>2189.54</ele>
        <time>2013-03-31T08:10:48Z</time>
      </trkpt>
      <trkpt lat="42.92423" lon="0.11984">
        <ele>2190.5</ele>
        <time>2013-03-31T08:11:01Z</time>
      </trkpt>
      <trkpt lat="42.92422" lon="0.11988">
        <ele>2190.02</ele>
        <time>2013-03-31T08:11:16Z</time>
      </trkpt>
      <trkpt lat="42.92426" lon="0.11989">
        <ele>2191.94</ele>
        <time>2013-03-31T08:11:31Z</time>
      </trkpt>
      <trkpt lat="42.92431" lon="0.1199">
        <ele>2191.94</ele>
        <time>2013-03-31T08:11:45Z</time>
      </trkpt>
      <trkpt lat="42.92437" lon="0.11993">
        <ele>2194.35</ele>
        <time>2013-03-31T08:11:59Z</time>
      </trkpt>
      <trkpt lat="42.92443" lon="0.11993">
        <ele>2196.75</ele>
        <time>2013-03-31T08:12:13Z</time>
      </trkpt>
      <trkpt lat="42.92452" lon="0.12">
        <ele>2198.19</ele>
        <time>2013-03-31T08:12:28Z</time>
      </trkpt>
      <trkpt lat="42.92464" lon="0.12009">
        <ele>2199.15</ele>
        <time>2013-03-31T08:12:42Z</time>
      </trkpt>
      <trkpt lat="42.9247" lon="0.12001">
        <ele>2200.59</ele>
        <time>2013-03-31T08:12:56Z</time>
      </trkpt>
      <trkpt lat="42.92479" lon="0.11996">
        <ele>2202.04</ele>
        <time>2013-03-31T08:13:12Z</time>
      </trkpt>
      <trkpt lat="42.92486" lon="0.11996">
        <ele>2203.96</ele>
        <time>2013-03-31T08:13:26Z</time>
      </trkpt>
      <trkpt lat="42.92493" lon="0.11992">
        <ele>2205.4</ele>
        <time>2013-03-31T08:13:41Z</time>
      </trkpt>
      <trkpt lat="42.92502" lon="0.11993">
        <ele>2206.84</ele>
        <time>2013-03-31T08:13:57Z</time>
      </trkpt>
      <trkpt lat="42.92504" lon="0.1198">
        <ele>2208.29</ele>
        <time>2013-03-31T08:14:16Z</time>
      </trkpt>
      <trkpt lat="42.92505" lon="0.11968">
        <ele>2209.25</ele>
        <time>2013-03-31T08:14:32Z</time>
      </trkpt>
      <trkpt lat="42.92503" lon="0.11965">
        <ele>2210.21</ele>
        <time>2013-03-31T08:14:50Z</time>
      </trkpt>
      <trkpt lat="42.92503" lon="0.11966">
        <ele>2209.73</ele>
        <time>2013-03-31T08:15:24Z</time>
      </trkpt>
      <trkpt lat="42.92504" lon="0.11957">
        <ele>2211.17</ele>
        <time>2013-03-31T08:15:48Z</time>
      </trkpt>
      <trkpt lat="42.92506" lon="0.11948">
        <ele>2212.13</ele>
        <time>2013-03-31T08:15:59Z</time>
      </trkpt>
      <trkpt lat="42.92507" lon="0.11947">
        <ele>2212.61</ele>
        <time>2013-03-31T08:16:16Z</time>
      </trkpt>
      <trkpt lat="42.92509" lon="0.11949">
        <ele>2213.09</ele>
        <time>2013-03-31T08:16:40Z</time>
      </trkpt>
      <trkpt lat="42.92516" lon="0.11945">
        <ele>2214.53</ele>
        <time>2013-03-31T08:16:53Z</time>
      </trkpt>
      <trkpt lat="42.92524" lon="0.11942">
        <ele>2216.46</ele>
        <time>2013-03-31T08:17:08Z</time>
      </trkpt>
      <trkpt lat="42.92531" lon="0.11939">
        <ele>2218.38</ele>
        <time>2013-03-31T08:17:21Z</time>
      </trkpt>
      <trkpt lat="42.92537" lon="0.11933">
        <ele>2219.82</ele>
        <time>2013-03-31T08:17:36Z</time>
      </trkpt>
      <trkpt lat="42.92541" lon="0.1193">
        <ele>2221.26</ele>
        <time>2013-03-31T08:17:51Z</time>
      </trkpt>
      <trkpt lat="42.92551" lon="0.11925">
        <ele>2222.22</ele>
        <time>2013-03-31T08:18:04Z</time>
      </trkpt>
      <trkpt lat="42.92559" lon="0.11921">
        <ele>2223.67</ele>
        <time>2013-03-31T08:18:18Z</time>
      </trkpt>
      <trkpt lat="42.92567" lon="0.11916">
        <ele>2225.11</ele>
        <time>2013-03-31T08:18:32Z</time>
      </trkpt>
      <trkpt lat="42.92575" lon="0.11905">
        <ele>2227.03</ele>
        <time>2013-03-31T08:18:48Z</time>
      </trkpt>
      <trkpt lat="42.92583" lon="0.11896">
        <ele>2227.99</ele>
        <time>2013-03-31T08:19:04Z</time>
      </trkpt>
      <trkpt lat="42.9259" lon="0.11889">
        <ele>2229.92</ele>
        <time>2013-03-31T08:19:18Z</time>
      </trkpt>
      <trkpt lat="42.92599" lon="0.11878">
        <ele>2231.36</ele>
        <time>2013-03-31T08:19:34Z</time>
      </trkpt>
      <trkpt lat="42.92607" lon="0.1187">
        <ele>2232.8</ele>
        <time>2013-03-31T08:19:48Z</time>
      </trkpt>
      <trkpt lat="42.92611" lon="0.11867">
        <ele>2233.76</ele>
        <time>2013-03-31T08:20:03Z</time>
      </trkpt>
      <trkpt lat="42.92608" lon="0.11864">
        <ele>2233.28</ele>
        <time>2013-03-31T08:20:26Z</time>
      </trkpt>
      <trkpt lat="42.92608" lon="0.11866">
        <ele>2232.8</ele>
        <time>2013-03-31T08:20:49Z</time>
      </trkpt>
      <trkpt lat="42.92612" lon="0.11864">
        <ele>2233.28</ele>
        <time>2013-03-31T08:21:01Z</time>
      </trkpt>
      <trkpt lat="42.92628" lon="0.11867">
        <ele>2232.8</ele>
        <time>2013-03-31T08:21:17Z</time>
      </trkpt>
      <trkpt lat="42.92644" lon="0.1187">
        <ele>2231.36</ele>
        <time>2013-03-31T08:21:31Z</time>
      </trkpt>
      <trkpt lat="42.92662" lon="0.11874">
        <ele>2229.92</ele>
        <time>2013-03-31T08:21:45Z</time>
      </trkpt>
      <trkpt lat="42.92664" lon="0.11875">
        <ele>2230.4</ele>
        <time>2013-03-31T08:21:47Z</time>
      </trkpt>
      <trkpt lat="42.92677" lon="0.11874">
        <ele>2229.92</ele>
        <time>2013-03-31T08:22:00Z</time>
      </trkpt>
      <trkpt lat="42.92688" lon="0.11872">
        <ele>2230.4</ele>
        <time>2013-03-31T08:22:14Z</time>
      </trkpt>
      <trkpt lat="42.92701" lon="0.1187">
        <ele>2232.32</ele>
        <time>2013-03-31T08:22:31Z</time>
      </trkpt>
      <trkpt lat="42.92711" lon="0.11867">
        <ele>2233.28</ele>
        <time>2013-03-31T08:22:46Z</time>
      </trkpt>
      <trkpt lat="42.92719" lon="0.11866">
        <ele>2232.8</ele>
        <time>2013-03-31T08:22:54Z</time>
      </trkpt>
      <trkpt lat="42.92731" lon="0.11865">
        <ele>2233.28</ele>
        <time>2013-03-31T08:23:10Z</time>
      </trkpt>
      <trkpt lat="42.92739" lon="0.11864">
        <ele>2233.28</ele>
        <time>2013-03-31T08:23:23Z</time>
      </trkpt>
      <trkpt lat="42.92753" lon="0.11859">
        <ele>2233.76</ele>
        <time>2013-03-31T08:23:38Z</time>
      </trkpt>
      <trkpt lat="42.9276" lon="0.11855">
        <ele>2234.72</ele>
        <time>2013-03-31T08:23:50Z</time>
      </trkpt>
      <trkpt lat="42.92766" lon="0.11863">
        <ele>2236.16</ele>
        <time>2013-03-31T08:24:05Z</time>
      </trkpt>
      <trkpt lat="42.92775" lon="0.11866">
        <ele>2237.13</ele>
        <time>2013-03-31T08:24:19Z</time>
      </trkpt>
      <trkpt lat="42.92782" lon="0.11864">
        <ele>2238.57</ele>
        <time>2013-03-31T08:24:32Z</time>
      </trkpt>
      <trkpt lat="42.928" lon="0.11856">
        <ele>2240.49</ele>
        <time>2013-03-31T08:24:45Z</time>
      </trkpt>
      <trkpt lat="42.92807" lon="0.11853">
        <ele>2241.93</ele>
        <time>2013-03-31T08:24:57Z</time>
      </trkpt>
      <trkpt lat="42.92816" lon="0.11854">
        <ele>2243.85</ele>
        <time>2013-03-31T08:25:10Z</time>
      </trkpt>
      <trkpt lat="42.92827" lon="0.1185">
        <ele>2244.82</ele>
        <time>2013-03-31T08:25:26Z</time>
      </trkpt>
      <trkpt lat="42.92838" lon="0.11848">
        <ele>2246.74</ele>
        <time>2013-03-31T08:25:41Z</time>
      </trkpt>
      <trkpt lat="42.92846" lon="0.11846">
        <ele>2250.1</ele>
        <time>2013-03-31T08:25:55Z</time>
      </trkpt>
      <trkpt lat="42.92857" lon="0.11846">
        <ele>2250.1</ele>
        <time>2013-03-31T08:26:12Z</time>
      </trkpt>
      <trkpt lat="42.92865" lon="0.11846">
        <ele>2249.62</ele>
        <time>2013-03-31T08:26:25Z</time>
      </trkpt>
      <trkpt lat="42.92876" lon="0.11845">
        <ele>2252.03</ele>
        <time>2013-03-31T08:26:38Z</time>
      </trkpt>
      <trkpt lat="42.92885" lon="0.11844">
        <ele>2252.99</ele>
        <time>2013-03-31T08:26:54Z</time>
      </trkpt>
      <trkpt lat="42.92893" lon="0.11845">
        <ele>2253.47</ele>
        <time>2013-03-31T08:27:06Z</time>
      </trkpt>
      <trkpt lat="42.929" lon="0.11845">
        <ele>2254.91</ele>
        <time>2013-03-31T08:27:18Z</time>
      </trkpt>
      <trkpt lat="42.92907" lon="0.11841">
        <ele>2255.87</ele>
        <time>2013-03-31T08:27:33Z</time>
      </trkpt>
      <trkpt lat="42.92917" lon="0.11836">
        <ele>2257.79</ele>
        <time>2013-03-31T08:27:54Z</time>
      </trkpt>
      <trkpt lat="42.92928" lon="0.11828">
        <ele>2260.2</ele>
        <time>2013-03-31T08:28:12Z</time>
      </trkpt>
      <trkpt lat="42.92938" lon="0.11825">
        <ele>2262.6</ele>
        <time>2013-03-31T08:28:29Z</time>
      </trkpt>
      <trkpt lat="42.92946" lon="0.11826">
        <ele>2263.56</ele>
        <time>2013-03-31T08:28:40Z</time>
      </trkpt>
      <trkpt lat="42.92957" lon="0.11825">
        <ele>2265.96</ele>
        <time>2013-03-31T08:28:55Z</time>
      </trkpt>
      <trkpt lat="42.92965" lon="0.11823">
        <ele>2266.93</ele>
        <time>2013-03-31T08:29:12Z</time>
      </trkpt>
      <trkpt lat="42.92971" lon="0.11824">
        <ele>2268.37</ele>
        <time>2013-03-31T08:29:27Z</time>
      </trkpt>
      <trkpt lat="42.92975" lon="0.11822">
        <ele>2270.77</ele>
        <time>2013-03-31T08:29:47Z</time>
      </trkpt>
      <trkpt lat="42.92983" lon="0.11817">
        <ele>2269.81</ele>
        <time>2013-03-31T08:29:57Z</time>
      </trkpt>
      <trkpt lat="42.92983" lon="0.11814">
        <ele>2270.77</ele>
        <time>2013-03-31T08:30:16Z</time>
      </trkpt>
      <trkpt lat="42.92983" lon="0.11813">
        <ele>2270.29</ele>
        <time>2013-03-31T08:30:36Z</time>
      </trkpt>
      <trkpt lat="42.92977" lon="0.11815">
        <ele>2270.77</ele>
        <time>2013-03-31T08:30:55Z</time>
      </trkpt>
      <trkpt lat="42.92981" lon="0.11818">
        <ele>2269.81</ele>
        <time>2013-03-31T08:31:13Z</time>
      </trkpt>
      <trkpt lat="42.92976" lon="0.11822">
        <ele>2270.77</ele>
        <time>2013-03-31T08:31:28Z</time>
      </trkpt>
      <trkpt lat="42.92976" lon="0.11824">
        <ele>2269.81</ele>
        <time>2013-03-31T08:31:41Z</time>
      </trkpt>
      <trkpt lat="42.92979" lon="0.11826">
        <ele>2271.25</ele>
        <time>2013-03-31T08:31:46Z</time>
      </trkpt>
      <trkpt lat="42.92989" lon="0.11826">
        <ele>2273.17</ele>
        <time>2013-03-31T08:32:01Z</time>
      </trkpt>
      <trkpt lat="42.93001" lon="0.11822">
        <ele>2276.54</ele>
        <time>2013-03-31T08:32:18Z</time>
      </trkpt>
      <trkpt lat="42.93011" lon="0.1182">
        <ele>2278.94</ele>
        <time>2013-03-31T08:32:37Z</time>
      </trkpt>
      <trkpt lat="42.93013" lon="0.11819">
        <ele>2279.9</ele>
        <time>2013-03-31T08:32:42Z</time>
      </trkpt>
      <trkpt lat="42.93012" lon="0.11825">
        <ele>2280.38</ele>
        <time>2013-03-31T08:32:58Z</time>
      </trkpt>
      <trkpt lat="42.9301" lon="0.11825">
        <ele>2280.87</ele>
        <time>2013-03-31T08:33:12Z</time>
      </trkpt>
      <trkpt lat="42.9301" lon="0.11833">
        <ele>2282.31</ele>
        <time>2013-03-31T08:33:26Z</time>
      </trkpt>
      <trkpt lat="42.93008" lon="0.11842">
        <ele>2284.23</ele>
        <time>2013-03-31T08:33:46Z</time>
      </trkpt>
      <trkpt lat="42.9301" lon="0.11842">
        <ele>2284.71</ele>
        <time>2013-03-31T08:34:03Z</time>
      </trkpt>
      <trkpt lat="42.93009" lon="0.11847">
        <ele>2285.19</ele>
        <time>2013-03-31T08:34:20Z</time>
      </trkpt>
      <trkpt lat="42.93005" lon="0.11864">
        <ele>2287.59</ele>
        <time>2013-03-31T08:34:39Z</time>
      </trkpt>
      <trkpt lat="42.93001" lon="0.11877">
        <ele>2290</ele>
        <time>2013-03-31T08:34:55Z</time>
      </trkpt>
      <trkpt lat="42.92996" lon="0.11882">
        <ele>2291.92</ele>
        <time>2013-03-31T08:35:08Z</time>
      </trkpt>
      <trkpt lat="42.93001" lon="0.11886">
        <ele>2292.88</ele>
        <time>2013-03-31T08:35:22Z</time>
      </trkpt>
      <trkpt lat="42.93009" lon="0.11886">
        <ele>2295.28</ele>
        <time>2013-03-31T08:35:37Z</time>
      </trkpt>
      <trkpt lat="42.93013" lon="0.11889">
        <ele>2297.21</ele>
        <time>2013-03-31T08:35:52Z</time>
      </trkpt>
      <trkpt lat="42.93025" lon="0.11889">
        <ele>2299.61</ele>
        <time>2013-03-31T08:36:09Z</time>
      </trkpt>
      <trkpt lat="42.93031" lon="0.11889">
        <ele>2302.49</ele>
        <time>2013-03-31T08:36:25Z</time>
      </trkpt>
      <trkpt lat="42.93029" lon="0.11889">
        <ele>2302.98</ele>
        <time>2013-03-31T08:36:39Z</time>
      </trkpt>
      <trkpt lat="42.93027" lon="0.11897">
        <ele>2304.42</ele>
        <time>2013-03-31T08:36:54Z</time>
      </trkpt>
      <trkpt lat="42.93026" lon="0.11904">
        <ele>2305.38</ele>
        <time>2013-03-31T08:37:06Z</time>
      </trkpt>
      <trkpt lat="42.93022" lon="0.11912">
        <ele>2307.3</ele>
        <time>2013-03-31T08:37:21Z</time>
      </trkpt>
      <trkpt lat="42.93018" lon="0.1192">
        <ele>2309.7</ele>
        <time>2013-03-31T08:37:39Z</time>
      </trkpt>
      <trkpt lat="42.9302" lon="0.11922">
        <ele>2309.7</ele>
        <time>2013-03-31T08:37:52Z</time>
      </trkpt>
      <trkpt lat="42.9303" lon="0.11924">
        <ele>2311.15</ele>
        <time>2013-03-31T08:38:07Z</time>
      </trkpt>
      <trkpt lat="42.9304" lon="0.11923">
        <ele>2313.07</ele>
        <time>2013-03-31T08:38:22Z</time>
      </trkpt>
      <trkpt lat="42.93046" lon="0.11921">
        <ele>2315.47</ele>
        <time>2013-03-31T08:38:37Z</time>
      </trkpt>
      <trkpt lat="42.93055" lon="0.11921">
        <ele>2317.88</ele>
        <time>2013-03-31T08:38:52Z</time>
      </trkpt>
      <trkpt lat="42.9305" lon="0.11921">
        <ele>2318.84</ele>
        <time>2013-03-31T08:39:06Z</time>
      </trkpt>
      <trkpt lat="42.93046" lon="0.11927">
        <ele>2319.8</ele>
        <time>2013-03-31T08:39:17Z</time>
      </trkpt>
      <trkpt lat="42.93044" lon="0.11935">
        <ele>2321.72</ele>
        <time>2013-03-31T08:39:31Z</time>
      </trkpt>
      <trkpt lat="42.93044" lon="0.11937">
        <ele>2323.16</ele>
        <time>2013-03-31T08:39:35Z</time>
      </trkpt>
      <trkpt lat="42.9304" lon="0.11947">
        <ele>2324.61</ele>
        <time>2013-03-31T08:39:50Z</time>
      </trkpt>
      <trkpt lat="42.93039" lon="0.1195">
        <ele>2325.57</ele>
        <time>2013-03-31T08:40:05Z</time>
      </trkpt>
      <trkpt lat="42.93037" lon="0.11953">
        <ele>2325.57</ele>
        <time>2013-03-31T08:40:20Z</time>
      </trkpt>
      <trkpt lat="42.93034" lon="0.11961">
        <ele>2327.01</ele>
        <time>2013-03-31T08:40:35Z</time>
      </trkpt>
      <trkpt lat="42.93031" lon="0.11967">
        <ele>2328.93</ele>
        <time>2013-03-31T08:40:47Z</time>
      </trkpt>
      <trkpt lat="42.93028" lon="0.11972">
        <ele>2330.37</ele>
        <time>2013-03-31T08:41:01Z</time>
      </trkpt>
      <trkpt lat="42.93025" lon="0.11977">
        <ele>2332.3</ele>
        <time>2013-03-31T08:41:12Z</time>
      </trkpt>
      <trkpt lat="42.93021" lon="0.11985">
        <ele>2333.74</ele>
        <time>2013-03-31T08:41:28Z</time>
      </trkpt>
      <trkpt lat="42.93017" lon="0.11988">
        <ele>2334.7</ele>
        <time>2013-03-31T08:41:40Z</time>
      </trkpt>
      <trkpt lat="42.93013" lon="0.11993">
        <ele>2336.14</ele>
        <time>2013-03-31T08:41:53Z</time>
      </trkpt>
      <trkpt lat="42.93009" lon="0.12">
        <ele>2337.58</ele>
        <time>2013-03-31T08:42:08Z</time>
      </trkpt>
      <trkpt lat="42.93004" lon="0.12003">
        <ele>2338.54</ele>
        <time>2013-03-31T08:42:25Z</time>
      </trkpt>
      <trkpt lat="42.92999" lon="0.12011">
        <ele>2340.95</ele>
        <time>2013-03-31T08:42:42Z</time>
      </trkpt>
      <trkpt lat="42.92994" lon="0.12016">
        <ele>2342.39</ele>
        <time>2013-03-31T08:42:57Z</time>
      </trkpt>
      <trkpt lat="42.92988" lon="0.12021">
        <ele>2345.75</ele>
        <time>2013-03-31T08:43:10Z</time>
      </trkpt>
      <trkpt lat="42.92984" lon="0.12025">
        <ele>2347.2</ele>
        <time>2013-03-31T08:43:23Z</time>
      </trkpt>
      <trkpt lat="42.92986" lon="0.12029">
        <ele>2348.16</ele>
        <time>2013-03-31T08:43:40Z</time>
      </trkpt>
      <trkpt lat="42.92992" lon="0.12034">
        <ele>2350.56</ele>
        <time>2013-03-31T08:43:54Z</time>
      </trkpt>
      <trkpt lat="42.92998" lon="0.1204">
        <ele>2352.48</ele>
        <time>2013-03-31T08:44:08Z</time>
      </trkpt>
      <trkpt lat="42.93001" lon="0.12042">
        <ele>2354.41</ele>
        <time>2013-03-31T08:44:20Z</time>
      </trkpt>
      <trkpt lat="42.93004" lon="0.12045">
        <ele>2356.33</ele>
        <time>2013-03-31T08:44:33Z</time>
      </trkpt>
      <trkpt lat="42.9301" lon="0.12048">
        <ele>2358.25</ele>
        <time>2013-03-31T08:44:46Z</time>
      </trkpt>
      <trkpt lat="42.93015" lon="0.12049">
        <ele>2359.69</ele>
        <time>2013-03-31T08:44:58Z</time>
      </trkpt>
      <trkpt lat="42.93021" lon="0.12051">
        <ele>2361.62</ele>
        <time>2013-03-31T08:45:12Z</time>
      </trkpt>
      <trkpt lat="42.93025" lon="0.12056">
        <ele>2363.06</ele>
        <time>2013-03-31T08:45:26Z</time>
      </trkpt>
      <trkpt lat="42.93026" lon="0.12057">
        <ele>2364.5</ele>
        <time>2013-03-31T08:45:38Z</time>
      </trkpt>
      <trkpt lat="42.93021" lon="0.1206">
        <ele>2365.46</ele>
        <time>2013-03-31T08:45:54Z</time>
      </trkpt>
      <trkpt lat="42.93018" lon="0.12063">
        <ele>2368.35</ele>
        <time>2013-03-31T08:46:08Z</time>
      </trkpt>
      <trkpt lat="42.93014" lon="0.12069">
        <ele>2370.75</ele>
        <time>2013-03-31T08:46:22Z</time>
      </trkpt>
      <trkpt lat="42.9301" lon="0.12076">
        <ele>2372.67</ele>
        <time>2013-03-31T08:46:36Z</time>
      </trkpt>
      <trkpt lat="42.93007" lon="0.12082">
        <ele>2374.59</ele>
        <time>2013-03-31T08:46:52Z</time>
      </trkpt>
      <trkpt lat="42.93004" lon="0.12087">
        <ele>2376.04</ele>
        <time>2013-03-31T08:47:06Z</time>
      </trkpt>
      <trkpt lat="42.93002" lon="0.12093">
        <ele>2377.48</ele>
        <time>2013-03-31T08:47:22Z</time>
      </trkpt>
      <trkpt lat="42.93" lon="0.12097">
        <ele>2378.44</ele>
        <time>2013-03-31T08:47:29Z</time>
      </trkpt>
      <trkpt lat="42.92997" lon="0.12102">
        <ele>2381.32</ele>
        <time>2013-03-31T08:47:42Z</time>
      </trkpt>
      <trkpt lat="42.92993" lon="0.12106">
        <ele>2381.32</ele>
        <time>2013-03-31T08:47:56Z</time>
      </trkpt>
      <trkpt lat="42.92998" lon="0.12107">
        <ele>2382.76</ele>
        <time>2013-03-31T08:48:11Z</time>
      </trkpt>
      <trkpt lat="42.93007" lon="0.12111">
        <ele>2384.69</ele>
        <time>2013-03-31T08:48:25Z</time>
      </trkpt>
      <trkpt lat="42.93011" lon="0.12113">
        <ele>2386.61</ele>
        <time>2013-03-31T08:48:36Z</time>
      </trkpt>
      <trkpt lat="42.93015" lon="0.12115">
        <ele>2388.05</ele>
        <time>2013-03-31T08:48:49Z</time>
      </trkpt>
      <trkpt lat="42.93018" lon="0.12117">
        <ele>2390.46</ele>
        <time>2013-03-31T08:49:02Z</time>
      </trkpt>
      <trkpt lat="42.93023" lon="0.12118">
        <ele>2391.42</ele>
        <time>2013-03-31T08:49:14Z</time>
      </trkpt>
      <trkpt lat="42.93025" lon="0.12119">
        <ele>2391.9</ele>
        <time>2013-03-31T08:49:27Z</time>
      </trkpt>
      <trkpt lat="42.93022" lon="0.12116">
        <ele>2392.86</ele>
        <time>2013-03-31T08:49:42Z</time>
      </trkpt>
      <trkpt lat="42.93018" lon="0.12125">
        <ele>2394.78</ele>
        <time>2013-03-31T08:49:57Z</time>
      </trkpt>
      <trkpt lat="42.93013" lon="0.12133">
        <ele>2396.7</ele>
        <time>2013-03-31T08:50:12Z</time>
      </trkpt>
      <trkpt lat="42.9301" lon="0.12142">
        <ele>2399.11</ele>
        <time>2013-03-31T08:50:27Z</time>
      </trkpt>
      <trkpt lat="42.9301" lon="0.12143">
        <ele>2399.11</ele>
        <time>2013-03-31T08:50:47Z</time>
      </trkpt>
      <trkpt lat="42.93009" lon="0.12144">
        <ele>2400.07</ele>
        <time>2013-03-31T08:51:05Z</time>
      </trkpt>
      <trkpt lat="42.93005" lon="0.12147">
        <ele>2400.07</ele>
        <time>2013-03-31T08:51:23Z</time>
      </trkpt>
      <trkpt lat="42.93003" lon="0.12151">
        <ele>2401.03</ele>
        <time>2013-03-31T08:51:42Z</time>
      </trkpt>
      <trkpt lat="42.93003" lon="0.12158">
        <ele>2402.47</ele>
        <time>2013-03-31T08:51:55Z</time>
      </trkpt>
      <trkpt lat="42.93006" lon="0.12158">
        <ele>2402.47</ele>
        <time>2013-03-31T08:52:14Z</time>
      </trkpt>
      <trkpt lat="42.93012" lon="0.12153">
        <ele>2401.99</ele>
        <time>2013-03-31T08:52:34Z</time>
      </trkpt>
      <trkpt lat="42.93013" lon="0.12148">
        <ele>2402.95</ele>
        <time>2013-03-31T08:52:55Z</time>
      </trkpt>
      <trkpt lat="42.93023" lon="0.12152">
        <ele>2404.39</ele>
        <time>2013-03-31T08:53:07Z</time>
      </trkpt>
      <trkpt lat="42.93033" lon="0.12153">
        <ele>2405.84</ele>
        <time>2013-03-31T08:53:23Z</time>
      </trkpt>
      <trkpt lat="42.93035" lon="0.12155">
        <ele>2407.28</ele>
        <time>2013-03-31T08:53:36Z</time>
      </trkpt>
      <trkpt lat="42.93025" lon="0.12162">
        <ele>2409.2</ele>
        <time>2013-03-31T08:53:52Z</time>
      </trkpt>
      <trkpt lat="42.93022" lon="0.12169">
        <ele>2410.64</ele>
        <time>2013-03-31T08:54:05Z</time>
      </trkpt>
      <trkpt lat="42.93021" lon="0.12175">
        <ele>2411.12</ele>
        <time>2013-03-31T08:54:21Z</time>
      </trkpt>
      <trkpt lat="42.93017" lon="0.12185">
        <ele>2414.01</ele>
        <time>2013-03-31T08:54:37Z</time>
      </trkpt>
      <trkpt lat="42.93018" lon="0.12188">
        <ele>2414.97</ele>
        <time>2013-03-31T08:54:55Z</time>
      </trkpt>
      <trkpt lat="42.93017" lon="0.1219">
        <ele>2415.93</ele>
        <time>2013-03-31T08:55:11Z</time>
      </trkpt>
      <trkpt lat="42.93025" lon="0.12191">
        <ele>2417.85</ele>
        <time>2013-03-31T08:55:25Z</time>
      </trkpt>
      <trkpt lat="42.93034" lon="0.12191">
        <ele>2419.3</ele>
        <time>2013-03-31T08:55:37Z</time>
      </trkpt>
      <trkpt lat="42.93037" lon="0.12191">
        <ele>2421.22</ele>
        <time>2013-03-31T08:55:43Z</time>
      </trkpt>
      <trkpt lat="42.93043" lon="0.12189">
        <ele>2422.66</ele>
        <time>2013-03-31T08:55:58Z</time>
      </trkpt>
      <trkpt lat="42.9304" lon="0.1219">
        <ele>2422.66</ele>
        <time>2013-03-31T08:56:12Z</time>
      </trkpt>
      <trkpt lat="42.93034" lon="0.12189">
        <ele>2422.66</ele>
        <time>2013-03-31T08:56:36Z</time>
      </trkpt>
      <trkpt lat="42.93031" lon="0.12192">
        <ele>2422.66</ele>
        <time>2013-03-31T08:56:54Z</time>
      </trkpt>
      <trkpt lat="42.93027" lon="0.122">
        <ele>2425.06</ele>
        <time>2013-03-31T08:57:09Z</time>
      </trkpt>
      <trkpt lat="42.93025" lon="0.12209">
        <ele>2426.99</ele>
        <time>2013-03-31T08:57:28Z</time>
      </trkpt>
      <trkpt lat="42.93018" lon="0.12214">
        <ele>2427.95</ele>
        <time>2013-03-31T08:57:46Z</time>
      </trkpt>
      <trkpt lat="42.93028" lon="0.12216">
        <ele>2429.87</ele>
        <time>2013-03-31T08:57:57Z</time>
      </trkpt>
      <trkpt lat="42.93036" lon="0.12216">
        <ele>2431.31</ele>
        <time>2013-03-31T08:58:10Z</time>
      </trkpt>
      <trkpt lat="42.93043" lon="0.12215">
        <ele>2433.23</ele>
        <time>2013-03-31T08:58:25Z</time>
      </trkpt>
      <trkpt lat="42.93049" lon="0.12214">
        <ele>2434.68</ele>
        <time>2013-03-31T08:58:38Z</time>
      </trkpt>
      <trkpt lat="42.93042" lon="0.12221">
        <ele>2436.12</ele>
        <time>2013-03-31T08:58:54Z</time>
      </trkpt>
      <trkpt lat="42.93033" lon="0.12232">
        <ele>2438.52</ele>
        <time>2013-03-31T08:59:14Z</time>
      </trkpt>
      <trkpt lat="42.9303" lon="0.12235">
        <ele>2439</ele>
        <time>2013-03-31T08:59:33Z</time>
      </trkpt>
      <trkpt lat="42.93028" lon="0.12236">
        <ele>2440.92</ele>
        <time>2013-03-31T08:59:47Z</time>
      </trkpt>
      <trkpt lat="42.93027" lon="0.12242">
        <ele>2442.37</ele>
        <time>2013-03-31T09:00:01Z</time>
      </trkpt>
      <trkpt lat="42.93037" lon="0.12243">
        <ele>2442.85</ele>
        <time>2013-03-31T09:00:14Z</time>
      </trkpt>
      <trkpt lat="42.93044" lon="0.12242">
        <ele>2445.25</ele>
        <time>2013-03-31T09:00:25Z</time>
      </trkpt>
      <trkpt lat="42.93052" lon="0.12241">
        <ele>2445.73</ele>
        <time>2013-03-31T09:00:38Z</time>
      </trkpt>
      <trkpt lat="42.93048" lon="0.12245">
        <ele>2444.77</ele>
        <time>2013-03-31T09:00:54Z</time>
      </trkpt>
      <trkpt lat="42.9304" lon="0.12251">
        <ele>2446.21</ele>
        <time>2013-03-31T09:01:10Z</time>
      </trkpt>
      <trkpt lat="42.93037" lon="0.12254">
        <ele>2447.17</ele>
        <time>2013-03-31T09:01:25Z</time>
      </trkpt>
      <trkpt lat="42.93031" lon="0.12256">
        <ele>2449.1</ele>
        <time>2013-03-31T09:01:41Z</time>
      </trkpt>
      <trkpt lat="42.93033" lon="0.12258">
        <ele>2449.1</ele>
        <time>2013-03-31T09:01:57Z</time>
      </trkpt>
      <trkpt lat="42.9304" lon="0.12255">
        <ele>2449.58</ele>
        <time>2013-03-31T09:02:20Z</time>
      </trkpt>
      <trkpt lat="42.93044" lon="0.12259">
        <ele>2450.54</ele>
        <time>2013-03-31T09:02:31Z</time>
      </trkpt>
      <trkpt lat="42.93049" lon="0.12261">
        <ele>2451.98</ele>
        <time>2013-03-31T09:02:42Z</time>
      </trkpt>
      <trkpt lat="42.93055" lon="0.1226">
        <ele>2453.9</ele>
        <time>2013-03-31T09:02:56Z</time>
      </trkpt>
      <trkpt lat="42.93049" lon="0.12262">
        <ele>2453.9</ele>
        <time>2013-03-31T09:03:13Z</time>
      </trkpt>
      <trkpt lat="42.93045" lon="0.1227">
        <ele>2455.82</ele>
        <time>2013-03-31T09:03:26Z</time>
      </trkpt>
      <trkpt lat="42.9304" lon="0.12273">
        <ele>2458.23</ele>
        <time>2013-03-31T09:03:41Z</time>
      </trkpt>
      <trkpt lat="42.93034" lon="0.12277">
        <ele>2460.15</ele>
        <time>2013-03-31T09:03:54Z</time>
      </trkpt>
      <trkpt lat="42.93031" lon="0.1228">
        <ele>2460.63</ele>
        <time>2013-03-31T09:04:07Z</time>
      </trkpt>
      <trkpt lat="42.93038" lon="0.12282">
        <ele>2461.59</ele>
        <time>2013-03-31T09:04:23Z</time>
      </trkpt>
      <trkpt lat="42.93044" lon="0.12284">
        <ele>2463.04</ele>
        <time>2013-03-31T09:04:35Z</time>
      </trkpt>
      <trkpt lat="42.93054" lon="0.12281">
        <ele>2464.48</ele>
        <time>2013-03-31T09:04:51Z</time>
      </trkpt>
      <trkpt lat="42.9306" lon="0.12281">
        <ele>2465.44</ele>
        <time>2013-03-31T09:05:04Z</time>
      </trkpt>
      <trkpt lat="42.93064" lon="0.12281">
        <ele>2465.92</ele>
        <time>2013-03-31T09:05:17Z</time>
      </trkpt>
      <trkpt lat="42.93065" lon="0.12282">
        <ele>2466.88</ele>
        <time>2013-03-31T09:05:30Z</time>
      </trkpt>
      <trkpt lat="42.93063" lon="0.12281">
        <ele>2465.92</ele>
        <time>2013-03-31T09:05:49Z</time>
      </trkpt>
      <trkpt lat="42.93056" lon="0.12285">
        <ele>2467.36</ele>
        <time>2013-03-31T09:06:04Z</time>
      </trkpt>
      <trkpt lat="42.93055" lon="0.12291">
        <ele>2468.8</ele>
        <time>2013-03-31T09:06:23Z</time>
      </trkpt>
      <trkpt lat="42.93053" lon="0.12294">
        <ele>2469.76</ele>
        <time>2013-03-31T09:06:28Z</time>
      </trkpt>
      <trkpt lat="42.93054" lon="0.12294">
        <ele>2471.21</ele>
        <time>2013-03-31T09:06:44Z</time>
      </trkpt>
      <trkpt lat="42.93062" lon="0.12298">
        <ele>2471.21</ele>
        <time>2013-03-31T09:06:58Z</time>
      </trkpt>
      <trkpt lat="42.93067" lon="0.12298">
        <ele>2474.09</ele>
        <time>2013-03-31T09:07:07Z</time>
      </trkpt>
      <trkpt lat="42.9307" lon="0.12296">
        <ele>2474.57</ele>
        <time>2013-03-31T09:07:21Z</time>
      </trkpt>
      <trkpt lat="42.93063" lon="0.12304">
        <ele>2476.01</ele>
        <time>2013-03-31T09:07:34Z</time>
      </trkpt>
      <trkpt lat="42.93057" lon="0.12311">
        <ele>2476.97</ele>
        <time>2013-03-31T09:07:50Z</time>
      </trkpt>
      <trkpt lat="42.93051" lon="0.12315">
        <ele>2479.38</ele>
        <time>2013-03-31T09:08:06Z</time>
      </trkpt>
      <trkpt lat="42.93044" lon="0.12316">
        <ele>2479.86</ele>
        <time>2013-03-31T09:08:20Z</time>
      </trkpt>
      <trkpt lat="42.93045" lon="0.1232">
        <ele>2480.82</ele>
        <time>2013-03-31T09:08:36Z</time>
      </trkpt>
      <trkpt lat="42.93053" lon="0.12326">
        <ele>2482.26</ele>
        <time>2013-03-31T09:08:49Z</time>
      </trkpt>
      <trkpt lat="42.9306" lon="0.12327">
        <ele>2484.66</ele>
        <time>2013-03-31T09:09:04Z</time>
      </trkpt>
      <trkpt lat="42.93066" lon="0.12326">
        <ele>2486.59</ele>
        <time>2013-03-31T09:09:17Z</time>
      </trkpt>
      <trkpt lat="42.93073" lon="0.12326">
        <ele>2488.03</ele>
        <time>2013-03-31T09:09:29Z</time>
      </trkpt>
      <trkpt lat="42.93073" lon="0.12324">
        <ele>2488.99</ele>
        <time>2013-03-31T09:09:43Z</time>
      </trkpt>
      <trkpt lat="42.93073" lon="0.12325">
        <ele>2488.51</ele>
        <time>2013-03-31T09:10:10Z</time>
      </trkpt>
      <trkpt lat="42.93078" lon="0.12323">
        <ele>2490.91</ele>
        <time>2013-03-31T09:10:30Z</time>
      </trkpt>
      <trkpt lat="42.93085" lon="0.12322">
        <ele>2491.39</ele>
        <time>2013-03-31T09:10:44Z</time>
      </trkpt>
      <trkpt lat="42.93079" lon="0.12328">
        <ele>2490.91</ele>
        <time>2013-03-31T09:10:59Z</time>
      </trkpt>
      <trkpt lat="42.93073" lon="0.12334">
        <ele>2493.32</ele>
        <time>2013-03-31T09:11:11Z</time>
      </trkpt>
      <trkpt lat="42.93068" lon="0.12341">
        <ele>2495.24</ele>
        <time>2013-03-31T09:11:26Z</time>
      </trkpt>
      <trkpt lat="42.93062" lon="0.12349">
        <ele>2496.68</ele>
        <time>2013-03-31T09:11:41Z</time>
      </trkpt>
      <trkpt lat="42.93056" lon="0.12353">
        <ele>2499.08</ele>
        <time>2013-03-31T09:11:56Z</time>
      </trkpt>
      <trkpt lat="42.93054" lon="0.12359">
        <ele>2501.49</ele>
        <time>2013-03-31T09:12:12Z</time>
      </trkpt>
      <trkpt lat="42.93056" lon="0.12361">
        <ele>2502.45</ele>
        <time>2013-03-31T09:12:29Z</time>
      </trkpt>
      <trkpt lat="42.93063" lon="0.12364">
        <ele>2502.93</ele>
        <time>2013-03-31T09:12:46Z</time>
      </trkpt>
      <trkpt lat="42.93069" lon="0.12365">
        <ele>2504.85</ele>
        <time>2013-03-31T09:12:58Z</time>
      </trkpt>
      <trkpt lat="42.93075" lon="0.12363">
        <ele>2505.81</ele>
        <time>2013-03-31T09:13:11Z</time>
      </trkpt>
      <trkpt lat="42.93078" lon="0.12363">
        <ele>2507.74</ele>
        <time>2013-03-31T09:13:24Z</time>
      </trkpt>
      <trkpt lat="42.93071" lon="0.12365">
        <ele>2508.22</ele>
        <time>2013-03-31T09:13:41Z</time>
      </trkpt>
      <trkpt lat="42.93065" lon="0.12368">
        <ele>2508.7</ele>
        <time>2013-03-31T09:13:56Z</time>
      </trkpt>
      <trkpt lat="42.93058" lon="0.12372">
        <ele>2510.14</ele>
        <time>2013-03-31T09:14:10Z</time>
      </trkpt>
      <trkpt lat="42.93052" lon="0.12376">
        <ele>2511.58</ele>
        <time>2013-03-31T09:14:25Z</time>
      </trkpt>
      <trkpt lat="42.93057" lon="0.12379">
        <ele>2512.54</ele>
        <time>2013-03-31T09:14:42Z</time>
      </trkpt>
      <trkpt lat="42.93062" lon="0.12385">
        <ele>2514.47</ele>
        <time>2013-03-31T09:14:54Z</time>
      </trkpt>
      <trkpt lat="42.93069" lon="0.12384">
        <ele>2514.95</ele>
        <time>2013-03-31T09:15:09Z</time>
      </trkpt>
      <trkpt lat="42.93069" lon="0.12381">
        <ele>2515.91</ele>
        <time>2013-03-31T09:15:33Z</time>
      </trkpt>
      <trkpt lat="42.93071" lon="0.12382">
        <ele>2515.43</ele>
        <time>2013-03-31T09:15:50Z</time>
      </trkpt>
      <trkpt lat="42.93075" lon="0.12384">
        <ele>2515.91</ele>
        <time>2013-03-31T09:16:01Z</time>
      </trkpt>
      <trkpt lat="42.93081" lon="0.12385">
        <ele>2518.31</ele>
        <time>2013-03-31T09:16:15Z</time>
      </trkpt>
      <trkpt lat="42.9308" lon="0.12386">
        <ele>2516.87</ele>
        <time>2013-03-31T09:16:23Z</time>
      </trkpt>
      <trkpt lat="42.9308" lon="0.12385">
        <ele>2518.79</ele>
        <time>2013-03-31T09:16:25Z</time>
      </trkpt>
      <trkpt lat="42.93071" lon="0.12389">
        <ele>2518.31</ele>
        <time>2013-03-31T09:16:41Z</time>
      </trkpt>
      <trkpt lat="42.93067" lon="0.12391">
        <ele>2519.75</ele>
        <time>2013-03-31T09:16:54Z</time>
      </trkpt>
      <trkpt lat="42.9307" lon="0.12392">
        <ele>2520.71</ele>
        <time>2013-03-31T09:17:10Z</time>
      </trkpt>
      <trkpt lat="42.93076" lon="0.12396">
        <ele>2522.16</ele>
        <time>2013-03-31T09:17:25Z</time>
      </trkpt>
      <trkpt lat="42.93082" lon="0.12399">
        <ele>2524.08</ele>
        <time>2013-03-31T09:17:37Z</time>
      </trkpt>
      <trkpt lat="42.9309" lon="0.12396">
        <ele>2527.44</ele>
        <time>2013-03-31T09:17:51Z</time>
      </trkpt>
      <trkpt lat="42.93088" lon="0.12398">
        <ele>2526.96</ele>
        <time>2013-03-31T09:18:07Z</time>
      </trkpt>
      <trkpt lat="42.93082" lon="0.12402">
        <ele>2527.92</ele>
        <time>2013-03-31T09:18:22Z</time>
      </trkpt>
      <trkpt lat="42.93078" lon="0.12405">
        <ele>2529.37</ele>
        <time>2013-03-31T09:18:36Z</time>
      </trkpt>
      <trkpt lat="42.93074" lon="0.12407">
        <ele>2531.29</ele>
        <time>2013-03-31T09:18:49Z</time>
      </trkpt>
      <trkpt lat="42.93069" lon="0.1241">
        <ele>2532.73</ele>
        <time>2013-03-31T09:19:02Z</time>
      </trkpt>
      <trkpt lat="42.93068" lon="0.12413">
        <ele>2533.21</ele>
        <time>2013-03-31T09:19:16Z</time>
      </trkpt>
      <trkpt lat="42.93069" lon="0.12415">
        <ele>2537.54</ele>
        <time>2013-03-31T09:19:23Z</time>
      </trkpt>
      <trkpt lat="42.93073" lon="0.12421">
        <ele>2536.58</ele>
        <time>2013-03-31T09:19:38Z</time>
      </trkpt>
      <trkpt lat="42.93083" lon="0.1242">
        <ele>2538.5</ele>
        <time>2013-03-31T09:19:53Z</time>
      </trkpt>
      <trkpt lat="42.93085" lon="0.12424">
        <ele>2538.98</ele>
        <time>2013-03-31T09:20:10Z</time>
      </trkpt>
      <trkpt lat="42.93083" lon="0.12423">
        <ele>2539.94</ele>
        <time>2013-03-31T09:20:15Z</time>
      </trkpt>
      <trkpt lat="42.93083" lon="0.12422">
        <ele>2538.02</ele>
        <time>2013-03-31T09:20:20Z</time>
      </trkpt>
      <trkpt lat="42.93077" lon="0.12426">
        <ele>2539.46</ele>
        <time>2013-03-31T09:20:32Z</time>
      </trkpt>
      <trkpt lat="42.93071" lon="0.12428">
        <ele>2542.34</ele>
        <time>2013-03-31T09:20:46Z</time>
      </trkpt>
      <trkpt lat="42.93071" lon="0.12428">
        <ele>2542.82</ele>
        <time>2013-03-31T09:20:47Z</time>
      </trkpt>
      <trkpt lat="42.93072" lon="0.1243">
        <ele>2541.38</ele>
        <time>2013-03-31T09:20:57Z</time>
      </trkpt>
      <trkpt lat="42.93074" lon="0.12431">
        <ele>2543.79</ele>
        <time>2013-03-31T09:21:03Z</time>
      </trkpt>
      <trkpt lat="42.93078" lon="0.12434">
        <ele>2543.31</ele>
        <time>2013-03-31T09:21:28Z</time>
      </trkpt>
      <trkpt lat="42.93083" lon="0.12439">
        <ele>2545.71</ele>
        <time>2013-03-31T09:21:47Z</time>
      </trkpt>
      <trkpt lat="42.93089" lon="0.12442">
        <ele>2547.63</ele>
        <time>2013-03-31T09:22:00Z</time>
      </trkpt>
      <trkpt lat="42.93098" lon="0.12442">
        <ele>2550.03</ele>
        <time>2013-03-31T09:22:14Z</time>
      </trkpt>
      <trkpt lat="42.93093" lon="0.12442">
        <ele>2549.55</ele>
        <time>2013-03-31T09:22:31Z</time>
      </trkpt>
      <trkpt lat="42.93085" lon="0.1245">
        <ele>2552.92</ele>
        <time>2013-03-31T09:22:45Z</time>
      </trkpt>
      <trkpt lat="42.93083" lon="0.12453">
        <ele>2554.36</ele>
        <time>2013-03-31T09:22:56Z</time>
      </trkpt>
      <trkpt lat="42.93091" lon="0.12456">
        <ele>2557.73</ele>
        <time>2013-03-31T09:23:16Z</time>
      </trkpt>
      <trkpt lat="42.931" lon="0.12456">
        <ele>2558.69</ele>
        <time>2013-03-31T09:23:28Z</time>
      </trkpt>
      <trkpt lat="42.93097" lon="0.12459">
        <ele>2557.73</ele>
        <time>2013-03-31T09:23:42Z</time>
      </trkpt>
      <trkpt lat="42.93096" lon="0.1246">
        <ele>2557.24</ele>
        <time>2013-03-31T09:23:43Z</time>
      </trkpt>
      <trkpt lat="42.93087" lon="0.12469">
        <ele>2560.13</ele>
        <time>2013-03-31T09:23:59Z</time>
      </trkpt>
      <trkpt lat="42.93085" lon="0.12473">
        <ele>2561.09</ele>
        <time>2013-03-31T09:24:08Z</time>
      </trkpt>
      <trkpt lat="42.93085" lon="0.12472">
        <ele>2563.49</ele>
        <time>2013-03-31T09:24:14Z</time>
      </trkpt>
      <trkpt lat="42.93086" lon="0.12473">
        <ele>2562.05</ele>
        <time>2013-03-31T09:24:19Z</time>
      </trkpt>
      <trkpt lat="42.93086" lon="0.12475">
        <ele>2561.09</ele>
        <time>2013-03-31T09:24:27Z</time>
      </trkpt>
      <trkpt lat="42.93089" lon="0.12473">
        <ele>2559.65</ele>
        <time>2013-03-31T09:24:39Z</time>
      </trkpt>
      <trkpt lat="42.93089" lon="0.12475">
        <ele>2559.65</ele>
        <time>2013-03-31T09:25:07Z</time>
      </trkpt>
      <trkpt lat="42.93087" lon="0.12476">
        <ele>2559.65</ele>
        <time>2013-03-31T09:25:51Z</time>
      </trkpt>
      <trkpt lat="42.93082" lon="0.12472">
        <ele>2560.13</ele>
        <time>2013-03-31T09:26:28Z</time>
      </trkpt>
      <trkpt lat="42.93083" lon="0.12475">
        <ele>2560.13</ele>
        <time>2013-03-31T09:27:03Z</time>
      </trkpt>
      <trkpt lat="42.93086" lon="0.12472">
        <ele>2561.09</ele>
        <time>2013-03-31T09:27:30Z</time>
      </trkpt>
      <trkpt lat="42.93087" lon="0.12472">
        <ele>2559.65</ele>
        <time>2013-03-31T09:27:49Z</time>
      </trkpt>
      <trkpt lat="42.93084" lon="0.12466">
        <ele>2559.65</ele>
        <time>2013-03-31T09:28:23Z</time>
      </trkpt>
      <trkpt lat="42.93092" lon="0.12464">
        <ele>2560.13</ele>
        <time>2013-03-31T09:28:53Z</time>
      </trkpt>
      <trkpt lat="42.93091" lon="0.12455">
        <ele>2562.05</ele>
        <time>2013-03-31T09:29:25Z</time>
      </trkpt>
      <trkpt lat="42.93092" lon="0.12464">
        <ele>2560.61</ele>
        <time>2013-03-31T09:29:48Z</time>
      </trkpt>
      <trkpt lat="42.9309" lon="0.12469">
        <ele>2561.09</ele>
        <time>2013-03-31T09:30:24Z</time>
      </trkpt>
      <trkpt lat="42.93092" lon="0.12471">
        <ele>2562.05</ele>
        <time>2013-03-31T09:30:58Z</time>
      </trkpt>
      <trkpt lat="42.93088" lon="0.12469">
        <ele>2561.57</ele>
        <time>2013-03-31T09:31:24Z</time>
      </trkpt>
      <trkpt lat="42.93088" lon="0.12469">
        <ele>2561.57</ele>
        <time>2013-03-31T09:32:01Z</time>
      </trkpt>
      <trkpt lat="42.93089" lon="0.12467">
        <ele>2562.53</ele>
        <time>2013-03-31T09:32:26Z</time>
      </trkpt>
      <trkpt lat="42.93086" lon="0.12462">
        <ele>2561.57</ele>
        <time>2013-03-31T09:33:00Z</time>
      </trkpt>
      <trkpt lat="42.93084" lon="0.12472">
        <ele>2561.09</ele>
        <time>2013-03-31T09:33:30Z</time>
      </trkpt>
      <trkpt lat="42.93089" lon="0.12469">
        <ele>2562.05</ele>
        <time>2013-03-31T09:34:04Z</time>
      </trkpt>
      <trkpt lat="42.93092" lon="0.12467">
        <ele>2562.05</ele>
        <time>2013-03-31T09:34:42Z</time>
      </trkpt>
      <trkpt lat="42.93088" lon="0.12466">
        <ele>2563.49</ele>
        <time>2013-03-31T09:35:18Z</time>
      </trkpt>
      <trkpt lat="42.93087" lon="0.12469">
        <ele>2564.93</ele>
        <time>2013-03-31T09:35:51Z</time>
      </trkpt>
      <trkpt lat="42.93087" lon="0.12476">
        <ele>2563.01</ele>
        <time>2013-03-31T09:36:27Z</time>
      </trkpt>
      <trkpt lat="42.93088" lon="0.12479">
        <ele>2563.01</ele>
        <time>2013-03-31T09:36:58Z</time>
      </trkpt>
      <trkpt lat="42.93086" lon="0.12478">
        <ele>2562.53</ele>
        <time>2013-03-31T09:37:26Z</time>
      </trkpt>
      <trkpt lat="42.93088" lon="0.12477">
        <ele>2563.49</ele>
        <time>2013-03-31T09:37:56Z</time>
      </trkpt>
      <trkpt lat="42.93084" lon="0.12474">
        <ele>2562.53</ele>
        <time>2013-03-31T09:38:34Z</time>
      </trkpt>
      <trkpt lat="42.93082" lon="0.12482">
        <ele>2562.53</ele>
        <time>2013-03-31T09:39:11Z</time>
      </trkpt>
      <trkpt lat="42.93089" lon="0.12474">
        <ele>2562.05</ele>
        <time>2013-03-31T09:39:46Z</time>
      </trkpt>
      <trkpt lat="42.93087" lon="0.12474">
        <ele>2562.53</ele>
        <time>2013-03-31T09:40:16Z</time>
      </trkpt>
      <trkpt lat="42.93088" lon="0.12471">
        <ele>2563.97</ele>
        <time>2013-03-31T09:40:30Z</time>
      </trkpt>
      <trkpt lat="42.93086" lon="0.12471">
        <ele>2565.42</ele>
        <time>2013-03-31T09:40:33Z</time>
      </trkpt>
      <trkpt lat="42.93085" lon="0.12472">
        <ele>2562.05</ele>
        <time>2013-03-31T09:40:36Z</time>
      </trkpt>
      <trkpt lat="42.93085" lon="0.12472">
        <ele>2563.49</ele>
        <time>2013-03-31T09:40:37Z</time>
      </trkpt>
      <trkpt lat="42.93084" lon="0.12472">
        <ele>2563.97</ele>
        <time>2013-03-31T09:40:43Z</time>
      </trkpt>
      <trkpt lat="42.93083" lon="0.12476">
        <ele>2563.01</ele>
        <time>2013-03-31T09:40:50Z</time>
      </trkpt>
      <trkpt lat="42.93082" lon="0.12475">
        <ele>2566.38</ele>
        <time>2013-03-31T09:40:57Z</time>
      </trkpt>
      <trkpt lat="42.93082" lon="0.12476">
        <ele>2565.9</ele>
        <time>2013-03-31T09:40:58Z</time>
      </trkpt>
      <trkpt lat="42.93083" lon="0.12476">
        <ele>2563.97</ele>
        <time>2013-03-31T09:41:04Z</time>
      </trkpt>
      <trkpt lat="42.93083" lon="0.12472">
        <ele>2564.93</ele>
        <time>2013-03-31T09:41:09Z</time>
      </trkpt>
      <trkpt lat="42.93083" lon="0.1247">
        <ele>2562.53</ele>
        <time>2013-03-31T09:41:13Z</time>
      </trkpt>
      <trkpt lat="42.93085" lon="0.12462">
        <ele>2564.93</ele>
        <time>2013-03-31T09:41:16Z</time>
      </trkpt>
      <trkpt lat="42.93087" lon="0.12459">
        <ele>2563.97</ele>
        <time>2013-03-31T09:41:17Z</time>
      </trkpt>
      <trkpt lat="42.93093" lon="0.12454">
        <ele>2562.05</ele>
        <time>2013-03-31T09:41:19Z</time>
      </trkpt>
      <trkpt lat="42.93094" lon="0.12447">
        <ele>2554.36</ele>
        <time>2013-03-31T09:41:21Z</time>
      </trkpt>
      <trkpt lat="42.93087" lon="0.1244">
        <ele>2550.51</ele>
        <time>2013-03-31T09:41:24Z</time>
      </trkpt>
      <trkpt lat="42.93089" lon="0.1243">
        <ele>2551.48</ele>
        <time>2013-03-31T09:41:26Z</time>
      </trkpt>
      <trkpt lat="42.93097" lon="0.12421">
        <ele>2546.67</ele>
        <time>2013-03-31T09:41:29Z</time>
      </trkpt>
      <trkpt lat="42.93097" lon="0.12416">
        <ele>2541.86</ele>
        <time>2013-03-31T09:41:31Z</time>
      </trkpt>
      <trkpt lat="42.93095" lon="0.12415">
        <ele>2538.98</ele>
        <time>2013-03-31T09:41:32Z</time>
      </trkpt>
      <trkpt lat="42.93085" lon="0.12415">
        <ele>2536.58</ele>
        <time>2013-03-31T09:41:35Z</time>
      </trkpt>
      <trkpt lat="42.93087" lon="0.12404">
        <ele>2533.21</ele>
        <time>2013-03-31T09:41:39Z</time>
      </trkpt>
      <trkpt lat="42.93093" lon="0.12395">
        <ele>2528.4</ele>
        <time>2013-03-31T09:41:43Z</time>
      </trkpt>
      <trkpt lat="42.93091" lon="0.12393">
        <ele>2525.52</ele>
        <time>2013-03-31T09:41:44Z</time>
      </trkpt>
      <trkpt lat="42.93082" lon="0.12393">
        <ele>2524.08</ele>
        <time>2013-03-31T09:41:51Z</time>
      </trkpt>
      <trkpt lat="42.9308" lon="0.12396">
        <ele>2522.64</ele>
        <time>2013-03-31T09:42:03Z</time>
      </trkpt>
      <trkpt lat="42.93082" lon="0.12392">
        <ele>2523.6</ele>
        <time>2013-03-31T09:42:17Z</time>
      </trkpt>
      <trkpt lat="42.93084" lon="0.1239">
        <ele>2523.12</ele>
        <time>2013-03-31T09:42:38Z</time>
      </trkpt>
      <trkpt lat="42.93079" lon="0.12384">
        <ele>2519.27</ele>
        <time>2013-03-31T09:42:41Z</time>
      </trkpt>
      <trkpt lat="42.93068" lon="0.12383">
        <ele>2516.39</ele>
        <time>2013-03-31T09:42:45Z</time>
      </trkpt>
      <trkpt lat="42.93064" lon="0.12383">
        <ele>2514.47</ele>
        <time>2013-03-31T09:42:47Z</time>
      </trkpt>
      <trkpt lat="42.93061" lon="0.12383">
        <ele>2516.39</ele>
        <time>2013-03-31T09:42:50Z</time>
      </trkpt>
      <trkpt lat="42.93059" lon="0.12382">
        <ele>2517.35</ele>
        <time>2013-03-31T09:43:07Z</time>
      </trkpt>
      <trkpt lat="42.93059" lon="0.12386">
        <ele>2516.39</ele>
        <time>2013-03-31T09:43:31Z</time>
      </trkpt>
      <trkpt lat="42.93058" lon="0.12385">
        <ele>2516.39</ele>
        <time>2013-03-31T09:43:37Z</time>
      </trkpt>
      <trkpt lat="42.93058" lon="0.12385">
        <ele>2514.95</ele>
        <time>2013-03-31T09:43:50Z</time>
      </trkpt>
      <trkpt lat="42.93058" lon="0.12386">
        <ele>2517.35</ele>
        <time>2013-03-31T09:43:52Z</time>
      </trkpt>
      <trkpt lat="42.93057" lon="0.12386">
        <ele>2515.91</ele>
        <time>2013-03-31T09:43:55Z</time>
      </trkpt>
      <trkpt lat="42.93057" lon="0.12383">
        <ele>2512.54</ele>
        <time>2013-03-31T09:44:01Z</time>
      </trkpt>
      <trkpt lat="42.93057" lon="0.12383">
        <ele>2514.95</ele>
        <time>2013-03-31T09:44:02Z</time>
      </trkpt>
      <trkpt lat="42.93055" lon="0.12384">
        <ele>2519.75</ele>
        <time>2013-03-31T09:44:08Z</time>
      </trkpt>
      <trkpt lat="42.93055" lon="0.12385">
        <ele>2516.87</ele>
        <time>2013-03-31T09:44:10Z</time>
      </trkpt>
      <trkpt lat="42.93056" lon="0.12382">
        <ele>2516.87</ele>
        <time>2013-03-31T09:44:28Z</time>
      </trkpt>
      <trkpt lat="42.93057" lon="0.12382">
        <ele>2515.43</ele>
        <time>2013-03-31T09:44:37Z</time>
      </trkpt>
      <trkpt lat="42.93058" lon="0.12386">
        <ele>2515.91</ele>
        <time>2013-03-31T09:45:02Z</time>
      </trkpt>
      <trkpt lat="42.93057" lon="0.12383">
        <ele>2516.39</ele>
        <time>2013-03-31T09:45:26Z</time>
      </trkpt>
      <trkpt lat="42.93055" lon="0.12385">
        <ele>2516.87</ele>
        <time>2013-03-31T09:46:00Z</time>
      </trkpt>
      <trkpt lat="42.93059" lon="0.12382">
        <ele>2517.35</ele>
        <time>2013-03-31T09:46:25Z</time>
      </trkpt>
      <trkpt lat="42.93056" lon="0.12386">
        <ele>2516.87</ele>
        <time>2013-03-31T09:46:47Z</time>
      </trkpt>
      <trkpt lat="42.93058" lon="0.12388">
        <ele>2517.83</ele>
        <time>2013-03-31T09:47:17Z</time>
      </trkpt>
      <trkpt lat="42.93056" lon="0.12386">
        <ele>2517.35</ele>
        <time>2013-03-31T09:47:43Z</time>
      </trkpt>
      <trkpt lat="42.93058" lon="0.12385">
        <ele>2518.79</ele>
        <time>2013-03-31T09:48:07Z</time>
      </trkpt>
      <trkpt lat="42.93057" lon="0.12382">
        <ele>2518.31</ele>
        <time>2013-03-31T09:48:40Z</time>
      </trkpt>
      <trkpt lat="42.93056" lon="0.12383">
        <ele>2516.87</ele>
        <time>2013-03-31T09:49:09Z</time>
      </trkpt>
      <trkpt lat="42.93059" lon="0.12389">
        <ele>2518.31</ele>
        <time>2013-03-31T09:49:32Z</time>
      </trkpt>
      <trkpt lat="42.93057" lon="0.1239">
        <ele>2517.35</ele>
        <time>2013-03-31T09:50:01Z</time>
      </trkpt>
      <trkpt lat="42.93058" lon="0.12388">
        <ele>2517.35</ele>
        <time>2013-03-31T09:50:28Z</time>
      </trkpt>
      <trkpt lat="42.93058" lon="0.12387">
        <ele>2518.31</ele>
        <time>2013-03-31T09:50:57Z</time>
      </trkpt>
      <trkpt lat="42.93059" lon="0.12386">
        <ele>2518.31</ele>
        <time>2013-03-31T09:51:16Z</time>
      </trkpt>
      <trkpt lat="42.93058" lon="0.12389">
        <ele>2518.79</ele>
        <time>2013-03-31T09:51:42Z</time>
      </trkpt>
      <trkpt lat="42.93059" lon="0.12388">
        <ele>2518.31</ele>
        <time>2013-03-31T09:51:48Z</time>
      </trkpt>
      <trkpt lat="42.93059" lon="0.12392">
        <ele>2518.79</ele>
        <time>2013-03-31T09:52:18Z</time>
      </trkpt>
      <trkpt lat="42.9306" lon="0.12388">
        <ele>2519.27</ele>
        <time>2013-03-31T09:52:38Z</time>
      </trkpt>
      <trkpt lat="42.93058" lon="0.12387">
        <ele>2520.71</ele>
        <time>2013-03-31T09:53:02Z</time>
      </trkpt>
      <trkpt lat="42.93058" lon="0.12386">
        <ele>2519.75</ele>
        <time>2013-03-31T09:53:07Z</time>
      </trkpt>
      <trkpt lat="42.93068" lon="0.12376">
        <ele>2517.83</ele>
        <time>2013-03-31T09:53:11Z</time>
      </trkpt>
      <trkpt lat="42.93073" lon="0.1237">
        <ele>2515.91</ele>
        <time>2013-03-31T09:53:13Z</time>
      </trkpt>
      <trkpt lat="42.93069" lon="0.12363">
        <ele>2509.18</ele>
        <time>2013-03-31T09:53:16Z</time>
      </trkpt>
      <trkpt lat="42.93068" lon="0.12355">
        <ele>2509.18</ele>
        <time>2013-03-31T09:53:19Z</time>
      </trkpt>
      <trkpt lat="42.93072" lon="0.12345">
        <ele>2504.85</ele>
        <time>2013-03-31T09:53:22Z</time>
      </trkpt>
      <trkpt lat="42.93064" lon="0.12343">
        <ele>2498.6</ele>
        <time>2013-03-31T09:53:25Z</time>
      </trkpt>
      <trkpt lat="42.93067" lon="0.12328">
        <ele>2495.72</ele>
        <time>2013-03-31T09:53:32Z</time>
      </trkpt>
      <trkpt lat="42.93065" lon="0.12326">
        <ele>2490.43</ele>
        <time>2013-03-31T09:53:34Z</time>
      </trkpt>
      <trkpt lat="42.93063" lon="0.12325">
        <ele>2490.91</ele>
        <time>2013-03-31T09:53:35Z</time>
      </trkpt>
      <trkpt lat="42.93062" lon="0.12324">
        <ele>2490.91</ele>
        <time>2013-03-31T09:53:36Z</time>
      </trkpt>
      <trkpt lat="42.93068" lon="0.12312">
        <ele>2485.63</ele>
        <time>2013-03-31T09:53:41Z</time>
      </trkpt>
      <trkpt lat="42.93064" lon="0.12311">
        <ele>2483.22</ele>
        <time>2013-03-31T09:53:43Z</time>
      </trkpt>
      <trkpt lat="42.93056" lon="0.1231">
        <ele>2482.26</ele>
        <time>2013-03-31T09:53:47Z</time>
      </trkpt>
      <trkpt lat="42.93055" lon="0.12305">
        <ele>2479.86</ele>
        <time>2013-03-31T09:53:51Z</time>
      </trkpt>
      <trkpt lat="42.93048" lon="0.12301">
        <ele>2474.09</ele>
        <time>2013-03-31T09:53:56Z</time>
      </trkpt>
      <trkpt lat="42.93044" lon="0.12299">
        <ele>2473.61</ele>
        <time>2013-03-31T09:53:58Z</time>
      </trkpt>
      <trkpt lat="42.93048" lon="0.12289">
        <ele>2470.24</ele>
        <time>2013-03-31T09:54:01Z</time>
      </trkpt>
      <trkpt lat="42.93052" lon="0.12284">
        <ele>2469.76</ele>
        <time>2013-03-31T09:54:03Z</time>
      </trkpt>
      <trkpt lat="42.93057" lon="0.12277">
        <ele>2467.84</ele>
        <time>2013-03-31T09:54:06Z</time>
      </trkpt>
      <trkpt lat="42.93062" lon="0.12268">
        <ele>2465.44</ele>
        <time>2013-03-31T09:54:09Z</time>
      </trkpt>
      <trkpt lat="42.93056" lon="0.12263">
        <ele>2460.63</ele>
        <time>2013-03-31T09:54:12Z</time>
      </trkpt>
      <trkpt lat="42.93047" lon="0.12265">
        <ele>2459.67</ele>
        <time>2013-03-31T09:54:14Z</time>
      </trkpt>
      <trkpt lat="42.93041" lon="0.12267">
        <ele>2459.19</ele>
        <time>2013-03-31T09:54:22Z</time>
      </trkpt>
      <trkpt lat="42.93041" lon="0.12267">
        <ele>2459.19</ele>
        <time>2013-03-31T09:54:34Z</time>
      </trkpt>
      <trkpt lat="42.9304" lon="0.12266">
        <ele>2458.23</ele>
        <time>2013-03-31T09:54:36Z</time>
      </trkpt>
      <trkpt lat="42.93045" lon="0.12254">
        <ele>2454.38</ele>
        <time>2013-03-31T09:54:40Z</time>
      </trkpt>
      <trkpt lat="42.93049" lon="0.12248">
        <ele>2452.94</ele>
        <time>2013-03-31T09:54:43Z</time>
      </trkpt>
      <trkpt lat="42.93051" lon="0.12244">
        <ele>2452.46</ele>
        <time>2013-03-31T09:55:03Z</time>
      </trkpt>
      <trkpt lat="42.93055" lon="0.12244">
        <ele>2452.94</ele>
        <time>2013-03-31T09:55:22Z</time>
      </trkpt>
      <trkpt lat="42.93056" lon="0.12245">
        <ele>2452.46</ele>
        <time>2013-03-31T09:55:30Z</time>
      </trkpt>
      <trkpt lat="42.93056" lon="0.12245">
        <ele>2451.98</ele>
        <time>2013-03-31T09:55:43Z</time>
      </trkpt>
      <trkpt lat="42.93052" lon="0.12245">
        <ele>2452.46</ele>
        <time>2013-03-31T09:56:09Z</time>
      </trkpt>
      <trkpt lat="42.93045" lon="0.1224">
        <ele>2449.1</ele>
        <time>2013-03-31T09:56:12Z</time>
      </trkpt>
      <trkpt lat="42.93036" lon="0.1224">
        <ele>2446.69</ele>
        <time>2013-03-31T09:56:14Z</time>
      </trkpt>
      <trkpt lat="42.93034" lon="0.12232">
        <ele>2444.77</ele>
        <time>2013-03-31T09:56:18Z</time>
      </trkpt>
      <trkpt lat="42.93038" lon="0.12227">
        <ele>2442.37</ele>
        <time>2013-03-31T09:56:20Z</time>
      </trkpt>
      <trkpt lat="42.93041" lon="0.12222">
        <ele>2440.92</ele>
        <time>2013-03-31T09:56:22Z</time>
      </trkpt>
      <trkpt lat="42.93033" lon="0.12221">
        <ele>2437.08</ele>
        <time>2013-03-31T09:56:27Z</time>
      </trkpt>
      <trkpt lat="42.93027" lon="0.12221">
        <ele>2436.12</ele>
        <time>2013-03-31T09:56:37Z</time>
      </trkpt>
      <trkpt lat="42.93027" lon="0.12219">
        <ele>2436.6</ele>
        <time>2013-03-31T09:56:41Z</time>
      </trkpt>
      <trkpt lat="42.9303" lon="0.12211">
        <ele>2433.23</ele>
        <time>2013-03-31T09:56:45Z</time>
      </trkpt>
      <trkpt lat="42.93025" lon="0.12206">
        <ele>2429.87</ele>
        <time>2013-03-31T09:56:49Z</time>
      </trkpt>
      <trkpt lat="42.93015" lon="0.12204">
        <ele>2426.5</ele>
        <time>2013-03-31T09:56:53Z</time>
      </trkpt>
      <trkpt lat="42.93014" lon="0.12203">
        <ele>2426.99</ele>
        <time>2013-03-31T09:56:55Z</time>
      </trkpt>
      <trkpt lat="42.93022" lon="0.1219">
        <ele>2423.14</ele>
        <time>2013-03-31T09:57:00Z</time>
      </trkpt>
      <trkpt lat="42.93023" lon="0.12188">
        <ele>2423.14</ele>
        <time>2013-03-31T09:57:01Z</time>
      </trkpt>
      <trkpt lat="42.93025" lon="0.12186">
        <ele>2423.14</ele>
        <time>2013-03-31T09:57:02Z</time>
      </trkpt>
      <trkpt lat="42.9302" lon="0.1218">
        <ele>2419.3</ele>
        <time>2013-03-31T09:57:06Z</time>
      </trkpt>
      <trkpt lat="42.93017" lon="0.12181">
        <ele>2418.33</ele>
        <time>2013-03-31T09:57:07Z</time>
      </trkpt>
      <trkpt lat="42.93017" lon="0.12181">
        <ele>2418.33</ele>
        <time>2013-03-31T09:57:21Z</time>
      </trkpt>
      <trkpt lat="42.93016" lon="0.12179">
        <ele>2418.81</ele>
        <time>2013-03-31T09:57:25Z</time>
      </trkpt>
      <trkpt lat="42.9302" lon="0.1217">
        <ele>2416.89</ele>
        <time>2013-03-31T09:57:28Z</time>
      </trkpt>
      <trkpt lat="42.93014" lon="0.12164">
        <ele>2412.09</ele>
        <time>2013-03-31T09:57:32Z</time>
      </trkpt>
      <trkpt lat="42.93005" lon="0.12166">
        <ele>2410.64</ele>
        <time>2013-03-31T09:57:35Z</time>
      </trkpt>
      <trkpt lat="42.93004" lon="0.12168">
        <ele>2411.12</ele>
        <time>2013-03-31T09:57:46Z</time>
      </trkpt>
      <trkpt lat="42.93008" lon="0.12158">
        <ele>2407.28</ele>
        <time>2013-03-31T09:57:50Z</time>
      </trkpt>
      <trkpt lat="42.93012" lon="0.12152">
        <ele>2405.84</ele>
        <time>2013-03-31T09:57:52Z</time>
      </trkpt>
      <trkpt lat="42.93011" lon="0.12143">
        <ele>2402.47</ele>
        <time>2013-03-31T09:57:55Z</time>
      </trkpt>
      <trkpt lat="42.93003" lon="0.12143">
        <ele>2400.55</ele>
        <time>2013-03-31T09:57:57Z</time>
      </trkpt>
      <trkpt lat="42.92995" lon="0.12143">
        <ele>2399.11</ele>
        <time>2013-03-31T09:58:00Z</time>
      </trkpt>
      <trkpt lat="42.92996" lon="0.12136">
        <ele>2396.22</ele>
        <time>2013-03-31T09:58:03Z</time>
      </trkpt>
      <trkpt lat="42.92998" lon="0.12133">
        <ele>2394.78</ele>
        <time>2013-03-31T09:58:05Z</time>
      </trkpt>
      <trkpt lat="42.93002" lon="0.12131">
        <ele>2394.78</ele>
        <time>2013-03-31T09:58:23Z</time>
      </trkpt>
      <trkpt lat="42.93003" lon="0.1213">
        <ele>2394.78</ele>
        <time>2013-03-31T09:58:43Z</time>
      </trkpt>
      <trkpt lat="42.93" lon="0.12121">
        <ele>2390.94</ele>
        <time>2013-03-31T09:58:47Z</time>
      </trkpt>
      <trkpt lat="42.92996" lon="0.1212">
        <ele>2389.97</ele>
        <time>2013-03-31T09:58:48Z</time>
      </trkpt>
      <trkpt lat="42.92988" lon="0.12119">
        <ele>2388.53</ele>
        <time>2013-03-31T09:58:50Z</time>
      </trkpt>
      <trkpt lat="42.92986" lon="0.12111">
        <ele>2384.21</ele>
        <time>2013-03-31T09:58:56Z</time>
      </trkpt>
      <trkpt lat="42.92987" lon="0.12111">
        <ele>2384.21</ele>
        <time>2013-03-31T09:58:57Z</time>
      </trkpt>
      <trkpt lat="42.92988" lon="0.1211">
        <ele>2384.21</ele>
        <time>2013-03-31T09:59:00Z</time>
      </trkpt>
      <trkpt lat="42.92995" lon="0.12103">
        <ele>2382.76</ele>
        <time>2013-03-31T09:59:12Z</time>
      </trkpt>
      <trkpt lat="42.92996" lon="0.12103">
        <ele>2381.8</ele>
        <time>2013-03-31T09:59:29Z</time>
      </trkpt>
      <trkpt lat="42.92997" lon="0.12104">
        <ele>2382.76</ele>
        <time>2013-03-31T09:59:47Z</time>
      </trkpt>
      <trkpt lat="42.92997" lon="0.121">
        <ele>2382.76</ele>
        <time>2013-03-31T10:00:06Z</time>
      </trkpt>
      <trkpt lat="42.92998" lon="0.12102">
        <ele>2382.28</ele>
        <time>2013-03-31T10:00:26Z</time>
      </trkpt>
      <trkpt lat="42.92998" lon="0.121">
        <ele>2382.28</ele>
        <time>2013-03-31T10:00:42Z</time>
      </trkpt>
      <trkpt lat="42.92999" lon="0.12099">
        <ele>2382.76</ele>
        <time>2013-03-31T10:00:54Z</time>
      </trkpt>
      <trkpt lat="42.93003" lon="0.12084">
        <ele>2377.96</ele>
        <time>2013-03-31T10:00:59Z</time>
      </trkpt>
      <trkpt lat="42.92995" lon="0.12078">
        <ele>2375.07</ele>
        <time>2013-03-31T10:01:01Z</time>
      </trkpt>
      <trkpt lat="42.92997" lon="0.12065">
        <ele>2370.27</ele>
        <time>2013-03-31T10:01:05Z</time>
      </trkpt>
      <trkpt lat="42.92992" lon="0.1206">
        <ele>2366.9</ele>
        <time>2013-03-31T10:01:07Z</time>
      </trkpt>
      <trkpt lat="42.92998" lon="0.12051">
        <ele>2363.54</ele>
        <time>2013-03-31T10:01:10Z</time>
      </trkpt>
      <trkpt lat="42.93009" lon="0.12041">
        <ele>2360.17</ele>
        <time>2013-03-31T10:01:14Z</time>
      </trkpt>
      <trkpt lat="42.93001" lon="0.12031">
        <ele>2354.89</ele>
        <time>2013-03-31T10:01:18Z</time>
      </trkpt>
      <trkpt lat="42.93" lon="0.12029">
        <ele>2354.41</ele>
        <time>2013-03-31T10:01:19Z</time>
      </trkpt>
      <trkpt lat="42.93008" lon="0.12012">
        <ele>2347.2</ele>
        <time>2013-03-31T10:01:25Z</time>
      </trkpt>
      <trkpt lat="42.93005" lon="0.12004">
        <ele>2343.35</ele>
        <time>2013-03-31T10:01:28Z</time>
      </trkpt>
      <trkpt lat="42.93011" lon="0.11994">
        <ele>2340.95</ele>
        <time>2013-03-31T10:01:32Z</time>
      </trkpt>
      <trkpt lat="42.93009" lon="0.11986">
        <ele>2338.54</ele>
        <time>2013-03-31T10:01:35Z</time>
      </trkpt>
      <trkpt lat="42.93012" lon="0.11978">
        <ele>2334.22</ele>
        <time>2013-03-31T10:01:38Z</time>
      </trkpt>
      <trkpt lat="42.9301" lon="0.1197">
        <ele>2329.41</ele>
        <time>2013-03-31T10:01:42Z</time>
      </trkpt>
      <trkpt lat="42.93015" lon="0.1197">
        <ele>2328.45</ele>
        <time>2013-03-31T10:01:53Z</time>
      </trkpt>
      <trkpt lat="42.93017" lon="0.11966">
        <ele>2328.93</ele>
        <time>2013-03-31T10:02:02Z</time>
      </trkpt>
      <trkpt lat="42.93005" lon="0.11958">
        <ele>2325.09</ele>
        <time>2013-03-31T10:02:06Z</time>
      </trkpt>
      <trkpt lat="42.93002" lon="0.11957">
        <ele>2324.61</ele>
        <time>2013-03-31T10:02:08Z</time>
      </trkpt>
      <trkpt lat="42.93009" lon="0.11946">
        <ele>2319.8</ele>
        <time>2013-03-31T10:02:12Z</time>
      </trkpt>
      <trkpt lat="42.93004" lon="0.1194">
        <ele>2316.91</ele>
        <time>2013-03-31T10:02:14Z</time>
      </trkpt>
      <trkpt lat="42.93006" lon="0.11929">
        <ele>2312.11</ele>
        <time>2013-03-31T10:02:19Z</time>
      </trkpt>
      <trkpt lat="42.93012" lon="0.11923">
        <ele>2310.19</ele>
        <time>2013-03-31T10:02:22Z</time>
      </trkpt>
      <trkpt lat="42.93007" lon="0.11921">
        <ele>2307.78</ele>
        <time>2013-03-31T10:02:25Z</time>
      </trkpt>
      <trkpt lat="42.93001" lon="0.11918">
        <ele>2307.3</ele>
        <time>2013-03-31T10:02:32Z</time>
      </trkpt>
      <trkpt lat="42.93002" lon="0.11906">
        <ele>2302.98</ele>
        <time>2013-03-31T10:02:36Z</time>
      </trkpt>
      <trkpt lat="42.92996" lon="0.11894">
        <ele>2298.17</ele>
        <time>2013-03-31T10:02:40Z</time>
      </trkpt>
      <trkpt lat="42.92997" lon="0.1188">
        <ele>2293.84</ele>
        <time>2013-03-31T10:02:44Z</time>
      </trkpt>
      <trkpt lat="42.92991" lon="0.11876">
        <ele>2290</ele>
        <time>2013-03-31T10:02:47Z</time>
      </trkpt>
      <trkpt lat="42.92993" lon="0.11869">
        <ele>2287.11</ele>
        <time>2013-03-31T10:02:49Z</time>
      </trkpt>
      <trkpt lat="42.92992" lon="0.11863">
        <ele>2284.23</ele>
        <time>2013-03-31T10:02:54Z</time>
      </trkpt>
      <trkpt lat="42.92993" lon="0.11864">
        <ele>2285.19</ele>
        <time>2013-03-31T10:03:12Z</time>
      </trkpt>
      <trkpt lat="42.9299" lon="0.11859">
        <ele>2285.19</ele>
        <time>2013-03-31T10:03:34Z</time>
      </trkpt>
      <trkpt lat="42.92991" lon="0.11859">
        <ele>2285.19</ele>
        <time>2013-03-31T10:03:50Z</time>
      </trkpt>
      <trkpt lat="42.9299" lon="0.11859">
        <ele>2284.71</ele>
        <time>2013-03-31T10:04:13Z</time>
      </trkpt>
      <trkpt lat="42.92988" lon="0.11856">
        <ele>2284.71</ele>
        <time>2013-03-31T10:04:32Z</time>
      </trkpt>
      <trkpt lat="42.92985" lon="0.11857">
        <ele>2283.75</ele>
        <time>2013-03-31T10:04:38Z</time>
      </trkpt>
      <trkpt lat="42.92985" lon="0.11847">
        <ele>2279.9</ele>
        <time>2013-03-31T10:04:41Z</time>
      </trkpt>
      <trkpt lat="42.92981" lon="0.11836">
        <ele>2276.06</ele>
        <time>2013-03-31T10:04:45Z</time>
      </trkpt>
      <trkpt lat="42.92975" lon="0.11836">
        <ele>2275.1</ele>
        <time>2013-03-31T10:04:47Z</time>
      </trkpt>
      <trkpt lat="42.9297" lon="0.11829">
        <ele>2272.21</ele>
        <time>2013-03-31T10:04:51Z</time>
      </trkpt>
      <trkpt lat="42.92963" lon="0.11817">
        <ele>2267.89</ele>
        <time>2013-03-31T10:04:55Z</time>
      </trkpt>
      <trkpt lat="42.92948" lon="0.11816">
        <ele>2262.6</ele>
        <time>2013-03-31T10:05:00Z</time>
      </trkpt>
      <trkpt lat="42.92948" lon="0.11809">
        <ele>2261.16</ele>
        <time>2013-03-31T10:05:02Z</time>
      </trkpt>
      <trkpt lat="42.92936" lon="0.11804">
        <ele>2257.31</ele>
        <time>2013-03-31T10:05:06Z</time>
      </trkpt>
      <trkpt lat="42.92928" lon="0.11797">
        <ele>2253.95</ele>
        <time>2013-03-31T10:05:09Z</time>
      </trkpt>
      <trkpt lat="42.92915" lon="0.11801">
        <ele>2252.51</ele>
        <time>2013-03-31T10:05:14Z</time>
      </trkpt>
      <trkpt lat="42.92906" lon="0.11811">
        <ele>2250.58</ele>
        <time>2013-03-31T10:05:21Z</time>
      </trkpt>
      <trkpt lat="42.9288" lon="0.1183">
        <ele>2247.22</ele>
        <time>2013-03-31T10:05:28Z</time>
      </trkpt>
      <trkpt lat="42.92873" lon="0.11832">
        <ele>2246.74</ele>
        <time>2013-03-31T10:05:30Z</time>
      </trkpt>
      <trkpt lat="42.92857" lon="0.11834">
        <ele>2243.37</ele>
        <time>2013-03-31T10:05:35Z</time>
      </trkpt>
      <trkpt lat="42.92816" lon="0.11848">
        <ele>2240.49</ele>
        <time>2013-03-31T10:05:48Z</time>
      </trkpt>
      <trkpt lat="42.92811" lon="0.1185">
        <ele>2241.45</ele>
        <time>2013-03-31T10:05:59Z</time>
      </trkpt>
      <trkpt lat="42.92811" lon="0.11849">
        <ele>2241.45</ele>
        <time>2013-03-31T10:06:09Z</time>
      </trkpt>
      <trkpt lat="42.92785" lon="0.11853">
        <ele>2238.57</ele>
        <time>2013-03-31T10:06:20Z</time>
      </trkpt>
      <trkpt lat="42.92751" lon="0.11866">
        <ele>2237.61</ele>
        <time>2013-03-31T10:06:33Z</time>
      </trkpt>
      <trkpt lat="42.92716" lon="0.11872">
        <ele>2234.72</ele>
        <time>2013-03-31T10:06:45Z</time>
      </trkpt>
      <trkpt lat="42.92679" lon="0.11884">
        <ele>2233.28</ele>
        <time>2013-03-31T10:06:57Z</time>
      </trkpt>
      <trkpt lat="42.92671" lon="0.11883">
        <ele>2232.8</ele>
        <time>2013-03-31T10:06:59Z</time>
      </trkpt>
      <trkpt lat="42.92667" lon="0.11883">
        <ele>2231.84</ele>
        <time>2013-03-31T10:07:00Z</time>
      </trkpt>
      <trkpt lat="42.92664" lon="0.11882">
        <ele>2231.84</ele>
        <time>2013-03-31T10:07:01Z</time>
      </trkpt>
      <trkpt lat="42.92643" lon="0.11873">
        <ele>2232.8</ele>
        <time>2013-03-31T10:07:11Z</time>
      </trkpt>
      <trkpt lat="42.92635" lon="0.11872">
        <ele>2232.8</ele>
        <time>2013-03-31T10:07:23Z</time>
      </trkpt>
      <trkpt lat="42.92629" lon="0.11871">
        <ele>2232.8</ele>
        <time>2013-03-31T10:07:34Z</time>
      </trkpt>
      <trkpt lat="42.92625" lon="0.11871">
        <ele>2233.28</ele>
        <time>2013-03-31T10:07:39Z</time>
      </trkpt>
      <trkpt lat="42.92624" lon="0.1187">
        <ele>2232.8</ele>
        <time>2013-03-31T10:07:40Z</time>
      </trkpt>
      <trkpt lat="42.92623" lon="0.1187">
        <ele>2233.76</ele>
        <time>2013-03-31T10:07:41Z</time>
      </trkpt>
      <trkpt lat="42.92622" lon="0.11869">
        <ele>2233.76</ele>
        <time>2013-03-31T10:07:42Z</time>
      </trkpt>
      <trkpt lat="42.92621" lon="0.1187">
        <ele>2233.76</ele>
        <time>2013-03-31T10:07:43Z</time>
      </trkpt>
      <trkpt lat="42.92617" lon="0.11869">
        <ele>2234.24</ele>
        <time>2013-03-31T10:07:53Z</time>
      </trkpt>
      <trkpt lat="42.92609" lon="0.11869">
        <ele>2234.24</ele>
        <time>2013-03-31T10:08:02Z</time>
      </trkpt>
      <trkpt lat="42.92608" lon="0.1187">
        <ele>2233.76</ele>
        <time>2013-03-31T10:08:03Z</time>
      </trkpt>
      <trkpt lat="42.92607" lon="0.11871">
        <ele>2233.76</ele>
        <time>2013-03-31T10:08:04Z</time>
      </trkpt>
      <trkpt lat="42.92606" lon="0.11872">
        <ele>2233.76</ele>
        <time>2013-03-31T10:08:05Z</time>
      </trkpt>
      <trkpt lat="42.92602" lon="0.11874">
        <ele>2233.76</ele>
        <time>2013-03-31T10:08:19Z</time>
      </trkpt>
      <trkpt lat="42.92607" lon="0.11875">
        <ele>2233.28</ele>
        <time>2013-03-31T10:08:36Z</time>
      </trkpt>
      <trkpt lat="42.92609" lon="0.11874">
        <ele>2234.72</ele>
        <time>2013-03-31T10:09:01Z</time>
      </trkpt>
      <trkpt lat="42.9261" lon="0.11874">
        <ele>2234.72</ele>
        <time>2013-03-31T10:09:18Z</time>
      </trkpt>
      <trkpt lat="42.92609" lon="0.11876">
        <ele>2235.2</ele>
        <time>2013-03-31T10:09:47Z</time>
      </trkpt>
      <trkpt lat="42.92604" lon="0.11876">
        <ele>2234.72</ele>
        <time>2013-03-31T10:10:09Z</time>
      </trkpt>
      <trkpt lat="42.92608" lon="0.11874">
        <ele>2235.68</ele>
        <time>2013-03-31T10:10:15Z</time>
      </trkpt>
      <trkpt lat="42.92606" lon="0.11873">
        <ele>2234.24</ele>
        <time>2013-03-31T10:10:36Z</time>
      </trkpt>
      <trkpt lat="42.92606" lon="0.11879">
        <ele>2235.2</ele>
        <time>2013-03-31T10:11:00Z</time>
      </trkpt>
      <trkpt lat="42.92607" lon="0.11874">
        <ele>2234.72</ele>
        <time>2013-03-31T10:11:19Z</time>
      </trkpt>
      <trkpt lat="42.92607" lon="0.11873">
        <ele>2235.2</ele>
        <time>2013-03-31T10:11:31Z</time>
      </trkpt>
      <trkpt lat="42.92607" lon="0.11873">
        <ele>2234.72</ele>
        <time>2013-03-31T10:11:56Z</time>
      </trkpt>
      <trkpt lat="42.92599" lon="0.11864">
        <ele>2233.76</ele>
        <time>2013-03-31T10:12:23Z</time>
      </trkpt>
      <trkpt lat="42.92602" lon="0.11871">
        <ele>2234.24</ele>
        <time>2013-03-31T10:12:53Z</time>
      </trkpt>
      <trkpt lat="42.92605" lon="0.11872">
        <ele>2234.24</ele>
        <time>2013-03-31T10:13:21Z</time>
      </trkpt>
      <trkpt lat="42.92606" lon="0.11875">
        <ele>2234.72</ele>
        <time>2013-03-31T10:13:48Z</time>
      </trkpt>
      <trkpt lat="42.92603" lon="0.1187">
        <ele>2234.72</ele>
        <time>2013-03-31T10:14:13Z</time>
      </trkpt>
      <trkpt lat="42.92601" lon="0.11869">
        <ele>2234.24</ele>
        <time>2013-03-31T10:14:49Z</time>
      </trkpt>
      <trkpt lat="42.92601" lon="0.11869">
        <ele>2234.72</ele>
        <time>2013-03-31T10:15:14Z</time>
      </trkpt>
      <trkpt lat="42.92601" lon="0.11869">
        <ele>2234.72</ele>
        <time>2013-03-31T10:15:38Z</time>
      </trkpt>
      <trkpt lat="42.92603" lon="0.11873">
        <ele>2235.2</ele>
        <time>2013-03-31T10:16:02Z</time>
      </trkpt>
      <trkpt lat="42.92602" lon="0.11874">
        <ele>2235.2</ele>
        <time>2013-03-31T10:16:31Z</time>
      </trkpt>
      <trkpt lat="42.92603" lon="0.11875">
        <ele>2235.2</ele>
        <time>2013-03-31T10:17:01Z</time>
      </trkpt>
      <trkpt lat="42.92602" lon="0.11875">
        <ele>2235.68</ele>
        <time>2013-03-31T10:17:24Z</time>
      </trkpt>
      <trkpt lat="42.92604" lon="0.11874">
        <ele>2234.72</ele>
        <time>2013-03-31T10:17:49Z</time>
      </trkpt>
      <trkpt lat="42.92605" lon="0.11873">
        <ele>2235.68</ele>
        <time>2013-03-31T10:18:22Z</time>
      </trkpt>
      <trkpt lat="42.92604" lon="0.11873">
        <ele>2235.2</ele>
        <time>2013-03-31T10:18:48Z</time>
      </trkpt>
      <trkpt lat="42.92606" lon="0.11872">
        <ele>2235.68</ele>
        <time>2013-03-31T10:19:20Z</time>
      </trkpt>
      <trkpt lat="42.92606" lon="0.11876">
        <ele>2235.2</ele>
        <time>2013-03-31T10:19:54Z</time>
      </trkpt>
      <trkpt lat="42.92605" lon="0.11873">
        <ele>2235.2</ele>
        <time>2013-03-31T10:20:19Z</time>
      </trkpt>
      <trkpt lat="42.92605" lon="0.11874">
        <ele>2235.68</ele>
        <time>2013-03-31T10:20:50Z</time>
      </trkpt>
      <trkpt lat="42.92605" lon="0.11878">
        <ele>2235.68</ele>
        <time>2013-03-31T10:21:18Z</time>
      </trkpt>
      <trkpt lat="42.92606" lon="0.11876">
        <ele>2235.2</ele>
        <time>2013-03-31T10:21:49Z</time>
      </trkpt>
      <trkpt lat="42.92606" lon="0.11875">
        <ele>2235.2</ele>
        <time>2013-03-31T10:22:16Z</time>
      </trkpt>
      <trkpt lat="42.92605" lon="0.11871">
        <ele>2234.72</ele>
        <time>2013-03-31T10:22:54Z</time>
      </trkpt>
      <trkpt lat="42.92604" lon="0.11868">
        <ele>2235.68</ele>
        <time>2013-03-31T10:23:28Z</time>
      </trkpt>
      <trkpt lat="42.92606" lon="0.11871">
        <ele>2235.68</ele>
        <time>2013-03-31T10:23:59Z</time>
      </trkpt>
      <trkpt lat="42.92608" lon="0.11873">
        <ele>2235.2</ele>
        <time>2013-03-31T10:24:33Z</time>
      </trkpt>
      <trkpt lat="42.92609" lon="0.11873">
        <ele>2235.2</ele>
        <time>2013-03-31T10:25:07Z</time>
      </trkpt>
      <trkpt lat="42.92607" lon="0.11871">
        <ele>2234.72</ele>
        <time>2013-03-31T10:25:39Z</time>
      </trkpt>
      <trkpt lat="42.92609" lon="0.11875">
        <ele>2234.72</ele>
        <time>2013-03-31T10:26:16Z</time>
      </trkpt>
      <trkpt lat="42.92608" lon="0.11873">
        <ele>2235.2</ele>
        <time>2013-03-31T10:26:55Z</time>
      </trkpt>
      <trkpt lat="42.92607" lon="0.11873">
        <ele>2235.2</ele>
        <time>2013-03-31T10:27:32Z</time>
      </trkpt>
      <trkpt lat="42.92606" lon="0.11873">
        <ele>2235.68</ele>
        <time>2013-03-31T10:28:11Z</time>
      </trkpt>
      <trkpt lat="42.92606" lon="0.1187">
        <ele>2235.2</ele>
        <time>2013-03-31T10:28:43Z</time>
      </trkpt>
      <trkpt lat="42.92606" lon="0.11871">
        <ele>2234.72</ele>
        <time>2013-03-31T10:29:20Z</time>
      </trkpt>
      <trkpt lat="42.92608" lon="0.11872">
        <ele>2235.2</ele>
        <time>2013-03-31T10:30:04Z</time>
      </trkpt>
      <trkpt lat="42.92608" lon="0.11871">
        <ele>2235.2</ele>
        <time>2013-03-31T10:30:46Z</time>
      </trkpt>
      <trkpt lat="42.92608" lon="0.11874">
        <ele>2235.2</ele>
        <time>2013-03-31T10:31:22Z</time>
      </trkpt>
      <trkpt lat="42.92609" lon="0.11876">
        <ele>2235.68</ele>
        <time>2013-03-31T10:31:57Z</time>
      </trkpt>
      <trkpt lat="42.92608" lon="0.11876">
        <ele>2234.72</ele>
        <time>2013-03-31T10:32:34Z</time>
      </trkpt>
      <trkpt lat="42.9261" lon="0.11876">
        <ele>2234.72</ele>
        <time>2013-03-31T10:33:14Z</time>
      </trkpt>
      <trkpt lat="42.92606" lon="0.11878">
        <ele>2235.2</ele>
        <time>2013-03-31T10:33:47Z</time>
      </trkpt>
      <trkpt lat="42.92607" lon="0.11878">
        <ele>2235.68</ele>
        <time>2013-03-31T10:34:20Z</time>
      </trkpt>
      <trkpt lat="42.92608" lon="0.11876">
        <ele>2234.72</ele>
        <time>2013-03-31T10:34:58Z</time>
      </trkpt>
      <trkpt lat="42.92608" lon="0.11876">
        <ele>2234.24</ele>
        <time>2013-03-31T10:35:27Z</time>
      </trkpt>
      <trkpt lat="42.92607" lon="0.11879">
        <ele>2234.72</ele>
        <time>2013-03-31T10:35:58Z</time>
      </trkpt>
      <trkpt lat="42.92607" lon="0.11877">
        <ele>2234.72</ele>
        <time>2013-03-31T10:36:26Z</time>
      </trkpt>
      <trkpt lat="42.92607" lon="0.11875">
        <ele>2234.72</ele>
        <time>2013-03-31T10:36:58Z</time>
      </trkpt>
      <trkpt lat="42.92606" lon="0.11876">
        <ele>2234.72</ele>
        <time>2013-03-31T10:37:31Z</time>
      </trkpt>
      <trkpt lat="42.92604" lon="0.11878">
        <ele>2234.72</ele>
        <time>2013-03-31T10:37:55Z</time>
      </trkpt>
      <trkpt lat="42.92607" lon="0.11874">
        <ele>2235.2</ele>
        <time>2013-03-31T10:38:17Z</time>
      </trkpt>
      <trkpt lat="42.92608" lon="0.11876">
        <ele>2234.24</ele>
        <time>2013-03-31T10:38:44Z</time>
      </trkpt>
      <trkpt lat="42.92608" lon="0.11876">
        <ele>2234.72</ele>
        <time>2013-03-31T10:39:21Z</time>
      </trkpt>
      <trkpt lat="42.92607" lon="0.11871">
        <ele>2235.2</ele>
        <time>2013-03-31T10:39:50Z</time>
      </trkpt>
      <trkpt lat="42.92607" lon="0.11875">
        <ele>2235.2</ele>
        <time>2013-03-31T10:40:14Z</time>
      </trkpt>
      <trkpt lat="42.92609" lon="0.11873">
        <ele>2235.68</ele>
        <time>2013-03-31T10:40:40Z</time>
      </trkpt>
      <trkpt lat="42.9261" lon="0.11875">
        <ele>2234.72</ele>
        <time>2013-03-31T10:41:13Z</time>
      </trkpt>
      <trkpt lat="42.92608" lon="0.11874">
        <ele>2234.72</ele>
        <time>2013-03-31T10:41:49Z</time>
      </trkpt>
      <trkpt lat="42.92608" lon="0.11871">
        <ele>2234.72</ele>
        <time>2013-03-31T10:42:28Z</time>
      </trkpt>
      <trkpt lat="42.92608" lon="0.1187">
        <ele>2235.2</ele>
        <time>2013-03-31T10:43:02Z</time>
      </trkpt>
      <trkpt lat="42.92607" lon="0.1187">
        <ele>2234.72</ele>
        <time>2013-03-31T10:43:33Z</time>
      </trkpt>
      <trkpt lat="42.92608" lon="0.11868">
        <ele>2234.72</ele>
        <time>2013-03-31T10:43:52Z</time>
      </trkpt>
      <trkpt lat="42.92609" lon="0.11868">
        <ele>2234.72</ele>
        <time>2013-03-31T10:44:25Z</time>
      </trkpt>
      <trkpt lat="42.92608" lon="0.11869">
        <ele>2235.2</ele>
        <time>2013-03-31T10:44:48Z</time>
      </trkpt>
      <trkpt lat="42.92609" lon="0.11867">
        <ele>2235.68</ele>
        <time>2013-03-31T10:45:26Z</time>
      </trkpt>
      <trkpt lat="42.92608" lon="0.11871">
        <ele>2235.2</ele>
        <time>2013-03-31T10:45:56Z</time>
      </trkpt>
      <trkpt lat="42.92609" lon="0.11875">
        <ele>2235.68</ele>
        <time>2013-03-31T10:46:45Z</time>
      </trkpt>
      <trkpt lat="42.92608" lon="0.11874">
        <ele>2236.16</ele>
        <time>2013-03-31T10:47:21Z</time>
      </trkpt>
      <trkpt lat="42.92609" lon="0.11873">
        <ele>2236.64</ele>
        <time>2013-03-31T10:48:01Z</time>
      </trkpt>
      <trkpt lat="42.9261" lon="0.11874">
        <ele>2236.64</ele>
        <time>2013-03-31T10:48:33Z</time>
      </trkpt>
      <trkpt lat="42.9261" lon="0.11872">
        <ele>2237.13</ele>
        <time>2013-03-31T10:49:04Z</time>
      </trkpt>
      <trkpt lat="42.92611" lon="0.11872">
        <ele>2237.13</ele>
        <time>2013-03-31T10:49:35Z</time>
      </trkpt>
      <trkpt lat="42.92608" lon="0.11871">
        <ele>2237.13</ele>
        <time>2013-03-31T10:50:15Z</time>
      </trkpt>
      <trkpt lat="42.92607" lon="0.11871">
        <ele>2236.16</ele>
        <time>2013-03-31T10:50:52Z</time>
      </trkpt>
      <trkpt lat="42.92608" lon="0.11873">
        <ele>2236.16</ele>
        <time>2013-03-31T10:51:34Z</time>
      </trkpt>
      <trkpt lat="42.92608" lon="0.11872">
        <ele>2237.13</ele>
        <time>2013-03-31T10:52:09Z</time>
      </trkpt>
      <trkpt lat="42.92606" lon="0.11871">
        <ele>2236.16</ele>
        <time>2013-03-31T10:53:03Z</time>
      </trkpt>
      <trkpt lat="42.92605" lon="0.1187">
        <ele>2235.68</ele>
        <time>2013-03-31T10:53:48Z</time>
      </trkpt>
      <trkpt lat="42.92609" lon="0.11888">
        <ele>2235.68</ele>
        <time>2013-03-31T10:54:23Z</time>
      </trkpt>
      <trkpt lat="42.92608" lon="0.11882">
        <ele>2235.68</ele>
        <time>2013-03-31T10:54:55Z</time>
      </trkpt>
      <trkpt lat="42.92606" lon="0.11879">
        <ele>2235.2</ele>
        <time>2013-03-31T10:55:23Z</time>
      </trkpt>
      <trkpt lat="42.92606" lon="0.1188">
        <ele>2234.72</ele>
        <time>2013-03-31T10:55:54Z</time>
      </trkpt>
      <trkpt lat="42.92607" lon="0.1188">
        <ele>2233.76</ele>
        <time>2013-03-31T10:56:28Z</time>
      </trkpt>
      <trkpt lat="42.92609" lon="0.11879">
        <ele>2234.72</ele>
        <time>2013-03-31T10:56:54Z</time>
      </trkpt>
      <trkpt lat="42.92607" lon="0.11877">
        <ele>2233.76</ele>
        <time>2013-03-31T10:57:33Z</time>
      </trkpt>
      <trkpt lat="42.92607" lon="0.11877">
        <ele>2233.28</ele>
        <time>2013-03-31T10:58:11Z</time>
      </trkpt>
      <trkpt lat="42.92608" lon="0.11875">
        <ele>2232.8</ele>
        <time>2013-03-31T10:58:59Z</time>
      </trkpt>
      <trkpt lat="42.92607" lon="0.11875">
        <ele>2233.28</ele>
        <time>2013-03-31T10:59:43Z</time>
      </trkpt>
      <trkpt lat="42.92606" lon="0.11876">
        <ele>2232.8</ele>
        <time>2013-03-31T11:00:34Z</time>
      </trkpt>
      <trkpt lat="42.92607" lon="0.11877">
        <ele>2232.32</ele>
        <time>2013-03-31T11:01:17Z</time>
      </trkpt>
      <trkpt lat="42.92606" lon="0.11876">
        <ele>2232.32</ele>
        <time>2013-03-31T11:01:54Z</time>
      </trkpt>
      <trkpt lat="42.92608" lon="0.11875">
        <ele>2232.32</ele>
        <time>2013-03-31T11:02:33Z</time>
      </trkpt>
      <trkpt lat="42.92607" lon="0.11876">
        <ele>2232.32</ele>
        <time>2013-03-31T11:02:59Z</time>
      </trkpt>
      <trkpt lat="42.92608" lon="0.11877">
        <ele>2232.8</ele>
        <time>2013-03-31T11:03:18Z</time>
      </trkpt>
      <trkpt lat="42.92607" lon="0.11877">
        <ele>2232.8</ele>
        <time>2013-03-31T11:03:38Z</time>
      </trkpt>
      <trkpt lat="42.92611" lon="0.11875">
        <ele>2232.32</ele>
        <time>2013-03-31T11:04:00Z</time>
      </trkpt>
      <trkpt lat="42.9261" lon="0.11876">
        <ele>2233.28</ele>
        <time>2013-03-31T11:04:19Z</time>
      </trkpt>
      <trkpt lat="42.92609" lon="0.11876">
        <ele>2232.8</ele>
        <time>2013-03-31T11:04:34Z</time>
      </trkpt>
      <trkpt lat="42.92608" lon="0.11878">
        <ele>2232.32</ele>
        <time>2013-03-31T11:04:55Z</time>
      </trkpt>
      <trkpt lat="42.92609" lon="0.11878">
        <ele>2232.8</ele>
        <time>2013-03-31T11:05:22Z</time>
      </trkpt>
      <trkpt lat="42.92609" lon="0.11876">
        <ele>2232.8</ele>
        <time>2013-03-31T11:05:40Z</time>
      </trkpt>
      <trkpt lat="42.92609" lon="0.11878">
        <ele>2232.8</ele>
        <time>2013-03-31T11:05:57Z</time>
      </trkpt>
      <trkpt lat="42.92607" lon="0.11878">
        <ele>2232.32</ele>
        <time>2013-03-31T11:06:00Z</time>
      </trkpt>
      <trkpt lat="42.92606" lon="0.11878">
        <ele>2232.8</ele>
        <time>2013-03-31T11:06:01Z</time>
      </trkpt>
      <trkpt lat="42.92592" lon="0.11879">
        <ele>2229.92</ele>
        <time>2013-03-31T11:06:05Z</time>
      </trkpt>
      <trkpt lat="42.92589" lon="0.11883">
        <ele>2227.99</ele>
        <time>2013-03-31T11:06:06Z</time>
      </trkpt>
      <trkpt lat="42.92587" lon="0.11889">
        <ele>2227.99</ele>
        <time>2013-03-31T11:06:07Z</time>
      </trkpt>
      <trkpt lat="42.92584" lon="0.11894">
        <ele>2227.51</ele>
        <time>2013-03-31T11:06:08Z</time>
      </trkpt>
      <trkpt lat="42.92581" lon="0.11898">
        <ele>2227.51</ele>
        <time>2013-03-31T11:06:09Z</time>
      </trkpt>
      <trkpt lat="42.92576" lon="0.11899">
        <ele>2227.51</ele>
        <time>2013-03-31T11:06:10Z</time>
      </trkpt>
      <trkpt lat="42.92572" lon="0.11901">
        <ele>2225.59</ele>
        <time>2013-03-31T11:06:11Z</time>
      </trkpt>
      <trkpt lat="42.9257" lon="0.11905">
        <ele>2224.63</ele>
        <time>2013-03-31T11:06:12Z</time>
      </trkpt>
      <trkpt lat="42.92568" lon="0.1191">
        <ele>2224.63</ele>
        <time>2013-03-31T11:06:13Z</time>
      </trkpt>
      <trkpt lat="42.92558" lon="0.11931">
        <ele>2222.71</ele>
        <time>2013-03-31T11:06:17Z</time>
      </trkpt>
      <trkpt lat="42.92553" lon="0.11933">
        <ele>2222.71</ele>
        <time>2013-03-31T11:06:18Z</time>
      </trkpt>
      <trkpt lat="42.92549" lon="0.11933">
        <ele>2222.22</ele>
        <time>2013-03-31T11:06:19Z</time>
      </trkpt>
      <trkpt lat="42.92543" lon="0.11931">
        <ele>2220.78</ele>
        <time>2013-03-31T11:06:20Z</time>
      </trkpt>
      <trkpt lat="42.92538" lon="0.11931">
        <ele>2220.3</ele>
        <time>2013-03-31T11:06:21Z</time>
      </trkpt>
      <trkpt lat="42.92533" lon="0.11933">
        <ele>2218.86</ele>
        <time>2013-03-31T11:06:22Z</time>
      </trkpt>
      <trkpt lat="42.92529" lon="0.11937">
        <ele>2216.94</ele>
        <time>2013-03-31T11:06:23Z</time>
      </trkpt>
      <trkpt lat="42.92525" lon="0.11941">
        <ele>2217.42</ele>
        <time>2013-03-31T11:06:24Z</time>
      </trkpt>
      <trkpt lat="42.9252" lon="0.11943">
        <ele>2217.42</ele>
        <time>2013-03-31T11:06:25Z</time>
      </trkpt>
      <trkpt lat="42.92514" lon="0.11943">
        <ele>2215.5</ele>
        <time>2013-03-31T11:06:26Z</time>
      </trkpt>
      <trkpt lat="42.92509" lon="0.11942">
        <ele>2214.53</ele>
        <time>2013-03-31T11:06:27Z</time>
      </trkpt>
      <trkpt lat="42.92504" lon="0.11942">
        <ele>2213.57</ele>
        <time>2013-03-31T11:06:28Z</time>
      </trkpt>
      <trkpt lat="42.92501" lon="0.11946">
        <ele>2211.65</ele>
        <time>2013-03-31T11:06:29Z</time>
      </trkpt>
      <trkpt lat="42.925" lon="0.11949">
        <ele>2211.17</ele>
        <time>2013-03-31T11:06:30Z</time>
      </trkpt>
      <trkpt lat="42.92495" lon="0.11965">
        <ele>2208.77</ele>
        <time>2013-03-31T11:06:33Z</time>
      </trkpt>
      <trkpt lat="42.92487" lon="0.11973">
        <ele>2203.96</ele>
        <time>2013-03-31T11:06:35Z</time>
      </trkpt>
      <trkpt lat="42.92485" lon="0.1198">
        <ele>2203.48</ele>
        <time>2013-03-31T11:06:36Z</time>
      </trkpt>
      <trkpt lat="42.92473" lon="0.12011">
        <ele>2200.11</ele>
        <time>2013-03-31T11:06:40Z</time>
      </trkpt>
      <trkpt lat="42.92463" lon="0.12019">
        <ele>2199.15</ele>
        <time>2013-03-31T11:06:42Z</time>
      </trkpt>
      <trkpt lat="42.92447" lon="0.12022">
        <ele>2198.67</ele>
        <time>2013-03-31T11:06:45Z</time>
      </trkpt>
      <trkpt lat="42.9243" lon="0.12032">
        <ele>2197.23</ele>
        <time>2013-03-31T11:06:49Z</time>
      </trkpt>
      <trkpt lat="42.92418" lon="0.12059">
        <ele>2194.83</ele>
        <time>2013-03-31T11:06:54Z</time>
      </trkpt>
      <trkpt lat="42.92396" lon="0.12072">
        <ele>2190.02</ele>
        <time>2013-03-31T11:07:01Z</time>
      </trkpt>
      <trkpt lat="42.92379" lon="0.12059">
        <ele>2185.69</ele>
        <time>2013-03-31T11:07:05Z</time>
      </trkpt>
      <trkpt lat="42.92373" lon="0.12058">
        <ele>2183.77</ele>
        <time>2013-03-31T11:07:06Z</time>
      </trkpt>
      <trkpt lat="42.92357" lon="0.12051">
        <ele>2180.89</ele>
        <time>2013-03-31T11:07:09Z</time>
      </trkpt>
      <trkpt lat="42.92355" lon="0.12047">
        <ele>2179.93</ele>
        <time>2013-03-31T11:07:10Z</time>
      </trkpt>
      <trkpt lat="42.92354" lon="0.12044">
        <ele>2179.45</ele>
        <time>2013-03-31T11:07:11Z</time>
      </trkpt>
      <trkpt lat="42.92354" lon="0.12044">
        <ele>2179.93</ele>
        <time>2013-03-31T11:07:21Z</time>
      </trkpt>
      <trkpt lat="42.92354" lon="0.12044">
        <ele>2179.93</ele>
        <time>2013-03-31T11:07:41Z</time>
      </trkpt>
      <trkpt lat="42.92354" lon="0.12043">
        <ele>2179.93</ele>
        <time>2013-03-31T11:08:02Z</time>
      </trkpt>
      <trkpt lat="42.92353" lon="0.12042">
        <ele>2179.93</ele>
        <time>2013-03-31T11:08:10Z</time>
      </trkpt>
      <trkpt lat="42.92352" lon="0.12041">
        <ele>2179.93</ele>
        <time>2013-03-31T11:08:11Z</time>
      </trkpt>
      <trkpt lat="42.9235" lon="0.12039">
        <ele>2179.45</ele>
        <time>2013-03-31T11:08:12Z</time>
      </trkpt>
      <trkpt lat="42.92347" lon="0.12036">
        <ele>2178.97</ele>
        <time>2013-03-31T11:08:13Z</time>
      </trkpt>
      <trkpt lat="42.92345" lon="0.12032">
        <ele>2178.97</ele>
        <time>2013-03-31T11:08:14Z</time>
      </trkpt>
      <trkpt lat="42.92337" lon="0.12017">
        <ele>2177.04</ele>
        <time>2013-03-31T11:08:17Z</time>
      </trkpt>
      <trkpt lat="42.92333" lon="0.1201">
        <ele>2176.08</ele>
        <time>2013-03-31T11:08:19Z</time>
      </trkpt>
      <trkpt lat="42.9233" lon="0.12009">
        <ele>2176.08</ele>
        <time>2013-03-31T11:08:20Z</time>
      </trkpt>
      <trkpt lat="42.92326" lon="0.12011">
        <ele>2173.68</ele>
        <time>2013-03-31T11:08:21Z</time>
      </trkpt>
      <trkpt lat="42.92322" lon="0.12011">
        <ele>2172.24</ele>
        <time>2013-03-31T11:08:22Z</time>
      </trkpt>
      <trkpt lat="42.92317" lon="0.12009">
        <ele>2171.27</ele>
        <time>2013-03-31T11:08:23Z</time>
      </trkpt>
      <trkpt lat="42.92312" lon="0.11999">
        <ele>2167.43</ele>
        <time>2013-03-31T11:08:25Z</time>
      </trkpt>
      <trkpt lat="42.92306" lon="0.11998">
        <ele>2164.06</ele>
        <time>2013-03-31T11:08:27Z</time>
      </trkpt>
      <trkpt lat="42.923" lon="0.11986">
        <ele>2161.18</ele>
        <time>2013-03-31T11:08:30Z</time>
      </trkpt>
      <trkpt lat="42.92292" lon="0.11982">
        <ele>2156.86</ele>
        <time>2013-03-31T11:08:32Z</time>
      </trkpt>
      <trkpt lat="42.92281" lon="0.11974">
        <ele>2152.53</ele>
        <time>2013-03-31T11:08:35Z</time>
      </trkpt>
      <trkpt lat="42.92274" lon="0.11972">
        <ele>2148.68</ele>
        <time>2013-03-31T11:08:37Z</time>
      </trkpt>
      <trkpt lat="42.92271" lon="0.11972">
        <ele>2149.16</ele>
        <time>2013-03-31T11:08:38Z</time>
      </trkpt>
      <trkpt lat="42.92267" lon="0.11964">
        <ele>2145.32</ele>
        <time>2013-03-31T11:08:40Z</time>
      </trkpt>
      <trkpt lat="42.92261" lon="0.11961">
        <ele>2140.99</ele>
        <time>2013-03-31T11:08:42Z</time>
      </trkpt>
      <trkpt lat="42.9224" lon="0.11978">
        <ele>2137.63</ele>
        <time>2013-03-31T11:08:48Z</time>
      </trkpt>
      <trkpt lat="42.9222" lon="0.11983">
        <ele>2135.71</ele>
        <time>2013-03-31T11:08:52Z</time>
      </trkpt>
      <trkpt lat="42.92215" lon="0.11979">
        <ele>2133.78</ele>
        <time>2013-03-31T11:09:00Z</time>
      </trkpt>
      <trkpt lat="42.92219" lon="0.11982">
        <ele>2134.26</ele>
        <time>2013-03-31T11:09:16Z</time>
      </trkpt>
      <trkpt lat="42.92218" lon="0.1198">
        <ele>2133.78</ele>
        <time>2013-03-31T11:09:35Z</time>
      </trkpt>
      <trkpt lat="42.92218" lon="0.11981">
        <ele>2133.78</ele>
        <time>2013-03-31T11:09:53Z</time>
      </trkpt>
      <trkpt lat="42.92216" lon="0.11973">
        <ele>2133.3</ele>
        <time>2013-03-31T11:10:00Z</time>
      </trkpt>
      <trkpt lat="42.92203" lon="0.11957">
        <ele>2129.94</ele>
        <time>2013-03-31T11:10:04Z</time>
      </trkpt>
      <trkpt lat="42.92198" lon="0.11946">
        <ele>2126.57</ele>
        <time>2013-03-31T11:10:06Z</time>
      </trkpt>
      <trkpt lat="42.9219" lon="0.11939">
        <ele>2125.13</ele>
        <time>2013-03-31T11:10:08Z</time>
      </trkpt>
      <trkpt lat="42.92182" lon="0.11932">
        <ele>2120.81</ele>
        <time>2013-03-31T11:10:10Z</time>
      </trkpt>
      <trkpt lat="42.9216" lon="0.11925">
        <ele>2114.56</ele>
        <time>2013-03-31T11:10:14Z</time>
      </trkpt>
      <trkpt lat="42.92156" lon="0.11921">
        <ele>2111.67</ele>
        <time>2013-03-31T11:10:15Z</time>
      </trkpt>
      <trkpt lat="42.92141" lon="0.11904">
        <ele>2106.87</ele>
        <time>2013-03-31T11:10:19Z</time>
      </trkpt>
      <trkpt lat="42.92132" lon="0.11895">
        <ele>2105.42</ele>
        <time>2013-03-31T11:10:21Z</time>
      </trkpt>
      <trkpt lat="42.92128" lon="0.11881">
        <ele>2101.58</ele>
        <time>2013-03-31T11:10:23Z</time>
      </trkpt>
      <trkpt lat="42.92118" lon="0.11873">
        <ele>2098.21</ele>
        <time>2013-03-31T11:10:25Z</time>
      </trkpt>
      <trkpt lat="42.92113" lon="0.11868">
        <ele>2098.21</ele>
        <time>2013-03-31T11:10:26Z</time>
      </trkpt>
      <trkpt lat="42.92107" lon="0.11856">
        <ele>2093.89</ele>
        <time>2013-03-31T11:10:28Z</time>
      </trkpt>
      <trkpt lat="42.92097" lon="0.1185">
        <ele>2092.93</ele>
        <time>2013-03-31T11:10:30Z</time>
      </trkpt>
      <trkpt lat="42.92066" lon="0.11854">
        <ele>2089.08</ele>
        <time>2013-03-31T11:10:35Z</time>
      </trkpt>
      <trkpt lat="42.92054" lon="0.11864">
        <ele>2090.52</ele>
        <time>2013-03-31T11:10:41Z</time>
      </trkpt>
      <trkpt lat="42.92053" lon="0.11864">
        <ele>2090.52</ele>
        <time>2013-03-31T11:10:44Z</time>
      </trkpt>
      <trkpt lat="42.92039" lon="0.11869">
        <ele>2089.56</ele>
        <time>2013-03-31T11:10:48Z</time>
      </trkpt>
      <trkpt lat="42.92028" lon="0.11872">
        <ele>2087.16</ele>
        <time>2013-03-31T11:10:50Z</time>
      </trkpt>
      <trkpt lat="42.92003" lon="0.11868">
        <ele>2083.31</ele>
        <time>2013-03-31T11:10:54Z</time>
      </trkpt>
      <trkpt lat="42.91997" lon="0.11867">
        <ele>2083.31</ele>
        <time>2013-03-31T11:10:55Z</time>
      </trkpt>
      <trkpt lat="42.91972" lon="0.11861">
        <ele>2081.87</ele>
        <time>2013-03-31T11:11:05Z</time>
      </trkpt>
      <trkpt lat="42.91974" lon="0.1186">
        <ele>2082.35</ele>
        <time>2013-03-31T11:11:21Z</time>
      </trkpt>
      <trkpt lat="42.91974" lon="0.11859">
        <ele>2081.87</ele>
        <time>2013-03-31T11:11:30Z</time>
      </trkpt>
      <trkpt lat="42.9197" lon="0.11858">
        <ele>2080.91</ele>
        <time>2013-03-31T11:11:32Z</time>
      </trkpt>
      <trkpt lat="42.91949" lon="0.11862">
        <ele>2077.55</ele>
        <time>2013-03-31T11:11:37Z</time>
      </trkpt>
      <trkpt lat="42.91946" lon="0.11865">
        <ele>2077.07</ele>
        <time>2013-03-31T11:11:38Z</time>
      </trkpt>
      <trkpt lat="42.91942" lon="0.11869">
        <ele>2077.55</ele>
        <time>2013-03-31T11:11:40Z</time>
      </trkpt>
      <trkpt lat="42.9194" lon="0.11873">
        <ele>2077.55</ele>
        <time>2013-03-31T11:11:52Z</time>
      </trkpt>
      <trkpt lat="42.9194" lon="0.11872">
        <ele>2077.55</ele>
        <time>2013-03-31T11:12:07Z</time>
      </trkpt>
      <trkpt lat="42.9194" lon="0.1187">
        <ele>2077.55</ele>
        <time>2013-03-31T11:12:15Z</time>
      </trkpt>
      <trkpt lat="42.91933" lon="0.1187">
        <ele>2076.1</ele>
        <time>2013-03-31T11:12:20Z</time>
      </trkpt>
      <trkpt lat="42.9192" lon="0.11847">
        <ele>2066.01</ele>
        <time>2013-03-31T11:12:25Z</time>
      </trkpt>
      <trkpt lat="42.91917" lon="0.11844">
        <ele>2062.17</ele>
        <time>2013-03-31T11:12:26Z</time>
      </trkpt>
      <trkpt lat="42.91913" lon="0.11845">
        <ele>2058.8</ele>
        <time>2013-03-31T11:12:27Z</time>
      </trkpt>
      <trkpt lat="42.9191" lon="0.11847">
        <ele>2058.32</ele>
        <time>2013-03-31T11:12:28Z</time>
      </trkpt>
      <trkpt lat="42.91903" lon="0.11838">
        <ele>2053.99</ele>
        <time>2013-03-31T11:12:31Z</time>
      </trkpt>
      <trkpt lat="42.91901" lon="0.11836">
        <ele>2051.11</ele>
        <time>2013-03-31T11:12:32Z</time>
      </trkpt>
      <trkpt lat="42.91889" lon="0.11835">
        <ele>2044.86</ele>
        <time>2013-03-31T11:12:35Z</time>
      </trkpt>
      <trkpt lat="42.91883" lon="0.11831">
        <ele>2040.54</ele>
        <time>2013-03-31T11:12:37Z</time>
      </trkpt>
      <trkpt lat="42.91879" lon="0.11832">
        <ele>2038.61</ele>
        <time>2013-03-31T11:12:39Z</time>
      </trkpt>
      <trkpt lat="42.91876" lon="0.11832">
        <ele>2035.73</ele>
        <time>2013-03-31T11:12:40Z</time>
      </trkpt>
      <trkpt lat="42.91873" lon="0.1183">
        <ele>2033.81</ele>
        <time>2013-03-31T11:12:41Z</time>
      </trkpt>
      <trkpt lat="42.91872" lon="0.11831">
        <ele>2031.4</ele>
        <time>2013-03-31T11:12:42Z</time>
      </trkpt>
      <trkpt lat="42.9187" lon="0.11836">
        <ele>2030.44</ele>
        <time>2013-03-31T11:12:43Z</time>
      </trkpt>
      <trkpt lat="42.91866" lon="0.11838">
        <ele>2029.48</ele>
        <time>2013-03-31T11:12:44Z</time>
      </trkpt>
      <trkpt lat="42.91862" lon="0.11836">
        <ele>2027.56</ele>
        <time>2013-03-31T11:12:45Z</time>
      </trkpt>
      <trkpt lat="42.91844" lon="0.11843">
        <ele>2017.94</ele>
        <time>2013-03-31T11:12:49Z</time>
      </trkpt>
      <trkpt lat="42.91839" lon="0.11851">
        <ele>2017.46</ele>
        <time>2013-03-31T11:12:50Z</time>
      </trkpt>
      <trkpt lat="42.91827" lon="0.11863">
        <ele>2016.02</ele>
        <time>2013-03-31T11:12:52Z</time>
      </trkpt>
      <trkpt lat="42.91812" lon="0.11876">
        <ele>2013.62</ele>
        <time>2013-03-31T11:12:55Z</time>
      </trkpt>
      <trkpt lat="42.91797" lon="0.11868">
        <ele>2008.33</ele>
        <time>2013-03-31T11:12:58Z</time>
      </trkpt>
      <trkpt lat="42.91781" lon="0.11863">
        <ele>2002.08</ele>
        <time>2013-03-31T11:13:01Z</time>
      </trkpt>
      <trkpt lat="42.91766" lon="0.11873">
        <ele>1999.68</ele>
        <time>2013-03-31T11:13:04Z</time>
      </trkpt>
      <trkpt lat="42.91757" lon="0.11865">
        <ele>1996.32</ele>
        <time>2013-03-31T11:13:06Z</time>
      </trkpt>
      <trkpt lat="42.91751" lon="0.11864">
        <ele>1992.95</ele>
        <time>2013-03-31T11:13:07Z</time>
      </trkpt>
      <trkpt lat="42.91741" lon="0.11867">
        <ele>1991.03</ele>
        <time>2013-03-31T11:13:09Z</time>
      </trkpt>
      <trkpt lat="42.9174" lon="0.11862">
        <ele>1989.1</ele>
        <time>2013-03-31T11:13:13Z</time>
      </trkpt>
      <trkpt lat="42.91743" lon="0.1187">
        <ele>1989.1</ele>
        <time>2013-03-31T11:13:30Z</time>
      </trkpt>
      <trkpt lat="42.91743" lon="0.11876">
        <ele>1988.62</ele>
        <time>2013-03-31T11:14:01Z</time>
      </trkpt>
      <trkpt lat="42.91744" lon="0.11867">
        <ele>1988.62</ele>
        <time>2013-03-31T11:14:19Z</time>
      </trkpt>
      <trkpt lat="42.91742" lon="0.11866">
        <ele>1988.62</ele>
        <time>2013-03-31T11:14:42Z</time>
      </trkpt>
      <trkpt lat="42.91742" lon="0.11865">
        <ele>1988.62</ele>
        <time>2013-03-31T11:14:49Z</time>
      </trkpt>
      <trkpt lat="42.91737" lon="0.11857">
        <ele>1987.66</ele>
        <time>2013-03-31T11:14:53Z</time>
      </trkpt>
      <trkpt lat="42.91721" lon="0.11839">
        <ele>1985.26</ele>
        <time>2013-03-31T11:15:02Z</time>
      </trkpt>
      <trkpt lat="42.91708" lon="0.11831">
        <ele>1981.41</ele>
        <time>2013-03-31T11:15:06Z</time>
      </trkpt>
      <trkpt lat="42.917" lon="0.11821">
        <ele>1978.05</ele>
        <time>2013-03-31T11:15:10Z</time>
      </trkpt>
      <trkpt lat="42.91691" lon="0.11818">
        <ele>1974.2</ele>
        <time>2013-03-31T11:15:12Z</time>
      </trkpt>
      <trkpt lat="42.91683" lon="0.11812">
        <ele>1968.92</ele>
        <time>2013-03-31T11:15:14Z</time>
      </trkpt>
      <trkpt lat="42.91673" lon="0.11803">
        <ele>1964.11</ele>
        <time>2013-03-31T11:15:16Z</time>
      </trkpt>
      <trkpt lat="42.91669" lon="0.11796">
        <ele>1962.19</ele>
        <time>2013-03-31T11:15:17Z</time>
      </trkpt>
      <trkpt lat="42.91657" lon="0.11782">
        <ele>1958.82</ele>
        <time>2013-03-31T11:15:21Z</time>
      </trkpt>
      <trkpt lat="42.91642" lon="0.11776">
        <ele>1955.94</ele>
        <time>2013-03-31T11:15:25Z</time>
      </trkpt>
      <trkpt lat="42.91622" lon="0.11776">
        <ele>1953.54</ele>
        <time>2013-03-31T11:15:32Z</time>
      </trkpt>
      <trkpt lat="42.91611" lon="0.11769">
        <ele>1948.25</ele>
        <time>2013-03-31T11:15:34Z</time>
      </trkpt>
      <trkpt lat="42.91604" lon="0.11772">
        <ele>1943.92</ele>
        <time>2013-03-31T11:15:36Z</time>
      </trkpt>
      <trkpt lat="42.91603" lon="0.11777">
        <ele>1943.92</ele>
        <time>2013-03-31T11:15:37Z</time>
      </trkpt>
      <trkpt lat="42.91596" lon="0.11772">
        <ele>1940.08</ele>
        <time>2013-03-31T11:15:40Z</time>
      </trkpt>
      <trkpt lat="42.9159" lon="0.11773">
        <ele>1935.75</ele>
        <time>2013-03-31T11:15:42Z</time>
      </trkpt>
      <trkpt lat="42.91579" lon="0.1177">
        <ele>1930.95</ele>
        <time>2013-03-31T11:15:45Z</time>
      </trkpt>
      <trkpt lat="42.91574" lon="0.11769">
        <ele>1925.66</ele>
        <time>2013-03-31T11:15:47Z</time>
      </trkpt>
      <trkpt lat="42.9157" lon="0.11772">
        <ele>1925.18</ele>
        <time>2013-03-31T11:15:48Z</time>
      </trkpt>
      <trkpt lat="42.91564" lon="0.11769">
        <ele>1921.33</ele>
        <time>2013-03-31T11:15:50Z</time>
      </trkpt>
      <trkpt lat="42.91559" lon="0.11762">
        <ele>1915.56</ele>
        <time>2013-03-31T11:15:52Z</time>
      </trkpt>
      <trkpt lat="42.91557" lon="0.11773">
        <ele>1913.64</ele>
        <time>2013-03-31T11:15:54Z</time>
      </trkpt>
      <trkpt lat="42.91551" lon="0.11771">
        <ele>1910.28</ele>
        <time>2013-03-31T11:15:56Z</time>
      </trkpt>
      <trkpt lat="42.91547" lon="0.11771">
        <ele>1906.43</ele>
        <time>2013-03-31T11:15:57Z</time>
      </trkpt>
      <trkpt lat="42.91536" lon="0.1178">
        <ele>1903.07</ele>
        <time>2013-03-31T11:16:00Z</time>
      </trkpt>
      <trkpt lat="42.91529" lon="0.11778">
        <ele>1899.7</ele>
        <time>2013-03-31T11:16:01Z</time>
      </trkpt>
      <trkpt lat="42.91517" lon="0.11783">
        <ele>1898.26</ele>
        <time>2013-03-31T11:16:03Z</time>
      </trkpt>
      <trkpt lat="42.91494" lon="0.1181">
        <ele>1895.86</ele>
        <time>2013-03-31T11:16:08Z</time>
      </trkpt>
      <trkpt lat="42.91473" lon="0.11815">
        <ele>1892.49</ele>
        <time>2013-03-31T11:16:15Z</time>
      </trkpt>
      <trkpt lat="42.91464" lon="0.11818">
        <ele>1889.13</ele>
        <time>2013-03-31T11:16:17Z</time>
      </trkpt>
      <trkpt lat="42.91453" lon="0.11824">
        <ele>1885.28</ele>
        <time>2013-03-31T11:16:19Z</time>
      </trkpt>
      <trkpt lat="42.91443" lon="0.11815">
        <ele>1882.4</ele>
        <time>2013-03-31T11:16:21Z</time>
      </trkpt>
      <trkpt lat="42.91435" lon="0.11814">
        <ele>1878.07</ele>
        <time>2013-03-31T11:16:23Z</time>
      </trkpt>
      <trkpt lat="42.91421" lon="0.11818">
        <ele>1874.23</ele>
        <time>2013-03-31T11:16:26Z</time>
      </trkpt>
      <trkpt lat="42.91412" lon="0.11812">
        <ele>1869.9</ele>
        <time>2013-03-31T11:16:28Z</time>
      </trkpt>
      <trkpt lat="42.91407" lon="0.11819">
        <ele>1866.54</ele>
        <time>2013-03-31T11:16:30Z</time>
      </trkpt>
      <trkpt lat="42.91392" lon="0.11831">
        <ele>1861.25</ele>
        <time>2013-03-31T11:16:34Z</time>
      </trkpt>
      <trkpt lat="42.91382" lon="0.11823">
        <ele>1857.89</ele>
        <time>2013-03-31T11:16:36Z</time>
      </trkpt>
      <trkpt lat="42.91378" lon="0.11824">
        <ele>1857.89</ele>
        <time>2013-03-31T11:16:37Z</time>
      </trkpt>
      <trkpt lat="42.91359" lon="0.11824">
        <ele>1852.12</ele>
        <time>2013-03-31T11:16:40Z</time>
      </trkpt>
      <trkpt lat="42.91344" lon="0.11807">
        <ele>1850.19</ele>
        <time>2013-03-31T11:16:43Z</time>
      </trkpt>
      <trkpt lat="42.91314" lon="0.11797">
        <ele>1847.31</ele>
        <time>2013-03-31T11:16:49Z</time>
      </trkpt>
      <trkpt lat="42.91302" lon="0.11795">
        <ele>1844.43</ele>
        <time>2013-03-31T11:16:52Z</time>
      </trkpt>
      <trkpt lat="42.91291" lon="0.11799">
        <ele>1840.58</ele>
        <time>2013-03-31T11:16:57Z</time>
      </trkpt>
      <trkpt lat="42.91288" lon="0.11802">
        <ele>1837.7</ele>
        <time>2013-03-31T11:16:59Z</time>
      </trkpt>
      <trkpt lat="42.91287" lon="0.11801">
        <ele>1837.7</ele>
        <time>2013-03-31T11:17:00Z</time>
      </trkpt>
      <trkpt lat="42.9129" lon="0.11803">
        <ele>1837.7</ele>
        <time>2013-03-31T11:17:18Z</time>
      </trkpt>
      <trkpt lat="42.9129" lon="0.11803">
        <ele>1837.7</ele>
        <time>2013-03-31T11:17:42Z</time>
      </trkpt>
      <trkpt lat="42.91289" lon="0.11803">
        <ele>1837.22</ele>
        <time>2013-03-31T11:18:02Z</time>
      </trkpt>
      <trkpt lat="42.9129" lon="0.11804">
        <ele>1837.22</ele>
        <time>2013-03-31T11:18:18Z</time>
      </trkpt>
      <trkpt lat="42.9129" lon="0.11804">
        <ele>1836.74</ele>
        <time>2013-03-31T11:18:37Z</time>
      </trkpt>
      <trkpt lat="42.9129" lon="0.11803">
        <ele>1837.7</ele>
        <time>2013-03-31T11:18:49Z</time>
      </trkpt>
      <trkpt lat="42.91271" lon="0.11788">
        <ele>1833.37</ele>
        <time>2013-03-31T11:18:55Z</time>
      </trkpt>
      <trkpt lat="42.91267" lon="0.11784">
        <ele>1832.41</ele>
        <time>2013-03-31T11:18:56Z</time>
      </trkpt>
      <trkpt lat="42.91258" lon="0.11771">
        <ele>1830.49</ele>
        <time>2013-03-31T11:18:59Z</time>
      </trkpt>
      <trkpt lat="42.91256" lon="0.11767">
        <ele>1830.01</ele>
        <time>2013-03-31T11:19:00Z</time>
      </trkpt>
      <trkpt lat="42.91253" lon="0.1176">
        <ele>1829.53</ele>
        <time>2013-03-31T11:19:02Z</time>
      </trkpt>
      <trkpt lat="42.91239" lon="0.11759">
        <ele>1824.72</ele>
        <time>2013-03-31T11:19:06Z</time>
      </trkpt>
      <trkpt lat="42.91227" lon="0.11763">
        <ele>1821.35</ele>
        <time>2013-03-31T11:19:09Z</time>
      </trkpt>
      <trkpt lat="42.91215" lon="0.11758">
        <ele>1816.07</ele>
        <time>2013-03-31T11:19:11Z</time>
      </trkpt>
      <trkpt lat="42.91204" lon="0.11749">
        <ele>1807.9</ele>
        <time>2013-03-31T11:19:15Z</time>
      </trkpt>
      <trkpt lat="42.91203" lon="0.11759">
        <ele>1807.42</ele>
        <time>2013-03-31T11:19:17Z</time>
      </trkpt>
      <trkpt lat="42.91196" lon="0.11758">
        <ele>1803.57</ele>
        <time>2013-03-31T11:19:19Z</time>
      </trkpt>
      <trkpt lat="42.9119" lon="0.11751">
        <ele>1801.65</ele>
        <time>2013-03-31T11:19:21Z</time>
      </trkpt>
      <trkpt lat="42.91182" lon="0.11759">
        <ele>1798.28</ele>
        <time>2013-03-31T11:19:25Z</time>
      </trkpt>
      <trkpt lat="42.91176" lon="0.11757">
        <ele>1793.96</ele>
        <time>2013-03-31T11:19:27Z</time>
      </trkpt>
      <trkpt lat="42.91168" lon="0.11761">
        <ele>1790.59</ele>
        <time>2013-03-31T11:19:30Z</time>
      </trkpt>
      <trkpt lat="42.91165" lon="0.11768">
        <ele>1787.23</ele>
        <time>2013-03-31T11:19:33Z</time>
      </trkpt>
      <trkpt lat="42.91155" lon="0.11771">
        <ele>1780.98</ele>
        <time>2013-03-31T11:19:37Z</time>
      </trkpt>
      <trkpt lat="42.91153" lon="0.11774">
        <ele>1780.98</ele>
        <time>2013-03-31T11:19:38Z</time>
      </trkpt>
      <trkpt lat="42.91145" lon="0.11775">
        <ele>1776.17</ele>
        <time>2013-03-31T11:19:40Z</time>
      </trkpt>
      <trkpt lat="42.91138" lon="0.1178">
        <ele>1773.29</ele>
        <time>2013-03-31T11:19:42Z</time>
      </trkpt>
      <trkpt lat="42.91127" lon="0.11771">
        <ele>1765.6</ele>
        <time>2013-03-31T11:19:46Z</time>
      </trkpt>
      <trkpt lat="42.91128" lon="0.11769">
        <ele>1765.6</ele>
        <time>2013-03-31T11:20:04Z</time>
      </trkpt>
      <trkpt lat="42.91128" lon="0.11768">
        <ele>1766.08</ele>
        <time>2013-03-31T11:20:24Z</time>
      </trkpt>
      <trkpt lat="42.91127" lon="0.11766">
        <ele>1765.6</ele>
        <time>2013-03-31T11:20:35Z</time>
      </trkpt>
      <trkpt lat="42.91119" lon="0.11754">
        <ele>1763.68</ele>
        <time>2013-03-31T11:20:40Z</time>
      </trkpt>
      <trkpt lat="42.91118" lon="0.11751">
        <ele>1763.2</ele>
        <time>2013-03-31T11:20:41Z</time>
      </trkpt>
      <trkpt lat="42.9111" lon="0.11755">
        <ele>1759.35</ele>
        <time>2013-03-31T11:20:45Z</time>
      </trkpt>
      <trkpt lat="42.91103" lon="0.11751">
        <ele>1754.54</ele>
        <time>2013-03-31T11:20:47Z</time>
      </trkpt>
      <trkpt lat="42.91101" lon="0.11748">
        <ele>1754.54</ele>
        <time>2013-03-31T11:20:48Z</time>
      </trkpt>
      <trkpt lat="42.91093" lon="0.1175">
        <ele>1750.22</ele>
        <time>2013-03-31T11:20:52Z</time>
      </trkpt>
      <trkpt lat="42.91086" lon="0.11752">
        <ele>1746.37</ele>
        <time>2013-03-31T11:20:55Z</time>
      </trkpt>
      <trkpt lat="42.91079" lon="0.11752">
        <ele>1742.05</ele>
        <time>2013-03-31T11:20:58Z</time>
      </trkpt>
      <trkpt lat="42.91079" lon="0.11759">
        <ele>1740.12</ele>
        <time>2013-03-31T11:20:59Z</time>
      </trkpt>
      <trkpt lat="42.9108" lon="0.11771">
        <ele>1738.68</ele>
        <time>2013-03-31T11:21:01Z</time>
      </trkpt>
      <trkpt lat="42.91082" lon="0.118">
        <ele>1735.8</ele>
        <time>2013-03-31T11:21:09Z</time>
      </trkpt>
      <trkpt lat="42.91082" lon="0.11805">
        <ele>1735.32</ele>
        <time>2013-03-31T11:21:10Z</time>
      </trkpt>
      <trkpt lat="42.91086" lon="0.1184">
        <ele>1731.95</ele>
        <time>2013-03-31T11:21:20Z</time>
      </trkpt>
      <trkpt lat="42.91084" lon="0.1185">
        <ele>1730.99</ele>
        <time>2013-03-31T11:21:22Z</time>
      </trkpt>
      <trkpt lat="42.91082" lon="0.11858">
        <ele>1729.55</ele>
        <time>2013-03-31T11:21:23Z</time>
      </trkpt>
      <trkpt lat="42.9108" lon="0.11865">
        <ele>1728.59</ele>
        <time>2013-03-31T11:21:24Z</time>
      </trkpt>
      <trkpt lat="42.91073" lon="0.11871">
        <ele>1728.11</ele>
        <time>2013-03-31T11:21:26Z</time>
      </trkpt>
      <trkpt lat="42.91069" lon="0.11871">
        <ele>1728.59</ele>
        <time>2013-03-31T11:21:27Z</time>
      </trkpt>
      <trkpt lat="42.91066" lon="0.11869">
        <ele>1727.63</ele>
        <time>2013-03-31T11:21:28Z</time>
      </trkpt>
      <trkpt lat="42.91062" lon="0.11867">
        <ele>1726.67</ele>
        <time>2013-03-31T11:21:29Z</time>
      </trkpt>
      <trkpt lat="42.91054" lon="0.11862">
        <ele>1725.22</ele>
        <time>2013-03-31T11:21:31Z</time>
      </trkpt>
      <trkpt lat="42.91031" lon="0.11854">
        <ele>1721.38</ele>
        <time>2013-03-31T11:21:36Z</time>
      </trkpt>
      <trkpt lat="42.91023" lon="0.11849">
        <ele>1720.9</ele>
        <time>2013-03-31T11:21:38Z</time>
      </trkpt>
      <trkpt lat="42.91017" lon="0.11843">
        <ele>1719.94</ele>
        <time>2013-03-31T11:21:40Z</time>
      </trkpt>
      <trkpt lat="42.90994" lon="0.1181">
        <ele>1716.09</ele>
        <time>2013-03-31T11:21:48Z</time>
      </trkpt>
      <trkpt lat="42.90987" lon="0.11805">
        <ele>1716.57</ele>
        <time>2013-03-31T11:21:57Z</time>
      </trkpt>
      <trkpt lat="42.90975" lon="0.11782">
        <ele>1713.21</ele>
        <time>2013-03-31T11:22:10Z</time>
      </trkpt>
      <trkpt lat="42.90964" lon="0.11768">
        <ele>1709.84</ele>
        <time>2013-03-31T11:22:16Z</time>
      </trkpt>
      <trkpt lat="42.90957" lon="0.11761">
        <ele>1708.88</ele>
        <time>2013-03-31T11:22:18Z</time>
      </trkpt>
      <trkpt lat="42.90939" lon="0.1175">
        <ele>1705.52</ele>
        <time>2013-03-31T11:22:23Z</time>
      </trkpt>
      <trkpt lat="42.90917" lon="0.11743">
        <ele>1702.15</ele>
        <time>2013-03-31T11:22:32Z</time>
      </trkpt>
      <trkpt lat="42.90917" lon="0.11747">
        <ele>1702.15</ele>
        <time>2013-03-31T11:22:41Z</time>
      </trkpt>
      <trkpt lat="42.90923" lon="0.11745">
        <ele>1701.19</ele>
        <time>2013-03-31T11:22:45Z</time>
      </trkpt>
      <trkpt lat="42.90933" lon="0.11738">
        <ele>1699.27</ele>
        <time>2013-03-31T11:22:49Z</time>
      </trkpt>
      <trkpt lat="42.90941" lon="0.11735">
        <ele>1698.79</ele>
        <time>2013-03-31T11:22:53Z</time>
      </trkpt>
      <trkpt lat="42.90928" lon="0.11719">
        <ele>1695.42</ele>
        <time>2013-03-31T11:22:59Z</time>
      </trkpt>
      <trkpt lat="42.90909" lon="0.11711">
        <ele>1692.06</ele>
        <time>2013-03-31T11:23:03Z</time>
      </trkpt>
      <trkpt lat="42.90901" lon="0.11704">
        <ele>1690.62</ele>
        <time>2013-03-31T11:23:05Z</time>
      </trkpt>
      <trkpt lat="42.90886" lon="0.11691">
        <ele>1688.69</ele>
        <time>2013-03-31T11:23:09Z</time>
      </trkpt>
      <trkpt lat="42.90877" lon="0.11689">
        <ele>1687.73</ele>
        <time>2013-03-31T11:23:12Z</time>
      </trkpt>
      <trkpt lat="42.90877" lon="0.1169">
        <ele>1686.77</ele>
        <time>2013-03-31T11:23:22Z</time>
      </trkpt>
      <trkpt lat="42.90876" lon="0.11689">
        <ele>1686.29</ele>
        <time>2013-03-31T11:23:32Z</time>
      </trkpt>
      <trkpt lat="42.90869" lon="0.11691">
        <ele>1684.85</ele>
        <time>2013-03-31T11:23:36Z</time>
      </trkpt>
      <trkpt lat="42.90873" lon="0.11689">
        <ele>1683.89</ele>
        <time>2013-03-31T11:23:42Z</time>
      </trkpt>
      <trkpt lat="42.90876" lon="0.11679">
        <ele>1682.44</ele>
        <time>2013-03-31T11:23:45Z</time>
      </trkpt>
      <trkpt lat="42.90882" lon="0.11666">
        <ele>1679.08</ele>
        <time>2013-03-31T11:23:48Z</time>
      </trkpt>
      <trkpt lat="42.90884" lon="0.11665">
        <ele>1679.08</ele>
        <time>2013-03-31T11:23:49Z</time>
      </trkpt>
      <trkpt lat="42.90882" lon="0.11667">
        <ele>1679.08</ele>
        <time>2013-03-31T11:24:05Z</time>
      </trkpt>
      <trkpt lat="42.90875" lon="0.11672">
        <ele>1679.08</ele>
        <time>2013-03-31T11:24:33Z</time>
      </trkpt>
      <trkpt lat="42.90885" lon="0.11681">
        <ele>1679.08</ele>
        <time>2013-03-31T11:25:03Z</time>
      </trkpt>
      <trkpt lat="42.90884" lon="0.11679">
        <ele>1679.08</ele>
        <time>2013-03-31T11:25:12Z</time>
      </trkpt>
      <trkpt lat="42.90868" lon="0.11675">
        <ele>1675.23</ele>
        <time>2013-03-31T11:25:18Z</time>
      </trkpt>
      <trkpt lat="42.90861" lon="0.11673">
        <ele>1671.87</ele>
        <time>2013-03-31T11:25:21Z</time>
      </trkpt>
      <trkpt lat="42.90848" lon="0.11676">
        <ele>1668.02</ele>
        <time>2013-03-31T11:25:24Z</time>
      </trkpt>
      <trkpt lat="42.90843" lon="0.11677">
        <ele>1667.54</ele>
        <time>2013-03-31T11:25:25Z</time>
      </trkpt>
      <trkpt lat="42.90825" lon="0.1168">
        <ele>1663.7</ele>
        <time>2013-03-31T11:25:28Z</time>
      </trkpt>
      <trkpt lat="42.90814" lon="0.11683">
        <ele>1660.81</ele>
        <time>2013-03-31T11:25:30Z</time>
      </trkpt>
      <trkpt lat="42.9081" lon="0.11685">
        <ele>1660.33</ele>
        <time>2013-03-31T11:25:31Z</time>
      </trkpt>
      <trkpt lat="42.9079" lon="0.11702">
        <ele>1655.05</ele>
        <time>2013-03-31T11:25:36Z</time>
      </trkpt>
      <trkpt lat="42.90784" lon="0.11709">
        <ele>1654.09</ele>
        <time>2013-03-31T11:25:38Z</time>
      </trkpt>
      <trkpt lat="42.90773" lon="0.11722">
        <ele>1652.16</ele>
        <time>2013-03-31T11:25:41Z</time>
      </trkpt>
      <trkpt lat="42.90768" lon="0.1173">
        <ele>1650.24</ele>
        <time>2013-03-31T11:25:43Z</time>
      </trkpt>
      <trkpt lat="42.90766" lon="0.11734">
        <ele>1650.24</ele>
        <time>2013-03-31T11:25:44Z</time>
      </trkpt>
      <trkpt lat="42.90753" lon="0.11749">
        <ele>1646.88</ele>
        <time>2013-03-31T11:25:49Z</time>
      </trkpt>
      <trkpt lat="42.90746" lon="0.11748">
        <ele>1645.43</ele>
        <time>2013-03-31T11:25:51Z</time>
      </trkpt>
      <trkpt lat="42.9074" lon="0.11743">
        <ele>1644.47</ele>
        <time>2013-03-31T11:25:53Z</time>
      </trkpt>
      <trkpt lat="42.90737" lon="0.11739">
        <ele>1643.99</ele>
        <time>2013-03-31T11:25:54Z</time>
      </trkpt>
      <trkpt lat="42.90735" lon="0.11733">
        <ele>1643.03</ele>
        <time>2013-03-31T11:25:55Z</time>
      </trkpt>
      <trkpt lat="42.90733" lon="0.11725">
        <ele>1641.11</ele>
        <time>2013-03-31T11:25:56Z</time>
      </trkpt>
      <trkpt lat="42.90733" lon="0.11706">
        <ele>1639.19</ele>
        <time>2013-03-31T11:25:58Z</time>
      </trkpt>
      <trkpt lat="42.90735" lon="0.11697">
        <ele>1637.74</ele>
        <time>2013-03-31T11:25:59Z</time>
      </trkpt>
      <trkpt lat="42.9073" lon="0.11674">
        <ele>1635.34</ele>
        <time>2013-03-31T11:26:02Z</time>
      </trkpt>
      <trkpt lat="42.90733" lon="0.11658">
        <ele>1631.49</ele>
        <time>2013-03-31T11:26:04Z</time>
      </trkpt>
      <trkpt lat="42.90731" lon="0.11635">
        <ele>1627.17</ele>
        <time>2013-03-31T11:26:07Z</time>
      </trkpt>
      <trkpt lat="42.90732" lon="0.11619">
        <ele>1624.28</ele>
        <time>2013-03-31T11:26:09Z</time>
      </trkpt>
      <trkpt lat="42.90732" lon="0.1161">
        <ele>1622.84</ele>
        <time>2013-03-31T11:26:10Z</time>
      </trkpt>
      <trkpt lat="42.90732" lon="0.116">
        <ele>1621.88</ele>
        <time>2013-03-31T11:26:11Z</time>
      </trkpt>
      <trkpt lat="42.90731" lon="0.1159">
        <ele>1620.92</ele>
        <time>2013-03-31T11:26:12Z</time>
      </trkpt>
      <trkpt lat="42.90729" lon="0.1158">
        <ele>1619.96</ele>
        <time>2013-03-31T11:26:13Z</time>
      </trkpt>
      <trkpt lat="42.90729" lon="0.11571">
        <ele>1619</ele>
        <time>2013-03-31T11:26:14Z</time>
      </trkpt>
      <trkpt lat="42.90731" lon="0.11567">
        <ele>1619.48</ele>
        <time>2013-03-31T11:26:15Z</time>
      </trkpt>
      <trkpt lat="42.90733" lon="0.1157">
        <ele>1619.48</ele>
        <time>2013-03-31T11:26:25Z</time>
      </trkpt>
      <trkpt lat="42.90732" lon="0.11568">
        <ele>1619.96</ele>
        <time>2013-03-31T11:26:26Z</time>
      </trkpt>
      <trkpt lat="42.90731" lon="0.1155">
        <ele>1618.04</ele>
        <time>2013-03-31T11:26:30Z</time>
      </trkpt>
      <trkpt lat="42.90731" lon="0.11543">
        <ele>1618.04</ele>
        <time>2013-03-31T11:26:31Z</time>
      </trkpt>
      <trkpt lat="42.9073" lon="0.11512">
        <ele>1614.67</ele>
        <time>2013-03-31T11:26:35Z</time>
      </trkpt>
      <trkpt lat="42.9073" lon="0.11474">
        <ele>1611.31</ele>
        <time>2013-03-31T11:26:39Z</time>
      </trkpt>
      <trkpt lat="42.9073" lon="0.11466">
        <ele>1610.83</ele>
        <time>2013-03-31T11:26:40Z</time>
      </trkpt>
      <trkpt lat="42.90731" lon="0.11458">
        <ele>1610.35</ele>
        <time>2013-03-31T11:26:41Z</time>
      </trkpt>
      <trkpt lat="42.90731" lon="0.11451">
        <ele>1610.35</ele>
        <time>2013-03-31T11:26:42Z</time>
      </trkpt>
      <trkpt lat="42.90731" lon="0.11443">
        <ele>1609.86</ele>
        <time>2013-03-31T11:26:43Z</time>
      </trkpt>
      <trkpt lat="42.9073" lon="0.11437">
        <ele>1609.86</ele>
        <time>2013-03-31T11:26:44Z</time>
      </trkpt>
      <trkpt lat="42.9073" lon="0.11424">
        <ele>1609.38</ele>
        <time>2013-03-31T11:26:46Z</time>
      </trkpt>
      <trkpt lat="42.9073" lon="0.11419">
        <ele>1608.42</ele>
        <time>2013-03-31T11:26:47Z</time>
      </trkpt>
      <trkpt lat="42.90729" lon="0.11413">
        <ele>1608.42</ele>
        <time>2013-03-31T11:26:48Z</time>
      </trkpt>
      <trkpt lat="42.90729" lon="0.11407">
        <ele>1607.94</ele>
        <time>2013-03-31T11:26:49Z</time>
      </trkpt>
      <trkpt lat="42.90728" lon="0.11401">
        <ele>1607.46</ele>
        <time>2013-03-31T11:26:50Z</time>
      </trkpt>
      <trkpt lat="42.90726" lon="0.11379">
        <ele>1606.02</ele>
        <time>2013-03-31T11:26:53Z</time>
      </trkpt>
      <trkpt lat="42.9072" lon="0.11334">
        <ele>1603.14</ele>
        <time>2013-03-31T11:26:59Z</time>
      </trkpt>
      <trkpt lat="42.9072" lon="0.11326">
        <ele>1603.14</ele>
        <time>2013-03-31T11:27:00Z</time>
      </trkpt>
      <trkpt lat="42.90723" lon="0.11294">
        <ele>1600.73</ele>
        <time>2013-03-31T11:27:04Z</time>
      </trkpt>
      <trkpt lat="42.90723" lon="0.11287">
        <ele>1600.25</ele>
        <time>2013-03-31T11:27:05Z</time>
      </trkpt>
      <trkpt lat="42.90723" lon="0.11279">
        <ele>1599.77</ele>
        <time>2013-03-31T11:27:06Z</time>
      </trkpt>
      <trkpt lat="42.90722" lon="0.11271">
        <ele>1599.29</ele>
        <time>2013-03-31T11:27:07Z</time>
      </trkpt>
      <trkpt lat="42.90722" lon="0.11263">
        <ele>1598.33</ele>
        <time>2013-03-31T11:27:08Z</time>
      </trkpt>
      <trkpt lat="42.90721" lon="0.11254">
        <ele>1598.33</ele>
        <time>2013-03-31T11:27:09Z</time>
      </trkpt>
      <trkpt lat="42.90721" lon="0.11246">
        <ele>1597.37</ele>
        <time>2013-03-31T11:27:10Z</time>
      </trkpt>
      <trkpt lat="42.90721" lon="0.11238">
        <ele>1597.85</ele>
        <time>2013-03-31T11:27:11Z</time>
      </trkpt>
      <trkpt lat="42.9072" lon="0.11222">
        <ele>1596.41</ele>
        <time>2013-03-31T11:27:13Z</time>
      </trkpt>
      <trkpt lat="42.90714" lon="0.11183">
        <ele>1593.52</ele>
        <time>2013-03-31T11:27:18Z</time>
      </trkpt>
      <trkpt lat="42.90705" lon="0.11143">
        <ele>1591.12</ele>
        <time>2013-03-31T11:27:23Z</time>
      </trkpt>
      <trkpt lat="42.90699" lon="0.11121">
        <ele>1589.68</ele>
        <time>2013-03-31T11:27:26Z</time>
      </trkpt>
      <trkpt lat="42.90689" lon="0.11087">
        <ele>1589.68</ele>
        <time>2013-03-31T11:27:36Z</time>
      </trkpt>
      <trkpt lat="42.90687" lon="0.11082">
        <ele>1588.72</ele>
        <time>2013-03-31T11:27:40Z</time>
      </trkpt>
      <trkpt lat="42.90688" lon="0.11079">
        <ele>1587.75</ele>
        <time>2013-03-31T11:27:41Z</time>
      </trkpt>
      <trkpt lat="42.90683" lon="0.11048">
        <ele>1584.87</ele>
        <time>2013-03-31T11:27:49Z</time>
      </trkpt>
      <trkpt lat="42.9067" lon="0.11011">
        <ele>1581.51</ele>
        <time>2013-03-31T11:27:56Z</time>
      </trkpt>
      <trkpt lat="42.90663" lon="0.10996">
        <ele>1580.54</ele>
        <time>2013-03-31T11:27:59Z</time>
      </trkpt>
      <trkpt lat="42.90661" lon="0.10991">
        <ele>1580.06</ele>
        <time>2013-03-31T11:28:00Z</time>
      </trkpt>
      <trkpt lat="42.90657" lon="0.10979">
        <ele>1579.1</ele>
        <time>2013-03-31T11:28:02Z</time>
      </trkpt>
      <trkpt lat="42.9065" lon="0.10943">
        <ele>1575.26</ele>
        <time>2013-03-31T11:28:07Z</time>
      </trkpt>
      <trkpt lat="42.90645" lon="0.10903">
        <ele>1573.33</ele>
        <time>2013-03-31T11:28:12Z</time>
      </trkpt>
      <trkpt lat="42.90643" lon="0.1088">
        <ele>1571.89</ele>
        <time>2013-03-31T11:28:15Z</time>
      </trkpt>
      <trkpt lat="42.90635" lon="0.10825">
        <ele>1569.01</ele>
        <time>2013-03-31T11:28:24Z</time>
      </trkpt>
      <trkpt lat="42.90635" lon="0.10817">
        <ele>1568.05</ele>
        <time>2013-03-31T11:28:25Z</time>
      </trkpt>
      <trkpt lat="42.90633" lon="0.10799">
        <ele>1564.68</ele>
        <time>2013-03-31T11:28:27Z</time>
      </trkpt>
      <trkpt lat="42.90633" lon="0.10781">
        <ele>1563.24</ele>
        <time>2013-03-31T11:28:29Z</time>
      </trkpt>
      <trkpt lat="42.90632" lon="0.10732">
        <ele>1559.88</ele>
        <time>2013-03-31T11:28:35Z</time>
      </trkpt>
      <trkpt lat="42.90627" lon="0.10684">
        <ele>1557.95</ele>
        <time>2013-03-31T11:28:44Z</time>
      </trkpt>
      <trkpt lat="42.90625" lon="0.10678">
        <ele>1556.99</ele>
        <time>2013-03-31T11:28:45Z</time>
      </trkpt>
      <trkpt lat="42.90624" lon="0.10658">
        <ele>1555.55</ele>
        <time>2013-03-31T11:28:48Z</time>
      </trkpt>
      <trkpt lat="42.90621" lon="0.10643">
        <ele>1554.11</ele>
        <time>2013-03-31T11:28:50Z</time>
      </trkpt>
      <trkpt lat="42.90614" lon="0.10614">
        <ele>1550.74</ele>
        <time>2013-03-31T11:28:54Z</time>
      </trkpt>
      <trkpt lat="42.90614" lon="0.10607">
        <ele>1551.71</ele>
        <time>2013-03-31T11:28:55Z</time>
      </trkpt>
      <trkpt lat="42.90616" lon="0.10582">
        <ele>1548.82</ele>
        <time>2013-03-31T11:28:59Z</time>
      </trkpt>
      <trkpt lat="42.90617" lon="0.10576">
        <ele>1548.82</ele>
        <time>2013-03-31T11:29:00Z</time>
      </trkpt>
      <trkpt lat="42.90619" lon="0.10571">
        <ele>1548.34</ele>
        <time>2013-03-31T11:29:01Z</time>
      </trkpt>
      <trkpt lat="42.9062" lon="0.10567">
        <ele>1547.38</ele>
        <time>2013-03-31T11:29:02Z</time>
      </trkpt>
      <trkpt lat="42.90622" lon="0.10563">
        <ele>1548.82</ele>
        <time>2013-03-31T11:29:03Z</time>
      </trkpt>
      <trkpt lat="42.90622" lon="0.10561">
        <ele>1548.34</ele>
        <time>2013-03-31T11:29:04Z</time>
      </trkpt>
      <trkpt lat="42.90623" lon="0.10558">
        <ele>1548.82</ele>
        <time>2013-03-31T11:29:05Z</time>
      </trkpt>
      <trkpt lat="42.90626" lon="0.10523">
        <ele>1544.98</ele>
        <time>2013-03-31T11:29:13Z</time>
      </trkpt>
      <trkpt lat="42.90624" lon="0.10478">
        <ele>1541.61</ele>
        <time>2013-03-31T11:29:21Z</time>
      </trkpt>
      <trkpt lat="42.90625" lon="0.10472">
        <ele>1542.09</ele>
        <time>2013-03-31T11:29:22Z</time>
      </trkpt>
      <trkpt lat="42.90627" lon="0.10439">
        <ele>1540.17</ele>
        <time>2013-03-31T11:29:29Z</time>
      </trkpt>
      <trkpt lat="42.90628" lon="0.10437">
        <ele>1541.13</ele>
        <time>2013-03-31T11:29:30Z</time>
      </trkpt>
      <trkpt lat="42.90629" lon="0.10435">
        <ele>1540.65</ele>
        <time>2013-03-31T11:29:31Z</time>
      </trkpt>
      <trkpt lat="42.90629" lon="0.10434">
        <ele>1541.61</ele>
        <time>2013-03-31T11:29:32Z</time>
      </trkpt>
      <trkpt lat="42.90629" lon="0.10432">
        <ele>1540.65</ele>
        <time>2013-03-31T11:29:33Z</time>
      </trkpt>
      <trkpt lat="42.90629" lon="0.10431">
        <ele>1541.61</ele>
        <time>2013-03-31T11:29:34Z</time>
      </trkpt>
      <trkpt lat="42.90629" lon="0.10429">
        <ele>1540.65</ele>
        <time>2013-03-31T11:29:35Z</time>
      </trkpt>
      <trkpt lat="42.9063" lon="0.10427">
        <ele>1540.65</ele>
        <time>2013-03-31T11:29:36Z</time>
      </trkpt>
      <trkpt lat="42.9063" lon="0.10424">
        <ele>1540.65</ele>
        <time>2013-03-31T11:29:37Z</time>
      </trkpt>
      <trkpt lat="42.90639" lon="0.10385">
        <ele>1539.69</ele>
        <time>2013-03-31T11:29:48Z</time>
      </trkpt>
      <trkpt lat="42.9064" lon="0.1038">
        <ele>1540.17</ele>
        <time>2013-03-31T11:29:50Z</time>
      </trkpt>
      <trkpt lat="42.9064" lon="0.10376">
        <ele>1538.73</ele>
        <time>2013-03-31T11:29:51Z</time>
      </trkpt>
      <trkpt lat="42.9064" lon="0.10373">
        <ele>1539.69</ele>
        <time>2013-03-31T11:29:52Z</time>
      </trkpt>
      <trkpt lat="42.9064" lon="0.10369">
        <ele>1538.25</ele>
        <time>2013-03-31T11:29:53Z</time>
      </trkpt>
      <trkpt lat="42.9064" lon="0.10364">
        <ele>1538.25</ele>
        <time>2013-03-31T11:29:54Z</time>
      </trkpt>
      <trkpt lat="42.90641" lon="0.10345">
        <ele>1534.88</ele>
        <time>2013-03-31T11:29:57Z</time>
      </trkpt>
      <trkpt lat="42.90641" lon="0.10338">
        <ele>1535.36</ele>
        <time>2013-03-31T11:29:58Z</time>
      </trkpt>
      <trkpt lat="42.90646" lon="0.10293">
        <ele>1532.48</ele>
        <time>2013-03-31T11:30:07Z</time>
      </trkpt>
      <trkpt lat="42.90648" lon="0.10273">
        <ele>1529.59</ele>
        <time>2013-03-31T11:30:10Z</time>
      </trkpt>
      <trkpt lat="42.90648" lon="0.10267">
        <ele>1531.04</ele>
        <time>2013-03-31T11:30:11Z</time>
      </trkpt>
      <trkpt lat="42.9065" lon="0.10215">
        <ele>1526.71</ele>
        <time>2013-03-31T11:30:23Z</time>
      </trkpt>
      <trkpt lat="42.90651" lon="0.1021">
        <ele>1526.71</ele>
        <time>2013-03-31T11:30:24Z</time>
      </trkpt>
      <trkpt lat="42.9065" lon="0.10201">
        <ele>1525.75</ele>
        <time>2013-03-31T11:30:27Z</time>
      </trkpt>
      <trkpt lat="42.90651" lon="0.10199">
        <ele>1524.31</ele>
        <time>2013-03-31T11:30:28Z</time>
      </trkpt>
      <trkpt lat="42.90651" lon="0.10196">
        <ele>1525.27</ele>
        <time>2013-03-31T11:30:29Z</time>
      </trkpt>
      <trkpt lat="42.90651" lon="0.10194">
        <ele>1523.83</ele>
        <time>2013-03-31T11:30:30Z</time>
      </trkpt>
      <trkpt lat="42.9065" lon="0.10192">
        <ele>1524.31</ele>
        <time>2013-03-31T11:30:31Z</time>
      </trkpt>
      <trkpt lat="42.90649" lon="0.10192">
        <ele>1524.31</ele>
        <time>2013-03-31T11:30:41Z</time>
      </trkpt>
      <trkpt lat="42.90649" lon="0.10195">
        <ele>1520.94</ele>
        <time>2013-03-31T11:30:56Z</time>
      </trkpt>
    </trkseg>
  </trk>
</gpx>